GFSSW_prec_cloud_003.txt.gz
Cloud_Cover
100 100 100 100 100 100 100 100 67 98 100 100 100 100 100 100 100 100 65 16 100 100 100 100 46 98 52 92 100 100 99 100 98 100 100 100 98 63 93 100 32 6 0 3 0
100 100 100 100 100 100 100 100 95 100 78 100 74 100 100 100 100 100 100 29 12 100 100 93 100 100 82 63 95 100 100 22 65 100 99 100 100 100 82 81 4 0 0 0 0
100 100 100 100 100 100 100 96 25 6 22 5 46 88 71 28 100 100 100 100 60 98 89 90 62 100 98 100 99 100 100 100 100 100 100 97 100 95 5 1 0 0 0 0 0
100 100 100 100 100 100 88 69 24 34 27 13 10 57 34 16 63 100 100 100 100 100 100 100 100 100 100 92 99 100 100 100 100 56 51 96 0 0 0 0 0 0 0 0 0
37 86 100 100 100 100 100 36 29 40 96 52 53 26 2 26 65 77 100 100 100 100 100 100 100 75 96 83 100 65 100 95 90 3 0 0 0 0 0 0 0 0 0 0 0
100 100 90 95 81 84 50 56 18 93 14 2 18 0 1 1 9 24 67 59 100 70 98 89 100 46 78 100 95 18 37 0 0 0 0 0 0 0 0 0 0 0 0 2 12
100 100 100 100 100 100 100 100 88 89 78 45 65 25 5 5 2 0 0 0 15 20 86 67 61 98 60 36 65 0 0 0 0 0 0 0 0 0 0 0 0 0 1 5 10
100 100 100 100 100 100 100 100 88 100 98 66 67 14 4 2 0 0 0 0 0 0 0 0 0 0 0 0 0 0 0 0 0 0 0 0 0 0 0 0 0 0 0 5 5
100 100 100 100 100 100 100 91 100 99 37 5 3 0 0 0 0 0 0 0 0 0 0 0 0 0 0 0 0 0 0 0 0 0 0 0 0 0 0 0 0 0 5 5 8
100 100 100 100 100 100 80 34 25 19 0 0 0 0 0 0 0 0 0 0 0 0 0 0 0 0 0 0 0 0 0 0 0 0 0 0 0 0 0 0 0 5 72 100 29
100 100 100 100 100 100 49 37 5 0 0 0 0 0 0 0 0 0 0 0 0 0 0 0 0 0 0 0 0 0 0 0 0 0 0 0 0 0 0 0 4 24 100 97 29
100 92 90 99 54 5 7 2 0 0 0 0 0 0 0 0 0 0 0 0 0 0 0 0 0 0 0 0 0 0 0 0 0 0 0 0 0 0 0 1 3 1 0 7 36
100 91 59 5 5 2 0 0 0 0 0 0 0 0 0 0 0 0 0 0 0 0 0 0 0 0 0 0 0 0 0 0 0 0 0 0 0 0 0 0 0 5 4 0 1
77 38 5 4 0 0 0 0 0 0 0 0 0 0 0 0 0 0 0 0 0 0 0 0 0 0 0 0 0 0 0 0 0 0 5 0 0 3 0 0 4 0 0 5 5
5 3 10 8 5 0 0 0 0 0 0 0 0 0 0 0 0 0 0 0 0 0 0 0 0 0 0 0 0 0 0 0 0 0 1 0 0 5 5 2 5 5 5 16 76
5 25 5 5 5 1 0 0 0 0 0 0 0 0 0 0 0 0 0 0 0 0 0 0 0 0 0 0 0 0 0 0 0 0 0 0 0 0 2 10 28 7 64 100 100
5 5 4 2 0 0 0 0 0 0 0 0 0 0 0 0 0 0 0 0 0 0 0 0 0 0 0 0 0 0 0 3 0 3 0 0 0 0 2 5 5 100 100 100 81
5 5 2 0 0 0 0 0 0 0 0 0 0 0 0 0 0 0 0 0 0 0 0 0 0 0 0 0 0 0 0 4 0 5 11 5 0 0 0 5 96 97 16 12 46
52 5 5 5 5 0 0 0 0 0 0 0 0 0 0 0 0 0 0 0 0 0 0 0 0 0 0 0 0 0 0 0 0 33 67 65 8 0 3 5 5 5 5 5 44
58 13 5 5 2 2 0 0 0 0 0 1 1 0 0 1 0 0 0 0 0 0 0 0 0 0 0 0 0 0 0 2 5 26 93 86 38 0 2 2 1 2 5 5 5
57 16 5 1 0 2 0 2 4 1 2 0 4 5 5 5 3 0 0 0 0 0 0 0 1 5 3 5 5 5 5 5 13 5 5 38 83 0 2 1 14 5 5 5 5
36 56 10 0 0 5 5 5 5 3 3 5 3 5 5 5 5 0 0 0 0 0 0 1 5 5 8 11 84 11 5 5 66 6 2 18 36 29 4 5 5 5 5 5 5
69 46 5 0 0 0 2 5 5 5 5 7 5 7 6 5 5 0 0 0 0 2 4 4 5 5 5 5 5 5 0 4 5 7 45 65 18 5 5 5 10 5 5 5 5
67 18 2 0 0 0 0 0 0 5 5 5 5 9 7 5 5 4 2 0 0 0 0 0 2 5 5 0 3 3 1 2 5 65 63 25 82 5 52 41 5 5 72 96 99
70 18 5 0 0 2 0 0 0 5 5 5 5 4 5 4 5 9 5 4 5 5 5 5 5 61 5 5 43 32 5 94 16 5 93 48 20 5 5 32 73 78 59 93 92
5 5 5 5 0 0 0 0 0 0 5 5 5 5 5 5 5 5 5 5 3 5 5 5 5 5 72 2 5 20 5 5 5 5 6 31 48 51 64 19 6 58 80 75 38
5 35 79 13 5 1 1 0 0 0 5 5 5 5 5 11 3 5 5 5 4 4 4 2 8 56 66 95 44 100 9 5 39 23 74 99 63 18 5 5 3 0 5 3 5

GFSSW_prec_cloud_006.txt.gz
Cloud_Cover
100 100 100 98 100 100 100 100 100 38 13 22 96 100 100 100 100 100 100 100 100 100 100 100 100 93 82 100 74 99 100 100 100 100 100 99 100 100 100 100 100 100 100 100 10
100 100 95 100 100 100 100 100 80 8 58 86 33 14 100 80 68 100 100 100 100 100 100 100 100 100 93 100 100 100 100 35 98 100 100 100 100 100 100 100 100 100 100 41 2
100 100 100 100 100 100 100 100 23 63 100 24 87 5 13 100 100 100 89 100 100 100 100 100 100 21 45 100 100 100 52 100 90 100 100 100 100 100 100 100 83 31 1 0 0
100 100 100 100 100 100 100 100 100 99 81 29 7 1 34 54 100 100 65 57 82 23 100 100 100 29 89 100 100 100 100 100 100 100 96 98 100 18 12 4 0 0 0 0 0
100 100 100 100 100 100 100 99 41 41 48 20 0 24 13 0 2 4 74 92 98 33 33 70 100 100 99 100 100 99 100 100 18 19 72 7 32 5 7 0 0 0 0 0 0
100 100 100 100 100 100 100 91 22 13 0 1 2 13 8 0 0 0 0 0 46 100 98 28 83 63 99 37 42 78 100 100 62 2 0 0 0 0 0 0 0 0 0 0 0
100 100 100 100 87 15 8 5 7 5 36 24 4 3 2 3 0 0 0 0 0 4 65 79 2 7 82 18 26 68 10 15 0 5 0 0 0 0 0 0 0 0 0 0 0
100 100 92 5 3 3 10 12 8 28 23 5 6 14 9 4 0 0 0 0 0 0 0 0 0 0 0 0 0 0 0 0 0 0 0 0 0 0 0 0 0 0 5 18 72
100 100 94 62 5 68 95 100 100 100 100 94 52 6 3 0 0 0 0 0 0 0 0 0 0 0 0 0 0 0 0 0 0 0 0 0 0 0 0 0 0 0 0 5 2
100 100 100 100 100 100 100 100 97 93 80 58 4 0 0 0 0 0 0 0 0 0 0 0 0 0 0 0 0 0 0 0 0 0 0 0 0 0 0 0 0 0 0 0 0
100 100 100 100 100 100 74 66 76 29 2 0 0 0 0 0 0 0 0 0 0 0 0 0 0 0 0 0 0 0 0 0 0 0 0 0 0 0 0 0 0 0 0 0 1
100 100 100 100 100 90 55 5 5 1 0 0 0 0 0 0 0 0 0 0 0 0 0 0 0 0 0 0 0 0 0 0 0 0 0 0 0 0 0 0 0 0 0 0 0
100 54 29 9 86 33 5 5 1 0 0 0 0 0 0 0 0 0 0 0 0 0 0 0 0 0 0 0 0 0 0 0 0 0 0 0 0 0 0 0 2 0 4 3 0
94 16 75 33 5 5 4 0 0 0 0 0 0 0 0 0 0 0 0 0 0 0 0 0 0 0 0 0 0 0 0 0 0 0 0 0 0 0 5 5 5 5 5 5 5
50 98 29 5 5 1 0 0 0 0 0 0 0 0 0 0 0 0 0 0 0 0 0 0 0 0 0 0 0 0 0 0 0 0 0 0 0 0 5 5 5 7 34 5 5
74 8 17 5 4 2 0 0 0 0 0 0 0 0 0 0 0 0 0 0 0 0 1 0 0 0 0 0 0 0 0 0 0 0 0 0 0 0 0 0 5 20 5 4 0
71 5 46 74 7 4 2 0 0 0 0 0 0 0 0 0 0 0 0 0 0 0 1 4 0 0 0 0 0 0 0 0 0 4 2 0 0 0 3 5 5 1 2 5 5
6 97 81 76 10 5 0 0 0 0 0 0 0 0 0 0 0 0 0 0 0 0 0 0 0 0 0 0 0 0 0 3 0 5 4 0 0 0 0 5 1 5 5 4 5
36 85 87 53 5 0 0 0 0 0 0 0 0 0 0 0 0 0 0 0 0 0 0 0 0 0 0 0 0 0 0 0 0 41 5 0 0 4 0 0 0 5 5 5 1
13 61 57 5 9 3 0 0 0 0 0 0 0 0 2 0 0 0 0 0 0 0 0 0 0 0 0 0 0 0 0 0 3 15 5 3 4 0 0 1 2 4 4 5 20
54 56 35 5 5 5 4 3 0 1 3 1 0 0 5 5 5 5 2 0 0 0 0 0 0 0 0 0 3 3 4 4 5 5 7 40 19 0 4 4 10 5 5 5 31
80 36 45 5 30 5 13 5 0 5 4 5 3 5 5 5 3 4 0 0 0 0 0 0 0 0 0 1 5 0 4 5 3 2 6 31 77 6 5 15 11 66 38 6 5
86 10 7 5 4 0 4 5 27 43 5 5 7 13 5 5 5 0 0 0 0 0 0 0 0 3 0 2 5 5 0 5 5 27 46 76 80 64 97 100 78 5 5 15 36
90 74 12 5 5 0 4 5 5 5 5 2 2 5 5 5 5 4 2 1 0 0 0 0 0 0 2 1 5 5 4 5 8 96 96 88 100 19 30 10 12 16 7 15 16
64 26 14 18 5 5 0 2 5 5 2 0 0 5 5 5 5 4 0 3 0 0 0 0 0 5 5 5 5 57 5 5 13 6 94 61 47 46 48 9 25 7 28 28 7
52 93 26 5 60 52 5 5 5 5 0 0 0 5 5 5 5 5 1 5 2 0 0 0 5 5 5 5 5 10 5 5 5 5 13 8 47 5 38 12 5 5 6 10 5
89 73 60 47 5 10 5 5 0 0 0 0 0 1 5 5 5 5 5 5 5 5 5 5 5 57 56 58 50 99 16 2 5 6 8 5 75 6 9 5 5 8 6 5 16

GFSSW_prec_cloud_009.txt.gz
Cloud_Cover
100 100 100 100 100 100 100 100 27 16 52 37 29 66 100 40 100 100 100 100 100 100 100 100 100 100 83 100 100 100 97 78 73 66 100 100 100 100 100 100 100 100 100 100 100
100 100 100 100 100 100 100 94 98 28 65 95 99 24 4 14 1 60 100 100 100 100 100 100 99 100 99 100 100 95 70 84 100 72 90 100 100 100 100 100 100 100 100 100 100
100 100 100 100 100 100 100 99 100 100 87 51 38 3 0 48 0 0 13 100 100 100 100 100 36 100 88 97 99 96 100 100 100 100 100 100 100 97 99 100 100 100 100 100 91
31 100 100 100 100 100 100 100 100 87 44 88 35 5 16 1 0 0 0 7 65 100 100 100 100 100 98 97 100 100 100 100 100 100 100 100 100 100 100 100 100 100 100 91 0
92 100 100 100 100 100 100 100 96 97 83 44 6 0 10 0 0 0 0 0 0 75 100 100 100 100 100 100 100 100 100 100 100 100 98 92 100 100 69 74 12 89 78 0 0
100 100 100 100 100 100 100 100 98 20 3 0 0 10 7 0 0 0 0 0 0 0 6 92 100 100 74 67 96 100 100 100 100 100 96 84 99 100 16 5 0 8 0 0 0
100 100 100 100 100 100 100 91 15 0 0 0 0 3 0 0 0 0 0 0 0 0 0 0 9 20 43 78 100 100 99 91 4 81 89 87 15 2 0 0 0 0 0 0 0
100 100 97 42 11 4 2 4 0 0 4 5 5 3 1 1 0 0 0 0 0 0 0 0 0 0 7 0 0 1 0 0 17 2 0 0 0 0 0 0 0 0 0 0 0
100 29 5 5 4 5 5 5 2 3 5 9 20 55 2 0 0 0 0 0 0 0 0 0 0 0 0 0 0 0 0 0 0 0 0 0 0 0 0 0 0 0 0 0 0
38 5 5 2 1 0 22 20 17 66 100 27 6 2 0 0 0 0 0 0 0 0 0 0 0 0 0 0 0 0 0 0 0 0 0 0 0 0 0 0 0 0 0 0 0
5 5 5 35 92 100 100 100 100 65 7 4 0 0 0 0 0 0 0 0 0 0 0 0 0 0 0 0 0 0 0 0 0 0 0 0 0 0 0 0 0 0 0 0 0
57 25 65 100 100 100 90 53 64 4 1 0 0 0 0 0 0 0 0 0 0 0 0 0 0 0 0 0 0 0 0 0 0 0 0 0 0 0 0 0 0 0 0 0 0
100 99 100 100 100 40 18 14 5 0 0 0 0 0 0 0 0 0 0 0 0 0 0 0 0 0 0 0 0 0 0 0 0 0 0 0 0 0 0 0 0 1 0 0 0
100 97 100 100 80 20 6 5 0 0 0 0 0 0 0 0 0 0 0 0 0 0 0 0 0 0 0 0 0 0 0 0 0 0 0 0 0 0 0 0 0 0 0 0 0
84 72 100 19 5 5 5 0 0 0 0 0 0 0 0 0 0 0 0 0 0 0 2 0 0 0 0 0 0 0 0 0 0 0 0 0 0 0 0 0 2 5 4 2 5
14 38 32 20 5 3 0 0 0 0 0 0 0 0 0 0 0 0 0 0 0 0 0 3 5 0 0 0 0 0 0 0 0 0 0 0 0 0 0 4 16 5 5 5 5
85 87 43 5 8 5 0 0 0 0 0 0 0 0 0 0 0 0 0 0 0 0 0 0 0 3 0 0 0 0 0 0 0 0 0 0 0 0 0 2 4 1 2 2 5
99 17 10 6 6 1 0 0 0 0 0 0 0 0 0 0 0 0 0 0 0 0 0 0 0 0 0 0 0 0 0 0 0 4 1 4 0 0 0 0 0 0 0 1 5
44 6 44 50 1 5 4 0 0 0 0 0 0 0 0 0 0 0 0 0 0 0 0 0 0 0 0 0 0 0 0 0 2 5 5 0 0 0 0 0 1 3 5 5 97
5 19 5 5 5 7 5 0 0 0 0 0 0 0 0 0 0 0 0 0 0 0 0 0 0 0 0 0 0 0 0 0 0 2 0 0 0 0 1 3 5 5 5 36 6
26 6 61 44 57 36 5 0 0 0 0 0 0 0 0 0 0 0 0 0 0 0 0 0 0 0 0 0 0 2 2 1 1 4 5 54 32 0 5 5 29 22 6 6 16
63 10 76 30 19 5 4 4 0 0 0 4 3 0 5 5 0 0 0 0 0 0 0 0 0 0 0 0 0 0 2 2 5 5 0 17 44 71 5 7 70 64 52 100 100
59 31 62 14 8 5 12 5 2 0 5 5 2 4 7 5 5 0 0 0 0 0 0 0 0 0 0 0 0 0 0 5 5 5 5 46 70 61 8 78 64 86 88 99 13
36 6 86 18 34 5 5 5 0 5 9 10 5 5 8 9 5 1 0 0 0 0 4 0 0 4 2 0 4 1 0 2 4 59 61 21 96 45 98 71 20 60 66 42 20
48 5 6 66 76 5 5 5 0 5 5 5 5 5 5 5 3 5 3 0 1 5 3 5 3 4 5 5 5 5 1 1 5 5 40 100 80 5 29 5 8 5 5 5 6
58 46 6 56 50 10 5 5 5 4 3 5 5 0 0 0 0 5 5 5 0 5 5 5 5 5 5 5 5 5 1 5 5 5 7 8 5 5 5 5 5 5 14 67 73
100 42 55 25 46 8 5 5 5 5 5 5 0 1 5 5 5 4 1 1 0 5 5 5 5 54 100 52 5 85 5 5 5 5 5 5 5 5 5 24 26 70 87 66 99

GFSSW_prec_cloud_012.txt.gz
Cloud_Cover
63 100 100 100 100 100 100 100 70 0 1 75 76 23 83 79 99 51 100 100 100 100 100 100 100 100 100 100 100 100 100 100 82 100 100 100 96 100 36 100 100 100 100 100 100
15 100 100 100 100 100 100 100 36 0 14 100 99 99 100 96 65 1 6 100 100 100 100 100 100 100 100 100 100 100 100 97 100 100 95 56 100 100 100 100 100 100 100 100 100
97 100 100 100 74 100 100 70 0 2 98 97 100 53 14 26 0 0 0 0 57 100 100 100 100 100 100 100 100 77 100 99 100 100 91 96 100 100 100 100 100 100 100 100 100
51 99 100 100 100 100 100 58 49 100 100 100 30 28 0 0 0 0 0 0 0 42 100 100 100 100 100 100 100 92 89 100 100 99 100 100 100 100 100 100 100 100 100 100 100
100 100 98 100 100 100 100 100 100 100 100 100 100 76 6 0 0 0 0 0 0 0 1 26 100 100 100 100 100 97 92 100 100 97 98 100 100 100 100 100 100 100 42 98 100
26 35 97 100 100 100 100 100 100 100 100 84 5 26 0 0 0 0 0 0 0 0 0 3 9 18 98 100 100 100 100 100 100 100 100 100 100 100 100 100 100 100 85 40 15
100 100 100 100 100 100 100 100 100 34 2 0 0 0 0 0 0 0 0 0 0 0 0 0 0 0 0 0 5 49 67 100 100 100 100 100 46 50 64 83 44 0 0 0 0
100 100 100 100 100 100 69 46 0 0 0 0 1 0 0 0 0 0 0 0 0 0 0 0 0 0 0 0 0 0 0 0 36 33 100 95 82 1 3 0 0 0 0 0 0
100 100 100 34 24 6 0 0 0 0 0 2 3 4 0 2 0 0 0 0 0 0 0 0 0 0 0 0 0 0 0 0 0 0 10 2 0 0 0 0 0 0 0 0 0
100 99 63 4 1 0 0 0 0 29 1 3 5 2 2 0 0 0 0 0 0 0 0 0 0 0 0 0 0 0 0 0 0 0 0 0 0 0 0 0 0 0 0 0 0
12 5 5 0 0 0 23 2 7 95 84 37 8 5 0 0 0 0 0 0 0 0 0 0 0 0 0 0 0 0 0 0 0 0 0 0 0 0 0 0 0 0 0 0 0
5 0 0 0 3 6 42 22 53 49 61 9 2 0 0 0 0 0 0 0 0 0 0 0 0 0 0 0 0 0 0 0 0 0 0 0 0 0 0 0 0 0 0 0 0
4 2 4 31 84 100 83 69 37 18 0 0 0 0 0 0 0 0 0 0 0 0 0 0 0 0 0 0 0 0 0 0 0 0 0 0 0 0 0 0 0 0 0 0 0
57 91 100 100 100 62 21 5 5 0 0 0 0 0 0 0 0 0 0 0 0 0 0 0 0 0 0 0 0 0 0 0 0 0 0 0 0 0 0 0 0 0 0 0 0
100 100 100 100 70 9 7 46 4 0 0 0 0 0 0 0 0 0 0 0 0 0 0 0 0 0 0 0 0 0 0 0 0 0 0 0 0 0 0 0 0 1 5 1 0
100 100 100 96 41 18 10 5 0 0 0 0 0 0 0 0 0 0 0 0 0 0 0 0 0 0 0 0 0 0 0 0 0 0 1 0 0 4 0 0 1 5 4 0 0
93 92 25 5 5 5 5 3 0 0 0 0 0 0 0 0 0 0 0 0 0 0 0 0 0 0 0 0 0 0 0 0 2 1 3 0 0 0 0 0 5 5 0 0 3
67 53 13 35 5 5 1 0 1 0 0 0 0 0 0 0 0 0 0 0 0 0 0 0 0 0 0 0 0 0 0 0 0 0 0 0 0 2 0 0 0 0 0 1 5
68 20 5 0 0 5 1 0 7 0 0 0 0 0 0 0 0 0 0 0 0 0 0 0 0 0 0 0 0 0 0 0 0 2 3 0 0 0 0 3 3 5 5 5 5
66 47 5 5 5 5 5 0 0 0 0 0 0 0 0 0 0 0 0 0 0 0 0 0 0 0 0 0 0 0 0 3 1 23 2 0 0 4 0 1 5 5 5 3 2
62 12 5 5 5 5 1 0 0 0 0 0 0 0 0 0 0 0 0 0 0 0 0 0 0 0 0 0 0 3 2 0 0 1 1 0 1 0 0 4 5 4 3 1 5
54 8 5 5 5 5 5 5 0 0 0 0 0 0 0 5 2 0 0 0 0 0 0 0 0 0 0 0 0 0 0 0 5 5 16 4 4 5 5 5 5 5 5 35 97
24 41 20 18 36 38 7 5 2 5 3 0 0 3 5 6 5 5 0 0 0 0 0 0 0 5 4 2 0 1 0 0 5 5 5 60 36 37 5 6 16 31 74 100 98
64 70 67 8 18 8 5 5 5 6 5 5 8 12 5 5 5 0 0 2 5 0 0 3 4 2 4 5 2 0 0 5 5 6 8 7 54 5 20 30 34 94 74 52 63
97 29 5 95 74 68 12 6 7 68 5 5 5 5 4 5 5 1 1 0 0 0 0 5 1 5 5 5 5 5 0 0 0 5 73 9 6 14 5 36 45 6 65 100 76
100 82 63 5 93 100 22 5 60 28 5 5 0 0 0 0 1 0 0 0 0 4 5 5 3 4 4 5 5 4 0 5 4 3 5 5 40 6 5 5 24 74 92 98 90
100 100 35 7 14 95 84 29 11 5 5 5 1 0 18 5 3 5 5 5 5 5 5 5 0 6 44 5 6 17 5 5 5 5 5 16 57 5 27 82 100 64 65 83 100

GFSSW_prec_cloud_015.txt.gz
Cloud_Cover
0 0 31 100 100 100 100 100 99 0 0 10 9 100 22 1 78 82 100 22 44 100 100 100 100 100 100 100 100 100 100 100 100 100 100 100 100 55 10 46 99 100 100 100 100
3 3 74 100 100 99 99 100 74 0 0 10 71 36 2 70 100 96 74 6 22 7 100 100 100 100 100 100 100 100 100 100 100 100 100 100 100 22 74 100 100 100 100 100 100
46 36 3 100 100 100 100 92 71 0 0 13 68 47 22 100 99 86 99 61 0 0 90 100 100 100 100 100 100 100 100 100 100 100 100 100 98 100 100 100 100 100 100 100 100
92 87 5 7 98 100 100 97 13 0 12 59 94 100 100 20 100 67 4 0 0 0 0 85 100 100 100 100 100 100 100 100 100 100 100 98 100 45 100 100 100 100 100 100 100
2 5 12 72 100 100 100 96 1 0 31 93 72 98 100 89 40 0 0 0 0 0 0 0 0 27 96 100 100 100 100 100 100 100 100 100 100 100 100 100 100 100 100 100 100
20 93 71 100 100 100 96 9 100 99 98 100 100 95 37 44 4 0 0 0 0 0 0 0 0 0 1 3 100 100 100 100 100 100 100 100 100 100 100 100 100 100 100 100 100
47 14 100 78 94 100 100 100 100 100 100 100 100 100 100 8 0 0 0 0 0 0 0 0 0 0 0 0 12 100 100 100 100 100 100 100 100 100 100 100 100 100 100 100 36
97 100 95 100 100 100 100 100 100 100 95 41 9 0 0 0 0 0 0 0 0 0 0 0 0 0 0 0 0 0 0 42 96 100 100 87 55 97 48 2 3 18 4 0 3
100 100 100 100 100 100 100 99 26 2 0 1 8 0 0 0 0 0 0 0 0 0 0 0 0 0 0 0 0 0 31 1 0 0 12 15 53 0 0 0 0 0 1 0 0
100 100 100 100 100 100 40 11 0 30 18 0 0 0 0 4 2 5 2 0 0 0 0 0 0 0 0 2 92 14 0 0 0 0 0 0 0 0 0 0 0 0 0 0 0
100 100 100 100 97 5 45 0 0 0 0 3 5 5 5 5 6 5 5 5 1 0 0 0 1 17 0 0 0 0 0 0 0 0 0 0 0 0 0 0 0 0 0 0 0
99 100 75 20 2 0 12 0 0 4 21 65 82 5 2 0 0 0 0 0 0 0 0 0 0 0 0 0 0 0 0 0 0 0 0 0 0 0 0 0 0 0 0 0 0
68 6 0 0 2 17 2 26 74 18 5 5 1 0 0 0 0 0 0 0 0 0 0 0 0 0 0 0 0 0 0 0 0 0 0 0 0 0 0 0 0 0 0 0 0
5 0 0 5 61 96 99 100 78 55 6 0 0 0 0 0 0 0 0 0 0 0 0 0 0 0 0 0 0 0 0 0 0 0 3 0 44 0 0 0 0 0 0 0 0
5 1 98 100 100 76 94 54 13 2 0 0 0 0 0 0 0 0 0 0 0 0 0 0 0 0 0 0 0 0 0 0 0 0 0 0 0 80 0 0 0 0 0 0 0
60 100 100 100 36 62 56 6 2 0 0 0 0 0 0 0 0 0 0 0 0 0 0 0 0 0 0 0 0 0 0 0 0 0 1 3 0 98 98 19 0 0 2 4 0
100 100 100 77 55 43 31 5 4 1 0 0 0 0 0 0 0 0 0 0 0 2 0 0 0 0 0 1 0 0 0 5 55 30 66 1 0 40 0 0 1 0 0 0 0
100 100 100 57 78 55 20 5 1 0 0 0 0 0 0 0 0 0 0 0 0 0 0 4 27 0 0 0 0 0 0 3 2 5 13 0 1 63 0 0 0 0 0 0 0
100 100 60 5 63 35 5 5 7 5 0 0 0 0 0 0 0 0 0 0 0 1 1 0 2 0 0 0 0 0 0 0 0 0 0 1 15 3 0 0 2 1 0 4 5
94 48 45 18 50 36 5 5 2 3 0 0 0 0 0 0 0 0 0 0 0 0 0 0 1 0 0 0 0 0 0 4 4 22 0 52 3 100 14 56 17 32 68 42 7
88 73 82 5 6 16 5 0 0 0 0 0 0 0 0 0 5 5 2 0 0 0 0 0 0 0 0 0 1 4 5 0 0 0 4 1 12 4 15 14 5 10 5 8 66
83 41 46 5 5 5 5 0 0 0 0 0 2 2 4 5 5 5 5 0 0 0 0 0 0 0 0 0 0 0 1 0 0 2 5 1 5 3 5 4 5 8 93 16 73
100 76 11 15 6 8 5 5 3 0 0 0 0 0 0 5 5 5 4 4 0 0 0 0 0 0 1 0 1 0 3 1 4 5 4 5 6 100 64 100 100 100 97 38 99
46 54 29 15 9 10 18 35 5 5 1 1 0 0 0 5 5 5 0 0 0 0 3 5 4 3 3 4 5 5 5 5 5 21 16 7 98 100 100 100 95 31 68 97 97
79 49 65 5 12 7 32 37 5 5 5 5 5 0 5 5 3 1 0 0 0 0 0 0 0 0 0 0 0 5 5 5 5 16 88 34 99 100 100 67 23 77 98 96 100
87 61 17 5 5 6 7 59 54 55 6 5 5 5 4 0 0 0 0 0 0 2 5 5 5 5 5 0 0 0 0 5 5 26 5 80 99 100 48 89 88 26 57 99 12
40 95 6 31 5 5 13 70 64 35 33 5 5 5 5 2 0 0 0 0 0 5 5 5 5 5 9 7 5 9 13 5 32 84 96 98 97 100 59 100 98 99 78 9 5

GFSSW_prec_cloud_018.txt.gz
Cloud_Cover
3 0 0 0 13 100 100 96 62 27 9 24 19 26 60 0 28 0 3 4 0 53 100 100 100 100 100 100 100 100 100 100 100 96 100 100 100 73 93 100 100 100 100 100 100
12 4 0 0 100 100 100 100 100 9 3 8 22 28 14 4 0 0 66 14 57 45 3 100 93 100 100 100 100 100 100 100 100 65 94 100 97 100 100 100 100 100 100 100 100
12 1 0 8 11 100 100 100 100 5 0 0 16 22 3 10 0 0 98 100 27 48 28 3 75 100 100 100 100 100 100 100 100 100 100 100 100 100 100 100 100 100 100 100 100
100 13 42 100 4 100 100 100 93 0 3 4 24 45 6 0 6 100 100 100 53 5 0 4 7 99 100 100 100 100 100 100 100 100 100 100 100 100 100 100 100 100 100 100 100
90 15 78 100 45 100 100 100 90 0 0 9 26 73 10 100 100 100 100 100 65 0 0 0 10 36 84 100 100 100 100 100 100 100 100 100 100 100 100 100 100 100 100 100 100
21 0 5 13 94 100 100 99 0 0 2 27 46 68 100 86 82 100 54 13 2 0 0 4 94 18 0 4 9 47 100 100 100 100 100 100 100 100 100 100 100 100 100 100 100
94 26 97 76 4 100 100 28 5 14 100 100 100 100 100 100 97 100 9 3 5 0 0 0 0 0 0 0 0 0 6 76 100 100 100 100 100 100 100 100 100 100 100 100 100
6 61 100 100 72 100 100 100 100 100 100 100 100 100 100 100 100 78 91 4 0 0 0 0 0 0 1 0 0 0 0 14 1 30 92 100 100 100 88 99 100 100 100 100 100
100 83 100 60 100 100 100 100 100 100 100 100 100 100 100 100 98 14 3 0 0 0 0 0 0 0 0 0 0 0 44 49 0 0 0 0 41 7 3 3 25 52 91 100 98
100 100 100 100 100 100 100 100 100 100 100 100 89 41 11 0 0 0 0 0 0 0 0 0 0 0 0 18 100 48 42 28 0 0 0 0 3 96 0 0 0 0 0 2 3
100 100 100 100 100 100 100 100 100 100 11 0 0 0 0 0 0 0 0 1 3 5 1 1 4 74 0 2 0 0 0 0 43 0 0 0 0 0 0 0 0 0 0 2 10
100 100 100 100 100 100 88 5 0 0 0 0 0 0 3 4 5 5 5 8 5 4 5 4 5 1 0 0 0 0 0 0 0 0 0 0 0 0 0 0 0 0 0 0 0
100 100 100 100 80 27 5 4 0 0 2 9 27 5 26 37 42 21 5 5 5 4 3 0 1 0 0 0 0 0 0 0 0 0 0 0 0 0 0 0 0 0 0 0 0
100 100 51 29 38 5 3 0 36 92 81 79 71 63 22 17 14 5 2 0 0 0 0 0 0 0 0 0 0 0 0 0 0 0 1 4 24 98 0 0 0 0 0 0 0
92 8 5 1 1 0 37 64 96 75 100 64 80 5 4 2 0 0 0 0 0 0 0 0 0 0 0 0 0 0 0 0 0 0 0 0 0 95 5 5 2 0 0 0 0
16 1 5 5 16 100 59 89 83 87 82 18 5 2 0 0 0 0 0 0 0 0 0 0 0 0 0 0 0 0 0 0 0 0 2 25 17 91 99 80 100 2 0 0 0
4 14 53 100 100 76 76 85 84 47 5 2 0 0 0 0 0 0 0 0 1 2 1 0 0 0 0 1 0 0 5 12 72 63 23 50 64 2 13 88 64 12 0 0 0
7 92 100 70 72 97 75 81 6 5 5 0 0 0 0 0 0 0 0 0 0 0 11 23 22 0 0 0 5 0 0 0 2 10 25 21 1 5 33 4 62 0 0 1 3
89 98 100 88 43 42 69 27 52 5 2 0 0 0 0 0 0 0 1 0 2 0 3 5 2 0 0 0 0 4 2 0 1 0 0 0 100 100 12 82 7 2 0 21 16
100 100 100 57 18 59 78 28 5 21 5 0 0 1 5 0 0 5 1 0 4 4 2 0 5 0 0 0 0 0 0 0 32 3 4 27 82 46 64 100 74 90 93 22 25
100 100 98 61 20 18 74 92 5 5 1 0 5 0 46 2 5 5 3 3 0 0 0 0 0 0 0 0 2 2 5 0 0 0 2 19 70 5 8 71 50 14 5 25 78
100 100 96 56 62 57 85 98 6 3 0 0 0 0 5 2 5 5 5 0 0 0 0 0 0 0 0 0 0 0 0 3 2 1 5 5 68 3 2 2 12 74 9 59 76
90 83 36 50 20 41 75 63 5 5 0 0 0 1 2 4 5 5 5 5 5 0 0 0 0 0 0 1 0 0 4 5 5 4 4 16 5 71 96 98 99 43 96 84 51
100 41 46 22 31 19 66 27 5 0 0 0 5 4 0 0 5 5 5 5 5 5 2 0 0 1 5 0 0 0 0 0 3 5 5 4 12 9 74 80 50 35 19 5 5
80 41 92 85 6 5 5 5 64 5 0 4 5 5 5 5 5 5 5 5 5 0 0 0 0 0 0 0 0 0 0 0 5 5 70 21 99 100 81 13 94 18 5 5 5
46 100 100 84 7 5 6 5 73 5 1 5 5 5 5 5 6 20 2 0 0 0 0 0 5 5 0 0 0 5 0 0 2 5 64 29 5 100 94 5 5 5 5 5 5
84 38 59 36 6 33 12 5 5 5 5 5 5 5 5 5 5 5 5 0 0 0 0 0 5 5 5 6 5 5 5 1 4 40 9 37 53 54 7 5 6 89 8 10 48

GFSSW_prec_cloud_021.txt.gz
Cloud_Cover
45 28 6 0 0 0 0 93 62 0 3 17 29 31 26 7 18 5 0 0 0 0 0 35 100 100 100 100 100 100 100 100 100 100 100 100 100 100 100 100 100 100 96 99 100
100 67 8 0 0 0 69 100 88 24 0 0 1 19 5 2 5 29 5 64 4 0 4 5 81 100 100 100 100 100 100 100 100 100 100 100 100 100 100 100 100 100 100 100 100
100 100 32 6 3 0 50 100 100 87 4 87 0 24 12 29 0 56 46 64 70 5 3 100 94 100 100 100 100 100 100 100 100 100 100 100 100 100 100 100 100 66 99 100 99
100 100 100 9 9 99 55 100 100 100 23 56 30 76 69 0 0 0 99 100 100 100 100 100 100 100 100 100 100 100 100 100 100 100 100 100 100 100 100 100 100 92 100 100 100
100 100 94 17 42 100 93 100 100 100 56 19 32 99 3 0 0 0 81 100 100 99 68 84 72 84 100 100 100 100 100 100 100 100 100 100 100 100 100 100 100 100 100 100 100
44 25 16 0 96 35 97 100 100 30 3 4 70 64 8 3 82 98 96 88 30 10 22 2 4 46 96 57 100 100 100 100 100 100 100 100 100 100 100 100 100 100 100 100 100
100 75 5 4 16 88 82 100 67 5 4 27 92 19 4 58 95 98 100 100 100 95 80 86 5 4 0 0 16 99 44 62 100 100 100 100 100 100 100 100 100 100 100 100 100
74 9 100 100 36 2 100 100 100 79 50 99 100 100 100 100 100 100 98 12 100 100 91 30 2 3 0 0 0 0 17 23 93 100 100 66 88 21 64 100 100 100 100 100 100
5 100 100 100 21 5 32 100 100 100 100 100 100 100 57 100 100 100 100 100 70 98 14 0 0 0 0 3 2 3 86 37 13 4 1 0 0 0 3 44 28 33 38 45 88
100 71 100 78 62 100 100 100 100 100 100 100 100 100 100 100 74 99 68 93 4 12 0 0 0 0 58 4 5 30 95 7 2 0 0 0 1 67 4 0 0 0 0 1 1
89 100 100 100 100 100 100 98 100 100 100 100 96 100 100 100 100 55 10 0 0 0 0 0 1 5 0 0 26 100 38 4 0 0 0 0 0 2 0 0 0 0 0 0 0
100 100 100 100 100 100 100 100 100 100 100 100 100 42 5 6 4 0 0 0 0 0 0 1 0 20 20 5 4 4 1 0 0 0 0 0 0 0 0 0 0 0 0 0 0
100 100 100 100 100 100 100 100 99 74 50 4 7 0 3 0 0 2 0 5 31 13 4 0 3 2 1 0 0 0 0 0 0 0 0 0 0 0 0 0 0 0 0 0 0
100 100 100 100 100 98 40 6 5 1 0 1 2 0 0 4 18 20 5 4 4 4 5 1 1 0 0 0 0 0 0 0 0 0 0 0 0 0 0 0 1 5 5 0 0
100 100 100 100 65 7 1 0 2 2 9 14 40 5 5 6 5 5 5 2 0 0 0 0 0 0 0 0 0 0 0 0 0 0 0 0 0 99 78 5 3 5 2 4 5
100 100 82 44 6 1 2 7 42 100 28 53 23 47 65 42 5 0 0 0 0 0 0 0 0 0 0 0 0 0 0 0 0 0 0 0 4 70 50 46 6 2 99 65 55
100 72 21 5 4 4 70 99 93 55 29 38 52 46 5 4 0 0 0 0 0 0 0 0 0 0 0 0 0 0 0 0 4 5 87 62 76 100 42 26 38 5 5 4 5
74 42 0 0 4 87 73 86 57 10 66 51 46 10 0 0 0 0 0 0 0 3 4 4 2 0 0 0 0 0 0 0 0 20 5 3 61 84 27 24 98 97 85 5 5
14 2 4 5 76 21 48 10 49 36 29 5 5 0 0 0 0 0 0 0 0 0 2 5 0 0 0 0 0 0 0 0 0 0 0 3 57 94 65 81 81 100 100 34 21
4 56 65 8 20 33 12 50 33 9 5 5 1 1 3 0 0 0 0 0 3 1 0 0 0 0 0 0 0 0 0 0 0 0 0 0 19 5 19 6 74 85 81 91 86
82 100 75 5 5 28 56 34 38 32 16 1 14 4 85 16 11 64 2 0 0 0 0 0 0 0 0 0 0 0 0 0 0 0 1 4 1 0 5 5 23 29 71 50 36
90 93 90 39 24 54 56 8 21 5 5 3 0 0 9 5 15 4 3 0 0 0 0 0 0 0 0 0 0 0 0 0 0 0 2 4 1 0 40 8 99 98 97 43 70
48 100 100 56 71 17 21 7 5 5 3 0 0 0 0 0 1 5 5 4 3 1 0 0 0 0 0 0 0 0 0 0 0 5 1 1 0 4 83 16 70 22 34 50 84
55 100 100 83 34 36 80 67 17 5 5 0 0 0 2 0 0 5 5 5 5 5 0 0 0 0 0 0 0 0 0 0 0 0 2 0 3 3 10 18 4 23 5 5 5
100 100 100 100 99 41 51 25 53 12 5 0 0 5 5 5 4 5 5 5 5 5 2 0 0 0 0 0 0 0 0 0 0 0 0 1 77 82 14 6 80 36 5 5 70
100 100 51 68 85 81 41 5 43 47 5 4 0 0 5 7 3 5 5 5 5 1 0 0 0 0 0 0 1 1 0 0 0 0 0 2 5 5 5 5 5 5 5 67 69
100 100 100 75 48 62 8 5 24 10 5 5 5 3 2 2 4 1 0 4 0 0 0 0 0 4 4 3 5 5 5 0 0 0 0 5 2 2 1 0 5 68 53 16 39

GFSSW_prec_cloud_024.txt.gz
Cloud_Cover
69 20 13 7 45 5 0 0 46 88 8 24 29 65 11 3 9 6 5 4 5 78 97 53 100 100 100 100 100 100 100 100 100 100 100 100 100 100 100 100 100 100 100 100 100
100 100 100 100 93 21 0 0 100 100 78 25 28 11 0 73 12 1 5 6 12 29 21 100 100 100 100 100 100 100 100 100 100 100 100 100 100 100 100 100 100 100 100 100 100
100 100 100 100 28 2 3 21 100 100 100 60 32 0 90 83 0 0 98 99 95 92 96 90 100 100 100 100 100 100 100 100 100 100 100 100 100 100 100 100 100 100 100 100 100
100 100 100 100 100 87 5 10 100 100 100 57 80 11 100 8 0 0 54 99 100 100 100 100 100 97 100 100 100 100 100 100 100 100 100 100 100 100 100 100 100 100 100 100 100
100 100 100 100 97 100 51 100 100 100 100 75 73 93 3 0 0 0 2 100 95 88 14 37 99 100 100 100 89 100 100 100 100 100 100 100 100 100 100 100 100 100 100 100 100
100 89 10 6 5 62 92 99 100 100 100 100 87 99 9 0 0 0 3 99 44 77 92 97 100 100 99 71 81 100 100 100 100 100 100 100 100 100 100 100 100 100 100 100 100
70 5 5 5 90 8 5 14 100 96 6 4 100 42 54 5 12 2 68 100 99 100 100 100 100 100 97 96 14 100 100 100 100 100 100 100 100 100 100 100 100 100 100 100 100
14 19 14 5 6 5 35 80 100 32 5 5 31 49 17 100 100 58 100 93 100 90 71 100 100 100 85 5 7 69 100 100 100 100 100 100 100 100 100 100 93 100 95 99 100
67 27 5 98 96 64 0 2 12 5 67 100 100 96 100 97 81 100 98 97 95 78 100 100 92 10 1 5 5 5 6 90 100 100 99 88 100 100 100 87 5 100 100 100 89
82 4 9 100 64 6 18 82 83 100 100 100 100 100 100 100 94 99 80 37 97 100 100 53 6 5 5 5 4 5 3 5 5 5 3 0 22 73 23 0 0 7 80 22 0
98 78 100 93 56 81 100 100 100 100 100 100 81 100 100 68 100 100 100 100 86 5 18 5 4 5 0 5 6 8 5 5 0 0 0 0 0 0 0 0 0 0 0 0 0
97 97 73 100 98 55 78 100 100 100 100 100 100 100 100 62 100 100 99 1 5 3 5 1 0 0 2 0 77 19 5 0 0 0 0 0 0 0 0 0 0 0 0 0 2
46 94 81 86 100 100 99 99 93 100 75 85 100 100 100 72 91 11 3 1 0 4 0 0 0 5 5 2 3 59 4 0 0 0 0 0 0 0 0 0 0 0 0 72 96
81 97 100 100 100 100 100 100 100 100 100 100 84 10 52 5 0 0 0 0 2 3 5 4 4 0 0 4 0 0 0 0 0 0 0 0 0 0 0 0 0 0 1 2 99
100 100 99 12 99 100 100 100 88 96 9 0 2 4 0 0 0 1 5 6 5 22 5 4 0 0 2 0 0 0 0 0 0 0 0 0 0 0 1 0 5 6 99 100 100
99 89 100 100 100 100 70 6 6 19 3 0 0 0 1 5 5 5 28 12 3 2 0 0 0 0 0 0 0 0 0 0 0 0 0 0 1 21 5 2 27 34 49 73 22
100 100 100 100 66 50 5 0 2 40 3 8 6 5 5 7 5 5 3 1 0 0 0 0 0 0 0 0 0 0 0 0 2 3 8 5 5 25 35 17 33 5 5 13 82
100 100 100 82 6 4 5 3 8 81 55 5 15 38 8 5 5 0 0 0 0 0 0 0 2 0 0 0 0 0 0 0 1 4 5 5 3 1 4 99 98 95 5 20 100
100 100 34 61 5 4 51 100 33 5 55 71 52 31 5 2 0 0 0 0 0 3 0 0 0 0 0 0 0 0 0 0 0 0 1 0 4 5 62 58 100 100 95 72 5
100 91 59 6 16 60 60 10 15 34 21 46 13 14 4 0 0 0 0 0 0 0 0 0 0 0 0 0 0 0 0 0 0 0 1 0 2 5 5 89 23 5 6 5 5
100 14 8 5 100 67 83 87 37 80 36 7 5 4 4 0 0 0 0 0 0 5 0 0 0 0 0 0 0 0 0 0 0 0 2 4 0 0 0 3 3 5 9 86 100
56 8 31 87 71 59 78 70 60 40 56 5 3 3 5 7 3 1 0 0 5 5 2 0 0 0 0 0 0 0 0 0 0 0 0 4 1 0 0 4 5 5 55 78 88
48 58 100 52 89 66 40 65 86 72 44 5 0 0 5 5 2 0 0 3 0 0 0 0 0 0 0 0 0 0 0 0 0 1 0 0 0 0 2 5 20 29 38 17 5
12 100 100 76 48 47 52 66 60 58 7 4 2 0 0 0 0 2 5 5 5 5 5 5 2 0 0 0 0 0 0 1 5 5 3 1 1 0 3 2 0 0 0 5 5
95 100 91 93 62 40 5 31 22 18 10 5 5 1 3 3 4 3 5 5 5 5 5 5 5 0 0 0 0 5 4 0 0 0 0 0 0 0 0 0 5 5 5 5 32
71 66 62 9 11 5 6 12 67 14 5 7 7 5 8 23 2 0 0 5 5 5 0 0 0 0 0 0 5 5 4 0 0 0 0 0 0 0 0 5 5 5 5 82 100
18 63 96 26 40 99 85 18 17 75 88 100 47 5 5 2 4 4 5 5 0 2 5 5 0 2 5 5 5 9 5 0 0 1 1 2 0 0 3 2 4 5 5 37 65

GFSSW_prec_cloud_027.txt.gz
Cloud_Cover
99 100 100 99 98 9 5 14 9 98 100 100 85 100 47 81 42 8 91 28 5 5 5 12 100 86 72 99 72 100 100 100 100 100 100 100 100 100 100 100 100 100 100 100 100
100 100 100 100 100 98 71 27 5 100 100 100 100 36 33 100 30 5 24 40 5 5 5 100 76 5 95 35 62 100 100 100 100 100 100 100 100 100 100 100 100 100 100 100 100
100 100 100 100 100 100 65 3 100 100 100 100 100 33 98 95 6 5 5 5 5 44 98 88 5 99 100 79 85 100 100 100 100 100 100 100 100 100 100 100 100 100 100 100 100
98 100 100 100 100 100 100 4 64 100 100 100 65 72 100 46 5 0 3 3 5 70 100 62 74 100 100 91 100 100 100 100 100 100 100 100 100 100 100 100 100 100 100 100 100
91 100 100 100 100 100 100 100 100 100 100 100 69 100 4 0 2 3 0 0 5 94 99 58 91 100 100 100 100 100 100 100 100 100 100 90 100 100 100 100 100 100 100 100 100
100 100 100 95 47 71 18 96 100 100 100 97 52 99 69 2 0 0 0 2 28 100 100 91 100 100 100 100 100 100 100 100 100 100 100 100 100 100 100 100 100 100 100 100 100
37 98 30 23 12 6 90 87 81 100 100 100 100 96 3 0 2 0 0 30 100 100 100 99 100 76 100 100 100 99 100 100 100 100 100 100 100 100 100 99 100 100 100 100 100
5 5 38 72 52 100 85 67 100 100 35 58 93 34 85 5 8 4 5 100 100 100 100 100 100 100 70 75 32 100 100 100 100 100 100 100 100 100 100 100 100 86 98 99 100
73 53 77 63 100 96 5 5 78 37 13 26 64 100 100 39 94 44 98 100 100 100 90 98 50 91 33 75 18 45 59 100 100 100 100 100 100 100 100 100 89 100 100 100 100
94 42 6 19 100 53 5 5 22 32 89 100 96 99 87 100 97 100 100 96 100 100 100 96 78 100 100 15 3 5 17 5 5 8 50 34 100 100 100 100 100 100 100 84 61
100 5 5 4 94 93 33 12 4 80 99 100 82 100 85 80 13 2 99 100 100 7 2 93 100 25 0 6 43 5 5 5 7 26 5 5 8 5 14 40 28 93 11 3 0
100 53 12 77 48 5 3 81 100 89 100 99 100 100 97 100 40 95 76 94 96 100 100 99 6 4 5 5 5 0 0 3 5 5 5 5 5 0 4 4 2 2 0 0 2
38 40 37 38 3 8 76 100 96 100 100 99 100 100 100 100 100 100 100 100 17 5 1 5 8 2 8 28 5 5 0 0 0 0 0 0 0 0 0 0 0 0 0 5 5
5 17 2 29 85 84 75 55 31 100 100 100 100 100 100 21 100 100 57 92 5 3 0 0 0 0 0 0 0 4 4 0 0 0 0 0 0 0 0 0 0 1 4 41 20
5 74 62 59 37 5 24 78 29 94 53 100 100 100 94 5 9 5 2 0 0 0 0 0 2 3 0 0 5 5 0 0 0 0 0 0 0 0 0 0 5 5 16 33 23
100 70 79 5 56 71 95 100 100 100 100 100 77 5 4 3 0 0 0 0 5 5 4 0 0 0 0 0 0 0 0 0 0 0 0 0 0 0 0 0 0 5 52 89 100
95 68 93 80 100 100 100 19 56 81 38 9 3 0 0 0 3 1 0 5 3 0 0 0 0 0 0 0 0 0 0 0 0 0 0 0 0 0 0 0 2 10 94 97 8
68 100 100 100 100 100 41 5 5 1 1 4 0 1 4 32 5 4 0 0 0 0 0 0 0 0 0 0 0 0 0 2 0 0 0 0 0 0 0 0 5 5 5 5 48
67 100 100 100 52 17 3 5 2 1 2 4 5 46 31 5 3 5 0 0 0 0 0 0 0 0 0 0 0 0 0 0 0 0 0 0 0 0 0 3 5 5 8 66 96
100 95 100 100 6 13 5 4 0 3 4 18 48 8 5 5 4 0 0 0 0 0 0 0 0 0 0 0 0 0 0 0 0 0 0 0 0 0 0 3 5 13 99 21 0
100 88 100 11 70 9 52 5 0 7 59 61 24 50 19 3 0 0 0 0 0 1 5 0 0 0 0 0 0 0 0 0 0 2 2 3 0 0 0 2 3 1 0 1 5
77 100 88 6 16 45 18 5 75 56 48 50 56 17 5 5 0 0 0 5 4 3 0 1 0 0 0 0 0 0 0 0 0 0 1 4 1 0 0 0 0 5 5 5 5
100 100 5 54 60 68 12 91 73 80 68 50 23 23 5 4 2 0 0 0 1 0 0 0 0 0 0 3 5 5 1 0 0 0 0 1 0 0 0 0 0 0 4 5 5
100 70 5 5 45 54 68 66 68 79 52 34 38 5 4 5 0 0 0 0 4 5 0 0 0 3 5 5 5 5 5 5 3 0 0 0 0 0 0 0 0 1 4 5 5
100 13 14 81 95 100 99 100 76 84 67 40 16 5 2 0 0 0 0 0 5 5 5 5 5 5 5 4 1 0 0 0 0 0 0 0 2 0 0 0 0 0 0 5 5
94 7 14 100 29 24 89 90 79 95 86 68 18 5 5 0 0 0 0 0 5 5 5 5 5 3 0 0 0 0 0 0 3 5 5 5 5 2 0 0 0 1 5 5 71
66 30 89 90 33 99 83 79 64 100 65 39 6 5 5 8 5 2 0 4 4 5 5 5 5 5 7 5 5 9 5 5 6 5 5 5 5 5 5 5 3 5 5 15 98

GFSSW_prec_cloud_030.txt.gz
Cloud_Cover
100 100 100 100 100 100 100 100 5 19 58 100 100 100 100 100 52 22 0 5 18 82 100 100 94 58 38 7 67 48 100 96 68 100 100 100 100 100 100 100 100 100 100 100 100
100 100 100 100 100 100 100 100 95 93 99 100 100 100 100 100 83 0 0 5 5 47 92 82 59 24 5 43 21 48 88 99 100 100 100 100 100 100 100 100 100 100 100 100 100
100 100 100 100 100 100 100 100 100 100 100 100 100 100 100 97 32 0 0 29 72 45 43 62 45 77 8 45 80 97 100 100 100 100 100 100 100 100 100 100 100 100 100 100 100
10 74 95 100 100 100 100 100 84 100 100 100 100 100 100 85 0 0 0 5 6 77 69 49 96 94 7 89 92 100 100 100 100 100 100 100 100 100 100 100 100 100 100 100 100
2 17 79 100 100 100 100 100 59 100 100 100 100 100 14 2 0 0 0 5 22 14 5 85 87 90 79 86 97 100 100 100 100 100 100 100 100 100 100 100 100 100 100 100 100
1 85 88 100 100 100 100 84 48 100 100 100 100 99 24 4 0 0 2 5 5 5 98 100 94 90 100 100 100 100 100 100 100 100 100 100 100 100 100 100 100 100 100 100 100
1 10 37 95 100 96 37 5 48 100 100 100 100 73 62 67 3 0 4 5 7 54 100 100 100 100 100 100 100 100 100 100 100 100 100 100 100 100 100 100 100 100 100 100 100
2 23 10 13 26 5 68 100 100 100 100 42 100 100 82 35 0 5 44 5 77 98 100 100 100 100 100 100 99 89 100 100 100 100 100 100 100 100 100 100 100 100 55 100 100
0 0 0 5 5 5 73 100 100 100 70 92 100 100 42 5 5 70 43 26 100 100 99 100 100 100 100 100 85 60 79 95 100 100 100 100 100 100 100 100 100 93 86 84 59
0 0 0 5 5 1 18 100 98 74 76 70 100 99 14 16 95 5 91 100 100 99 88 89 95 100 100 100 100 95 75 75 83 100 100 100 100 100 100 100 100 100 100 100 100
0 0 0 26 5 0 83 87 4 0 3 5 100 33 72 62 93 100 100 100 100 99 100 100 100 100 100 100 98 5 5 5 5 30 86 68 55 100 98 100 100 100 7 23 97
0 0 28 45 2 1 3 1 0 4 67 78 9 100 100 98 89 61 5 88 14 78 100 86 75 100 99 20 5 5 3 5 65 68 68 45 69 57 99 100 75 88 48 5 12
0 0 98 17 2 36 1 29 89 100 100 74 97 100 100 35 11 0 1 11 95 100 94 99 100 27 5 6 2 5 5 6 12 12 5 7 5 22 71 57 17 3 1 0 0
0 30 43 5 0 5 5 63 100 100 74 98 100 100 100 100 100 100 100 100 98 83 100 56 60 5 57 6 0 1 0 0 0 2 3 2 4 5 0 0 0 0 0 1 0
57 76 4 4 4 4 24 69 100 32 88 99 100 100 100 100 100 100 100 98 60 0 5 3 1 0 2 0 0 0 0 0 0 0 5 2 0 0 0 0 0 0 2 0 5
100 52 4 0 0 16 61 60 100 51 63 95 100 100 100 96 72 100 100 66 47 0 0 0 0 0 0 0 0 0 0 0 0 0 0 0 0 0 0 0 0 0 0 5 5
100 29 2 79 5 70 100 50 93 88 100 100 100 100 8 5 4 23 63 2 0 0 0 5 2 0 0 0 0 0 0 1 0 0 0 0 0 0 0 0 0 0 0 5 5
98 5 2 40 6 56 99 100 99 76 83 100 5 83 5 0 0 0 0 0 0 0 0 2 0 0 0 0 0 0 0 0 0 4 0 0 0 0 0 0 0 0 0 0 5
61 2 92 26 72 100 100 100 100 98 19 17 5 2 0 0 0 4 4 0 0 0 0 0 0 0 0 0 0 0 0 0 0 0 0 0 0 0 0 0 0 0 2 5 5
43 95 78 100 99 100 100 5 27 2 2 0 0 4 5 5 0 0 0 0 0 0 0 0 0 0 0 0 0 0 0 0 0 0 0 0 0 0 0 0 0 0 4 13 46
4 9 99 100 100 100 12 5 1 0 0 4 7 11 4 3 0 0 0 0 0 0 0 0 0 0 0 0 0 0 0 0 0 1 1 3 0 0 0 0 0 1 3 0 0
5 60 93 100 37 6 24 5 0 0 5 62 5 5 4 3 0 0 0 0 0 0 0 0 0 0 0 0 0 0 0 0 0 0 5 4 1 0 0 0 0 0 0 0 0
7 95 100 100 9 5 6 5 5 13 54 5 5 5 5 21 4 0 0 0 0 0 0 0 0 0 0 0 0 0 2 0 1 0 0 1 0 0 0 0 0 0 0 0 5
82 98 100 15 5 21 17 30 35 87 73 5 5 7 17 5 5 3 3 0 0 0 0 0 0 0 0 0 2 6 32 11 5 0 0 0 0 0 0 2 3 5 5 0 0
58 69 100 5 5 5 59 31 86 59 45 5 38 55 7 5 5 2 0 0 0 0 0 0 0 3 4 15 21 42 23 2 4 2 4 3 4 5 5 5 5 5 4 0 2
80 100 96 6 6 22 65 100 89 63 50 49 38 13 5 5 4 0 0 0 1 3 6 38 18 5 14 8 7 8 4 5 5 5 5 5 5 5 5 5 5 5 5 5 26
100 100 92 5 5 7 92 85 78 58 44 46 13 25 15 32 5 4 3 3 6 25 10 7 6 5 7 4 13 81 5 5 44 79 5 5 5 7 33 13 60 100 82 35 29

GFSSW_prec_cloud_036.txt.gz
Cloud_Cover
100 100 99 100 100 100 100 100 100 42 92 100 100 100 100 100 48 100 75 85 36 24 5 5 12 4 5 80 100 94 26 56 100 69 100 89 97 98 93 100 100 87 100 100 100
8 100 59 100 100 100 100 100 100 29 100 100 100 100 100 100 5 3 36 41 78 37 11 20 76 5 66 100 100 100 100 77 81 98 100 100 100 100 100 100 100 100 100 100 100
9 6 11 100 100 90 100 66 91 44 100 100 100 100 62 69 5 5 3 86 96 100 51 8 65 51 100 100 100 100 72 60 98 99 100 100 100 98 49 98 100 100 91 100 100
0 0 13 8 100 100 97 100 63 18 100 100 100 99 100 0 8 7 5 5 76 86 98 8 57 100 100 100 98 47 91 100 100 100 100 100 100 100 99 100 100 100 77 86 100
1 0 6 48 90 100 100 65 91 26 100 100 100 90 5 0 0 2 1 5 7 46 18 54 68 100 100 100 100 100 100 100 100 100 100 100 98 100 100 100 100 100 100 100 100
5 4 5 100 85 100 100 77 98 87 100 100 100 98 94 52 4 0 0 0 0 5 11 42 65 100 97 100 100 100 100 100 100 100 100 100 100 100 100 100 100 100 100 100 100
10 5 61 44 6 96 100 100 95 100 100 100 100 100 100 93 14 2 0 0 0 0 5 50 99 100 83 100 100 100 100 100 100 100 100 100 100 100 100 100 100 100 100 100 100
33 25 1 0 4 12 8 21 42 100 100 100 100 98 100 100 28 5 0 5 0 1 6 51 100 100 99 100 100 100 100 100 100 100 94 100 100 100 100 100 100 100 100 99 62
100 100 100 81 0 0 4 8 80 94 94 100 57 70 53 100 5 2 0 20 33 85 71 100 100 100 100 100 100 100 100 100 100 100 100 100 100 100 100 100 100 100 100 100 100
100 100 100 100 25 0 0 0 6 49 42 80 5 5 32 81 43 5 5 66 83 93 100 100 100 100 100 100 100 100 100 100 100 100 100 100 100 100 100 100 100 100 100 82 64
100 100 100 100 95 4 45 0 0 0 0 0 34 66 5 30 100 5 100 100 100 94 100 100 100 100 100 100 100 100 100 100 100 100 100 100 100 100 100 100 100 100 100 100 92
99 100 100 100 100 52 2 0 0 0 0 1 0 4 7 51 85 53 100 100 100 100 100 100 100 100 100 100 100 100 100 100 100 95 100 100 100 99 77 46 41 42 62 69 93
100 100 100 100 100 82 0 0 0 0 0 0 0 0 5 100 5 100 100 100 100 100 100 100 100 100 100 100 100 100 100 100 100 97 48 46 60 59 57 50 29 53 79 74 97
100 100 99 100 100 2 0 0 0 0 0 0 4 24 84 10 67 96 100 100 100 100 100 86 100 100 100 98 100 100 98 78 40 15 45 5 51 5 5 5 10 47 62 32 10
100 100 100 100 15 0 0 0 0 5 0 3 7 96 6 80 64 19 60 40 100 100 99 100 100 100 100 100 97 74 17 47 5 5 5 5 3 5 5 1 0 1 5 4 0
100 100 100 91 0 2 0 0 0 0 3 3 0 1 3 5 4 2 5 6 75 97 99 100 66 28 17 9 10 20 5 5 5 2 0 3 0 1 4 0 0 0 0 0 0
100 100 97 5 0 6 0 0 0 0 0 2 7 69 100 78 2 100 100 100 100 100 44 20 5 14 78 95 52 5 2 2 0 0 0 1 5 0 0 0 0 0 0 0 0
74 100 96 1 0 0 0 0 0 0 5 12 30 5 10 60 26 85 100 100 100 99 76 22 14 8 5 3 0 0 0 3 4 5 5 1 0 0 0 0 0 0 0 0 0
100 100 98 0 0 1 1 5 11 14 8 22 5 6 23 28 62 96 100 100 94 9 1 0 0 0 0 0 1 5 5 4 3 0 0 0 0 0 0 0 0 0 0 0 0
91 62 96 4 6 4 5 2 30 100 65 98 61 86 32 26 94 84 100 100 4 0 0 0 0 2 5 5 2 0 0 0 0 0 0 0 0 0 0 0 0 0 0 0 0
5 5 8 1 50 65 84 47 62 100 87 100 64 100 16 5 5 6 26 2 0 0 0 0 0 0 0 0 0 0 0 0 0 0 0 0 0 0 0 0 0 0 4 5 5
0 3 94 43 62 64 78 100 98 100 100 90 93 6 31 3 0 0 0 2 5 0 2 0 0 0 0 0 0 0 0 0 0 0 0 0 0 0 0 0 0 5 5 5 5
0 23 100 53 26 100 20 100 100 100 100 100 38 5 5 0 2 5 5 3 0 0 0 0 0 0 0 0 0 1 0 0 2 5 5 28 5 0 0 0 4 5 5 5 5
0 0 87 23 92 100 68 100 100 100 100 72 22 5 0 7 22 5 1 0 0 0 0 0 0 0 2 5 5 5 5 5 5 26 26 5 5 2 6 5 5 5 5 5 5
0 2 1 41 98 87 99 100 100 100 96 31 15 0 5 56 4 4 3 2 0 0 0 0 5 5 5 30 8 5 20 13 5 75 22 1 5 2 84 86 78 13 5 5 5
0 4 12 67 99 100 48 100 100 100 64 33 5 5 48 8 5 5 5 5 0 0 5 5 7 5 45 27 5 39 65 5 5 5 5 5 24 0 3 6 5 5 5 81 30
0 3 8 13 50 100 100 100 100 79 43 5 5 28 22 5 5 5 5 5 0 12 42 35 21 54 58 5 52 100 5 5 5 2 5 5 5 5 7 5 5 17 100 99 9

GFSSW_prec_cloud_039.txt.gz
Cloud_Cover
0 93 100 4 0 6 2 51 1 100 100 28 100 99 64 62 3 0 5 97 74 4 100 99 80 62 5 5 5 5 99 100 71 100 54 55 15 93 46 73 100 100 91 100 100
0 0 7 0 0 2 74 100 85 50 88 35 97 100 88 18 3 5 22 50 44 100 97 23 25 53 29 5 5 93 91 100 69 84 100 100 100 83 10 5 97 100 100 100 100
0 2 6 14 1 12 4 5 80 72 1 70 9 7 87 0 0 0 54 7 5 93 48 24 69 75 32 3 46 100 100 99 96 71 100 100 100 11 84 96 95 100 99 100 100
0 5 46 5 18 4 4 32 100 74 0 81 100 81 24 0 0 0 0 10 5 92 78 75 35 22 82 43 100 99 100 100 100 100 64 100 97 98 100 100 73 100 100 98 12
1 1 66 5 2 7 84 30 100 65 5 80 77 8 2 2 59 96 3 0 0 2 100 78 5 22 100 100 100 100 100 100 100 100 100 95 100 30 100 100 48 85 96 86 84
20 5 90 5 4 5 99 63 100 100 89 67 66 40 0 7 99 63 2 0 0 5 5 42 39 38 100 100 100 100 100 100 100 100 94 86 71 100 100 100 100 100 100 100 100
5 5 5 9 5 5 18 100 100 100 49 18 3 6 2 3 5 5 4 0 5 5 5 6 15 90 100 100 100 100 100 100 100 100 100 100 100 100 99 100 100 100 100 100 100
5 48 5 5 5 20 63 100 91 83 29 5 6 0 0 0 3 5 0 5 0 0 5 6 42 97 100 100 100 100 100 100 100 100 100 100 100 100 99 100 100 100 100 100 100
5 5 5 5 42 90 100 23 6 42 10 9 7 5 0 0 12 8 0 0 0 0 5 51 100 100 100 100 100 100 100 100 100 100 95 100 100 100 100 100 100 100 100 100 100
53 5 5 5 95 86 92 72 83 40 13 0 0 4 0 0 14 12 0 0 46 5 96 100 100 100 100 100 100 100 100 100 100 99 100 100 100 100 100 99 100 100 100 100 100
100 5 5 5 99 87 72 94 71 55 3 0 0 0 5 0 5 100 2 16 100 74 97 100 100 100 100 100 100 100 100 100 100 100 100 100 100 100 100 100 100 100 100 100 100
8 6 12 94 100 100 77 5 76 10 4 0 0 0 0 0 6 100 1 100 100 73 100 100 100 100 100 100 100 100 100 100 100 100 100 100 100 100 100 100 100 100 100 100 100
34 74 100 15 99 100 98 97 100 98 56 0 0 0 0 0 5 78 3 100 100 91 100 100 100 100 100 100 100 100 100 100 100 100 100 100 100 100 100 100 100 100 94 99 78
100 100 32 41 81 100 100 100 100 100 44 0 0 0 0 4 62 5 38 95 100 100 100 100 100 100 100 100 100 100 100 100 100 100 100 100 100 97 32 92 99 100 100 86 36
100 100 100 99 100 100 100 100 100 99 8 0 0 0 5 99 29 4 18 99 100 100 100 100 100 100 100 100 100 100 100 100 100 100 100 87 11 100 93 99 99 47 54 21 4
100 100 100 100 100 96 100 100 100 40 82 0 0 4 28 5 3 5 5 97 100 95 98 100 100 100 100 100 100 100 100 100 87 85 98 70 100 100 100 89 24 4 4 5 1
100 100 100 100 100 100 100 100 100 98 26 2 0 0 0 4 1 0 3 41 43 94 100 100 100 100 100 100 100 81 84 100 100 100 8 33 2 5 16 5 5 1 0 0 0
100 100 100 100 100 100 100 100 37 100 54 0 0 39 47 5 0 0 5 6 66 100 100 100 100 90 10 36 100 93 88 100 100 63 33 11 0 4 5 2 0 0 0 0 0
100 100 100 100 100 100 100 22 100 94 5 0 2 27 100 5 5 73 100 99 98 97 100 100 100 86 100 100 57 23 5 0 0 0 5 7 20 0 0 0 0 0 0 0 0
100 100 100 98 100 100 99 99 74 27 4 3 13 6 52 4 2 5 8 10 43 67 100 100 100 66 21 15 0 0 2 2 5 5 2 63 1 73 0 0 0 0 0 0 0
100 100 100 100 100 97 100 100 98 4 5 91 54 5 81 6 26 14 40 100 62 62 10 44 11 40 0 0 1 8 5 6 4 1 0 0 4 0 0 0 0 0 3 5 5
100 100 100 100 100 100 100 100 97 6 61 98 24 80 100 79 35 19 90 100 5 0 0 2 5 6 5 5 5 1 3 5 0 0 0 0 0 0 0 0 0 0 0 5 5
100 100 100 100 100 100 90 71 52 5 98 59 99 100 91 91 7 5 5 5 2 0 3 5 5 5 5 1 0 0 0 0 0 0 0 19 0 0 4 5 2 0 0 4 5
100 100 100 100 100 84 28 66 5 5 100 59 100 100 93 6 6 4 2 0 0 5 4 2 0 0 4 13 30 5 0 2 2 0 1 2 0 5 5 5 2 3 2 5 2
99 55 26 0 3 20 100 82 10 55 100 100 100 100 54 70 3 3 5 5 5 6 2 0 0 0 0 2 3 1 2 5 5 1 38 0 5 0 5 46 24 24 5 1 4
89 98 26 0 1 71 100 62 88 100 100 100 100 100 99 47 3 6 5 5 5 5 5 0 0 0 0 0 0 3 5 5 1 3 41 4 13 0 5 5 5 5 5 5 2
89 100 33 8 0 72 94 23 100 100 100 100 100 100 57 40 10 12 28 19 6 5 4 3 1 2 4 3 5 5 5 4 4 5 4 5 13 5 5 4 1 0 2 5 5

GFSSW_prec_cloud_042.txt.gz
Cloud_Cover
5 5 0 0 0 0 0 0 0 0 0 6 0 40 75 11 0 0 0 0 0 50 96 3 0 25 100 100 100 77 5 86 100 100 17 82 100 100 100 95 66 98 96 12 6
5 5 5 1 0 0 0 0 0 0 0 0 0 4 4 1 0 0 0 0 0 9 98 2 99 100 100 46 86 86 48 100 64 85 72 100 100 100 100 97 5 4 35 65 90
5 5 5 0 1 5 4 5 0 23 74 4 5 5 94 10 0 0 0 1 0 0 11 100 25 68 95 31 41 99 94 100 76 34 100 100 100 100 100 93 10 100 99 100 100
5 5 5 1 5 0 0 14 7 93 27 5 5 5 5 5 1 0 3 2 5 0 0 97 10 15 73 36 75 86 78 97 100 92 100 100 100 100 99 79 99 100 100 84 41
6 77 2 26 6 5 5 62 100 100 85 5 5 5 99 10 0 0 0 0 2 0 0 97 87 52 100 99 81 74 100 88 100 98 100 100 100 100 96 52 100 100 100 99 100
14 5 5 30 17 7 19 64 98 100 100 6 5 5 5 0 0 0 5 2 0 0 0 40 70 72 71 100 99 100 85 100 100 100 74 100 100 100 100 70 98 100 100 100 100
5 44 98 100 51 6 33 5 96 100 43 5 5 4 2 2 0 0 5 3 0 5 5 35 100 28 5 100 94 100 100 100 100 100 100 100 100 59 53 95 99 100 100 100 100
5 100 100 88 5 12 29 5 5 91 7 5 5 4 7 4 0 0 2 0 0 0 0 0 100 13 94 100 100 100 100 100 100 100 100 100 99 100 52 64 100 95 100 100 100
98 87 100 81 94 65 37 5 5 5 5 6 5 18 100 2 0 0 5 0 1 0 0 5 5 44 100 100 100 100 100 100 100 100 100 100 75 77 100 99 99 100 100 100 100
100 100 100 100 98 72 62 5 5 33 16 5 7 6 13 0 0 0 17 0 0 0 2 5 27 100 100 100 100 100 100 100 100 100 87 100 88 100 100 100 100 100 100 100 98
80 100 100 100 100 98 46 5 4 4 5 5 7 6 5 0 0 0 84 2 29 2 4 40 100 100 100 100 99 100 100 100 100 87 93 100 100 100 85 100 100 100 90 100 100
76 100 100 100 100 99 32 68 5 5 6 10 48 5 10 0 0 0 56 0 6 16 100 90 100 100 100 100 100 100 100 100 100 100 100 100 100 100 100 100 100 100 100 100 100
100 100 100 100 100 69 96 27 5 5 5 55 52 6 3 0 0 0 5 1 91 100 100 82 97 100 100 100 100 100 85 100 78 98 100 100 100 100 100 100 100 100 100 100 100
100 100 100 100 98 100 83 12 5 5 5 99 18 4 2 0 2 2 81 3 85 99 100 96 100 100 100 100 100 100 62 90 100 38 100 100 100 100 100 100 100 100 100 100 100
100 82 100 100 100 100 27 5 5 6 92 22 5 1 0 0 5 19 24 2 91 100 34 100 100 98 100 100 92 100 100 32 100 100 100 100 86 100 99 99 100 60 5 5 6
100 100 100 100 100 48 37 8 56 64 92 8 5 4 0 0 5 81 0 0 93 97 70 100 100 100 100 98 100 100 100 100 100 100 100 100 100 100 97 98 98 100 30 5 5
100 100 100 100 100 92 100 94 99 100 24 25 5 0 0 4 0 3 23 3 100 95 100 100 100 98 68 100 100 100 100 100 100 100 100 100 100 95 84 34 29 16 5 3 5
100 100 100 100 100 100 100 100 66 100 7 28 5 5 32 11 5 5 4 2 50 34 99 63 100 96 100 100 100 100 100 100 100 100 85 62 48 91 5 4 3 5 8 5 0
100 100 100 100 100 100 100 100 98 72 66 96 25 13 69 36 38 3 0 5 18 8 100 100 90 100 97 77 100 100 87 92 52 54 5 5 5 0 5 24 38 45 4 0 0
100 100 100 100 100 100 100 89 100 100 80 96 32 5 96 26 36 5 2 6 41 77 99 89 99 100 100 100 100 100 100 58 20 4 3 13 41 100 80 4 0 0 0 0 0
100 100 100 100 100 100 100 100 96 100 85 97 70 14 66 74 8 88 2 32 99 100 85 98 100 100 100 100 100 100 58 3 0 41 56 3 88 10 0 0 0 0 0 0 0
100 100 100 100 100 100 100 100 100 39 77 100 98 82 10 100 45 92 2 5 5 6 100 99 100 100 82 93 94 47 34 55 7 2 4 0 0 2 0 0 0 0 0 0 0
100 100 100 100 99 88 100 100 100 100 100 100 24 5 20 28 100 94 99 51 95 43 39 100 85 25 6 24 1 1 17 5 4 63 0 19 0 0 0 0 0 0 0 0 0
100 100 100 92 100 58 80 100 100 100 100 96 46 2 44 72 100 100 100 69 39 100 100 2 4 0 0 0 95 70 9 4 5 4 0 0 0 5 0 0 0 3 1 0 0
100 26 77 100 70 100 100 100 100 100 100 67 5 2 5 100 100 100 90 6 53 65 80 0 1 3 5 5 89 0 53 68 6 18 3 0 0 1 0 12 6 5 5 21 4
100 50 27 99 100 92 57 100 100 100 100 6 41 5 7 100 100 84 17 6 5 5 0 5 5 5 4 0 0 1 0 0 5 0 0 0 4 0 0 5 5 72 6 1 5
83 10 93 5 16 3 4 100 88 100 10 36 5 41 54 97 100 83 93 79 15 6 5 5 5 0 0 0 0 3 0 0 0 0 0 0 4 1 0 6 91 3 0 5 5

GFSSW_prec_cloud_048.txt.gz
Cloud_Cover
100 100 100 100 100 69 24 5 5 5 18 8 26 39 27 0 0 0 0 0 0 0 0 0 0 0 5 5 44 100 100 100 100 82 94 10 16 97 100 100 100 95 67 44 100
69 99 100 100 100 100 10 10 4 3 16 21 30 33 9 0 26 0 0 0 0 0 0 0 0 0 30 6 80 100 100 100 71 45 20 8 4 18 100 100 89 100 100 100 100
100 100 100 100 100 100 76 80 5 5 5 5 6 69 11 8 1 0 0 0 0 0 0 0 0 2 92 67 27 100 100 100 100 96 55 1 1 0 100 100 97 100 100 100 100
100 100 100 100 100 100 100 41 5 5 28 5 17 54 4 2 0 0 0 0 0 0 0 0 0 0 53 85 6 100 100 100 100 23 5 2 65 87 100 100 57 79 100 100 100
100 100 100 100 100 100 100 5 5 8 6 5 42 10 5 1 0 0 0 0 0 0 0 0 1 5 16 91 86 100 100 100 100 44 3 66 66 100 100 99 15 9 87 100 100
100 100 100 100 100 100 100 90 12 9 5 5 60 5 7 4 0 0 0 0 0 0 0 2 2 5 97 100 100 100 100 99 66 89 96 100 100 100 100 92 86 52 85 100 100
100 100 100 100 100 100 100 8 44 18 14 5 6 5 5 0 0 0 0 0 0 0 0 100 14 26 100 87 59 100 100 100 100 100 100 68 100 100 100 100 100 100 100 100 100
100 100 100 100 100 100 100 99 90 34 5 5 5 5 14 0 0 0 0 0 0 0 0 4 5 72 15 18 100 91 100 100 99 100 100 100 98 100 100 100 95 100 100 100 100
100 100 100 100 100 100 100 100 79 62 50 5 5 5 5 0 0 0 0 0 0 0 0 0 0 36 5 72 93 100 100 100 100 100 97 85 96 100 100 100 100 84 85 87 100
100 100 100 100 100 100 100 100 62 98 53 24 5 6 2 0 0 0 0 0 0 0 0 0 0 4 11 79 100 100 100 100 100 100 95 100 100 100 100 100 100 100 94 100 100
100 100 100 100 100 100 100 100 79 89 35 87 5 5 1 0 0 0 0 0 0 0 0 5 2 9 96 83 100 100 100 100 86 86 100 42 100 97 100 100 100 100 100 100 100
100 100 100 100 100 100 100 100 100 97 100 5 5 2 0 0 0 0 0 0 0 0 5 6 19 100 100 100 96 100 92 95 100 100 99 79 100 100 100 100 100 100 100 100 44
100 100 100 100 100 100 100 99 47 96 92 6 5 5 0 0 0 0 0 0 0 5 1 37 100 99 100 95 85 100 65 66 100 100 100 34 87 100 99 85 68 87 100 96 100
100 100 100 100 100 100 100 75 75 8 93 49 39 5 3 0 0 0 0 0 0 96 38 66 97 87 76 99 65 100 100 100 53 96 100 96 99 100 63 100 100 100 100 100 54
100 100 100 100 100 99 74 62 36 100 50 36 13 5 6 0 0 0 0 0 0 5 23 5 76 95 55 100 100 97 99 100 100 100 100 100 94 100 100 100 84 99 100 98 100
52 100 100 100 100 45 87 100 89 100 41 39 33 5 5 0 0 0 0 0 0 0 12 0 5 42 58 88 55 20 95 89 100 100 100 99 17 78 72 93 100 82 58 93 100
80 100 100 100 100 87 93 100 86 76 88 8 5 0 1 0 0 0 0 0 0 0 10 72 6 31 12 99 65 75 12 23 59 71 62 11 90 95 31 53 100 46 86 74 100
98 100 100 100 47 100 100 100 92 96 95 59 9 0 5 4 0 5 0 0 0 0 9 80 8 31 37 59 53 42 67 8 77 16 53 5 10 32 83 62 16 33 19 22 5
100 100 100 100 100 97 95 97 100 100 100 4 0 8 5 2 0 5 2 0 0 0 0 5 4 41 96 100 100 100 99 71 75 20 6 13 10 8 80 40 5 5 5 4 5
73 100 100 100 100 98 91 47 13 100 16 5 17 19 5 2 5 5 5 0 0 0 0 5 5 96 100 88 94 82 50 59 74 67 51 67 80 82 8 5 3 49 2 0 0
74 81 99 66 100 90 80 8 91 100 54 1 5 5 8 4 5 5 15 6 3 0 4 5 17 37 100 94 58 80 62 89 99 25 80 4 30 96 6 5 13 2 4 5 5
68 92 88 32 100 97 97 75 100 100 100 100 98 44 54 5 5 18 99 70 4 0 0 12 12 60 90 95 55 100 65 7 10 79 91 60 6 12 0 5 5 5 5 4 0
100 87 60 32 99 22 90 100 100 100 100 100 97 27 21 9 61 100 100 32 2 47 0 61 46 37 75 45 94 100 96 76 11 97 100 30 1 2 0 0 1 5 0 0 0
100 61 100 100 24 81 56 100 91 100 38 16 86 11 81 100 100 100 95 10 5 42 30 40 62 9 100 87 97 10 53 99 52 42 5 3 2 0 2 0 0 0 2 2 0
68 28 32 96 100 99 77 100 100 95 15 81 50 76 100 100 100 100 100 100 21 7 84 88 100 5 23 5 21 74 100 100 69 2 52 2 12 2 0 0 0 3 5 2 0
60 26 5 5 61 100 96 98 100 100 100 100 100 100 100 100 100 100 100 100 11 2 57 22 100 73 96 80 100 88 100 44 0 1 5 45 5 5 0 0 5 5 3 0 0
42 43 22 5 70 97 87 98 100 100 100 100 100 100 100 100 100 100 94 100 54 41 5 5 33 32 100 100 88 77 23 0 0 5 0 11 6 5 4 0 0 3 5 5 5

GFSSW_prec_cloud_051.txt.gz
Cloud_Cover
100 100 100 100 100 100 54 88 100 100 100 99 47 97 100 60 14 0 0 0 0 0 0 0 0 0 0 0 25 61 42 80 100 99 95 100 100 50 100 100 100 100 100 100 100
100 100 100 100 100 100 97 100 100 100 100 99 72 53 100 11 23 0 0 0 0 0 0 0 0 0 0 0 83 99 74 100 100 99 100 100 100 100 100 100 100 100 100 100 100
100 100 100 100 100 100 100 100 100 100 100 97 67 94 17 14 5 0 0 0 0 0 0 0 0 0 0 0 79 70 42 74 100 92 100 100 100 60 100 100 100 100 100 100 100
100 100 100 100 100 87 95 100 100 100 100 100 8 81 5 5 5 0 0 0 0 0 0 0 0 0 0 1 82 97 45 44 6 84 100 96 100 100 100 100 100 100 100 100 100
100 100 100 100 100 100 96 100 100 100 100 99 18 10 5 5 5 1 0 0 0 0 0 0 0 0 0 28 88 100 72 100 100 100 100 100 100 100 68 100 100 100 99 100 100
100 100 100 100 100 100 95 84 100 100 100 98 21 20 5 71 5 0 0 0 0 0 0 0 6 28 85 6 35 22 12 100 96 98 100 100 68 96 35 100 100 100 100 100 100
100 100 100 100 100 100 100 100 100 100 100 100 14 41 6 71 4 0 0 0 0 0 0 0 6 10 90 98 100 16 99 100 100 100 100 16 14 86 98 100 100 100 100 100 100
100 100 100 100 100 100 100 100 100 100 100 100 100 84 5 38 5 0 0 0 0 0 0 0 0 4 1 82 100 100 84 99 100 100 100 100 68 82 100 100 100 100 85 100 100
100 100 100 100 100 100 100 94 100 100 100 100 100 100 6 5 5 0 0 0 0 0 0 0 0 0 4 35 85 96 86 92 53 100 100 100 100 100 100 100 96 100 100 100 100
100 100 100 100 100 100 100 67 100 100 100 100 100 79 5 5 0 0 0 0 0 0 0 0 0 0 1 40 8 95 100 100 100 100 100 100 100 100 100 100 100 100 100 100 100
100 100 100 100 100 100 100 100 100 100 100 100 100 86 5 5 2 0 0 0 0 0 0 2 0 3 4 29 53 86 100 100 100 100 95 98 94 100 100 100 100 100 100 100 100
100 100 100 100 100 100 100 67 100 100 100 100 100 98 5 2 5 0 0 0 0 0 0 0 2 4 22 59 40 88 100 96 97 100 96 100 100 100 100 100 100 100 100 98 98
100 100 100 100 100 100 100 100 100 83 99 100 100 11 5 5 4 0 0 0 0 0 1 4 82 26 93 92 58 90 94 100 100 100 100 100 100 100 100 100 100 100 100 100 81
100 100 100 100 100 100 100 100 100 100 100 100 100 5 5 5 2 0 0 0 0 0 0 1 5 7 5 48 97 98 10 48 94 100 100 100 100 100 97 97 85 100 100 100 100
100 100 100 100 100 100 100 100 100 100 100 100 80 22 5 1 0 0 0 0 0 0 0 0 5 5 5 42 100 99 47 11 80 100 100 95 93 100 100 100 100 98 100 98 74
100 100 100 100 100 38 100 100 99 100 100 100 8 7 5 0 0 0 0 0 0 0 0 0 4 1 21 71 100 48 61 73 100 98 68 100 93 99 100 100 87 94 100 97 95
100 100 100 100 100 40 100 100 86 98 86 6 44 9 2 1 0 2 0 0 0 0 0 0 5 1 5 21 100 100 82 67 100 99 5 79 9 10 30 56 75 98 96 24 5
100 100 100 100 95 74 100 100 96 99 99 88 16 5 5 6 5 4 0 0 0 0 0 2 1 3 5 14 53 97 94 96 46 6 6 30 93 68 28 5 5 38 56 100 44
100 100 100 100 100 49 100 96 100 100 100 100 100 11 40 5 5 2 0 0 0 0 0 0 5 3 5 91 45 16 69 80 11 7 24 36 59 5 5 5 5 21 76 77 39
100 100 100 100 100 100 95 100 100 100 100 100 100 17 21 2 0 1 5 2 0 1 0 0 2 22 5 54 22 5 6 28 33 18 16 58 31 10 6 38 5 5 5 68 65
100 88 100 100 100 100 68 100 100 100 100 100 73 24 5 5 4 4 5 4 5 2 0 0 0 4 22 15 55 66 32 63 49 24 5 45 98 40 5 5 5 2 5 4 5
100 100 100 100 100 100 100 100 100 100 74 100 94 33 22 5 5 5 5 7 31 5 0 0 0 0 4 48 5 75 83 86 86 79 43 5 5 21 5 66 76 41 4 4 0
85 57 100 79 89 100 100 100 100 100 85 22 27 9 95 6 10 96 70 100 76 5 0 0 1 0 5 3 3 6 99 100 100 38 4 4 60 3 6 30 7 16 81 5 3
84 70 100 100 26 85 100 100 100 100 100 92 100 88 19 98 100 100 100 100 64 5 4 5 0 0 4 3 53 9 9 9 45 6 5 4 4 2 5 53 65 5 4 0 0
99 36 37 100 93 91 100 100 100 100 51 5 92 81 100 100 100 100 100 99 49 5 73 5 3 0 5 5 4 0 100 67 11 5 6 57 8 0 4 6 44 3 0 0 4
78 3 37 5 21 100 98 100 100 100 100 100 100 100 100 100 100 100 100 59 97 88 17 4 5 4 5 5 5 0 5 10 64 5 36 48 2 0 0 0 0 0 0 0 5
95 24 31 5 63 91 47 52 100 100 100 100 100 100 98 100 100 100 100 100 88 14 91 24 44 21 97 81 26 6 100 100 100 100 92 1 4 0 0 4 3 2 0 1 5

GFSSW_prec_cloud_054.txt.gz
Cloud_Cover
100 100 100 100 100 100 100 100 96 95 96 100 100 100 100 100 74 5 7 2 0 0 0 0 0 0 0 0 0 0 52 100 87 99 100 100 100 100 99 100 100 100 100 100 100
100 100 100 100 100 100 100 100 99 100 100 100 100 100 100 100 55 5 15 2 0 0 0 0 0 0 0 0 0 4 84 97 41 100 100 100 99 100 100 100 100 100 100 100 100
100 100 100 100 100 100 100 100 100 100 100 100 100 100 100 99 5 23 27 0 0 0 0 0 0 0 0 0 0 7 74 96 96 100 100 100 100 100 100 100 100 100 100 100 100
100 100 100 100 100 100 100 100 100 97 100 100 100 94 100 100 5 95 6 5 0 0 0 0 0 0 0 0 0 12 74 100 100 100 100 100 100 100 100 100 100 100 100 100 100
100 100 100 100 100 100 100 100 100 100 100 100 100 100 100 100 5 95 6 4 0 0 0 0 0 0 0 0 0 11 95 99 100 100 100 100 100 98 100 100 100 100 100 100 100
100 100 100 100 73 100 100 100 100 84 100 100 100 100 100 100 46 100 92 5 2 0 0 0 0 2 16 45 1 18 68 100 100 100 97 100 100 100 72 100 100 100 100 100 100
100 100 100 100 100 100 100 100 100 100 100 100 100 100 100 100 100 100 43 5 2 0 0 0 0 0 0 11 97 91 18 60 100 100 100 100 100 34 27 100 100 100 100 100 100
96 100 100 100 100 100 100 100 100 100 100 100 100 100 100 96 5 14 5 5 0 0 0 0 0 0 0 0 5 96 86 100 100 68 88 68 36 10 100 100 100 100 100 100 100
100 100 100 100 100 100 100 96 94 100 100 100 100 100 100 94 12 79 5 5 0 0 0 0 0 0 0 0 3 100 98 100 100 42 84 6 14 100 85 100 100 100 100 100 100
62 100 100 100 100 100 97 98 100 100 100 100 100 100 100 100 90 100 19 5 0 0 0 0 0 0 0 4 4 62 100 100 100 100 94 99 100 100 100 100 100 100 92 100 100
36 100 100 100 100 100 100 100 100 100 100 100 99 100 100 100 90 100 40 5 0 0 0 0 0 0 0 4 5 6 100 93 84 100 43 100 99 100 100 100 100 100 81 76 100
81 100 100 100 100 100 100 100 100 100 100 99 87 100 88 91 100 100 31 2 0 0 0 0 0 0 0 1 9 6 76 50 100 80 75 100 100 100 100 100 100 100 100 63 77
93 16 100 100 100 100 100 100 100 96 50 84 76 74 62 100 100 100 16 2 0 0 0 0 0 1 65 49 80 99 86 40 57 94 100 100 99 100 100 100 100 100 100 85 32
100 100 99 100 100 100 100 100 100 100 36 100 89 100 100 100 100 82 12 5 0 0 0 0 0 0 5 12 76 90 36 72 56 82 86 92 100 82 100 100 100 92 86 98 100
100 100 100 100 100 100 100 100 100 100 60 94 46 100 100 100 57 72 57 5 0 0 0 0 0 0 0 1 4 31 74 97 50 76 100 92 22 33 63 37 99 100 100 100 100
100 100 100 100 100 88 85 100 100 100 69 52 71 100 100 100 42 45 74 5 5 2 0 0 0 0 2 0 52 71 47 99 100 99 100 67 78 8 34 62 100 100 99 100 99
100 84 100 100 100 70 100 92 100 100 100 100 100 100 100 98 40 40 16 5 0 0 0 0 0 0 0 0 22 5 7 100 76 100 100 100 100 100 27 83 58 100 100 100 100
100 56 95 100 100 98 100 100 100 100 100 100 100 100 81 12 5 6 5 5 2 0 0 0 0 0 0 0 0 6 5 5 43 42 93 99 100 100 29 73 9 14 95 100 100
100 55 22 100 100 100 100 100 100 100 100 100 100 100 100 100 27 64 27 5 2 0 0 0 0 0 3 4 1 0 5 41 5 40 87 100 100 100 100 100 72 88 36 67 98
100 95 28 100 100 100 100 50 100 100 100 100 96 98 62 100 99 100 33 4 2 0 0 0 0 0 39 5 5 5 5 5 42 41 90 100 100 100 95 100 100 100 100 48 36
100 98 26 100 100 100 100 78 100 100 100 67 30 58 5 12 99 100 12 1 0 0 0 0 0 0 1 1 54 5 5 5 69 41 100 99 99 100 80 82 100 100 100 60 12
100 93 98 6 100 100 100 93 100 100 100 98 70 54 100 69 29 100 83 5 2 5 5 0 0 0 0 1 5 5 4 6 32 30 100 98 45 38 81 67 49 52 37 6 17
100 97 98 5 96 95 100 100 100 100 100 100 100 100 100 100 98 97 99 5 28 16 5 0 0 0 0 0 0 5 1 5 30 100 99 32 68 54 73 92 100 100 38 14 5
100 100 100 89 2 38 100 100 100 100 100 100 100 100 100 100 100 100 100 12 100 20 5 5 5 0 0 1 4 0 0 4 86 84 26 27 33 5 5 5 34 54 5 5 0
100 94 22 100 91 31 100 100 100 100 100 100 100 100 100 100 100 100 100 100 100 49 5 5 5 5 0 2 0 0 0 0 1 35 84 44 51 98 83 5 5 5 5 0 0
100 87 69 5 7 88 94 100 100 100 100 100 100 100 100 100 100 100 100 100 60 28 100 5 5 5 5 3 0 5 0 0 0 4 5 5 92 100 77 5 5 8 6 3 0
100 48 42 8 98 29 49 100 100 100 100 100 100 100 100 100 100 100 100 44 100 100 93 33 63 55 5 1 4 7 97 9 1 0 5 17 98 57 72 0 0 0 4 4 5

GFSSW_prec_cloud_057.txt.gz
Cloud_Cover
5 74 100 88 100 100 98 96 100 100 100 100 98 35 20 61 68 69 53 68 5 5 3 0 0 0 0 0 0 0 0 94 95 84 76 100 100 100 100 100 100 100 100 100 100
42 6 98 54 76 92 96 100 92 100 100 100 100 39 39 24 75 100 80 45 5 5 4 0 0 0 0 0 0 0 2 23 94 39 96 99 100 100 100 84 100 100 100 100 100
100 91 98 100 100 100 100 100 94 100 100 100 100 58 5 17 90 97 100 75 9 33 5 2 0 0 0 0 0 0 10 30 98 99 50 100 100 100 100 52 100 100 100 100 100
100 100 100 100 100 97 100 100 100 100 100 100 100 64 54 55 100 100 100 70 84 55 5 0 0 0 0 0 0 0 0 100 83 94 100 100 100 100 100 100 100 100 100 100 100
100 100 100 100 100 100 100 100 100 100 100 100 100 100 98 92 100 100 100 82 48 5 0 0 0 0 0 0 0 0 4 40 89 95 58 98 100 100 100 99 100 100 100 100 100
65 100 100 100 100 100 100 100 100 100 100 100 100 90 100 100 98 100 100 70 5 2 0 0 0 0 0 0 4 0 8 97 100 100 100 100 91 89 100 100 100 100 100 100 100
5 100 100 100 97 100 100 100 100 100 100 100 100 100 100 100 100 100 100 6 5 0 5 0 0 0 0 0 0 4 15 100 99 69 94 92 59 42 78 100 100 100 100 71 100
31 5 92 100 93 100 100 91 93 100 100 100 100 100 100 100 100 100 100 59 22 5 5 0 0 0 0 0 0 8 28 38 91 100 92 97 94 100 96 100 100 100 99 100 100
74 10 5 61 100 100 100 99 100 100 100 100 100 32 100 100 100 100 100 66 11 5 3 0 0 0 0 0 0 5 52 35 96 100 100 96 87 100 100 57 89 100 97 92 100
60 6 5 9 98 100 100 87 100 100 100 100 92 55 100 100 100 100 100 95 18 19 5 0 0 0 0 0 0 3 5 26 83 83 100 81 96 100 98 100 100 100 100 100 100
100 5 5 5 100 100 100 100 100 87 100 100 92 100 82 93 100 100 100 57 96 29 20 0 0 0 0 0 0 5 2 90 96 100 97 99 92 100 100 100 100 100 100 100 32
100 62 41 12 68 100 100 100 100 100 100 99 100 100 72 92 100 100 79 100 100 48 4 0 0 0 0 0 0 4 12 84 100 85 96 62 100 100 100 100 100 100 100 100 45
100 100 5 68 100 100 100 100 100 100 100 100 100 100 100 96 55 80 100 100 100 12 0 0 0 0 0 0 0 5 58 66 18 69 90 94 100 100 100 100 100 61 64 86 100
100 100 5 15 95 100 100 100 100 100 74 100 91 99 46 80 66 100 100 100 37 3 5 0 0 0 0 0 0 5 6 28 6 77 92 100 100 100 100 100 99 100 97 82 96
100 100 5 64 100 100 100 100 100 100 100 100 100 100 100 27 86 100 100 100 48 5 5 0 0 0 0 0 0 0 5 5 25 81 100 100 100 100 100 100 98 82 98 99 100
100 100 30 26 100 100 100 100 100 100 100 100 100 100 100 53 30 100 100 100 76 5 5 0 0 0 0 0 0 0 5 6 57 100 98 100 100 87 65 98 100 99 100 100 96
100 100 76 5 100 96 100 100 100 100 100 100 100 100 100 15 43 100 100 100 44 5 1 4 0 0 0 0 0 5 5 6 38 99 95 86 100 95 99 100 100 100 96 100 100
100 100 89 67 100 68 100 100 100 100 100 100 100 100 71 97 100 100 100 100 10 3 4 2 0 0 0 0 0 0 4 5 5 100 100 88 100 98 100 98 99 100 100 100 100
100 100 100 40 92 100 95 100 100 100 100 100 100 100 100 100 100 100 100 66 44 8 5 0 0 0 0 4 0 0 5 5 5 75 100 100 100 13 65 96 99 100 100 100 100
100 100 100 86 100 100 100 81 100 100 100 100 100 100 100 100 100 100 100 100 100 31 5 0 0 0 0 1 2 1 0 4 5 7 92 100 100 100 74 41 78 100 100 100 100
100 100 100 99 92 100 100 69 96 100 100 100 100 100 100 100 99 96 100 96 36 6 5 2 0 0 0 5 5 5 5 2 45 52 82 100 100 100 96 96 96 63 89 100 100
100 100 98 5 100 100 100 69 71 100 100 100 100 100 100 100 98 92 100 100 5 79 80 5 5 0 0 0 5 5 5 0 5 68 100 100 100 100 100 100 100 100 100 100 100
100 100 99 0 100 51 43 99 24 92 100 100 100 100 100 100 97 100 100 98 91 39 65 5 5 5 0 0 0 4 5 3 25 5 58 100 100 40 98 100 66 35 62 99 100
100 100 100 68 6 5 60 76 55 36 100 100 100 100 100 100 100 100 100 100 87 99 78 21 5 5 3 0 0 0 0 5 2 1 5 98 81 95 48 72 48 16 5 30 20
96 100 42 100 100 5 5 5 83 97 100 100 100 100 100 100 100 100 100 100 100 76 52 66 67 5 2 4 2 0 0 2 5 4 1 79 83 54 43 81 31 12 5 4 2
100 89 5 15 94 100 98 5 76 100 99 100 100 100 100 100 100 100 100 100 100 96 100 100 8 5 5 5 5 5 1 3 4 5 0 3 12 29 92 49 34 5 5 1 0
66 4 5 4 100 99 14 50 100 100 100 100 100 100 100 100 100 100 100 100 100 100 100 97 84 89 27 5 5 98 0 0 5 4 1 1 4 5 78 99 98 44 42 5 5

GFSSW_prec_cloud_060.txt.gz
Cloud_Cover
100 97 20 4 5 4 5 88 100 96 100 100 100 100 100 58 25 35 5 73 56 5 5 5 5 5 2 0 0 0 0 19 88 100 99 91 100 99 100 100 100 100 100 100 100
100 100 100 82 38 2 0 5 86 100 100 100 100 100 100 100 35 47 5 100 97 88 5 6 6 1 0 0 0 0 0 31 93 91 28 74 100 100 100 100 100 100 100 100 100
100 100 100 100 100 100 26 9 100 100 100 100 100 100 100 60 98 71 76 100 88 68 7 19 3 0 0 0 0 0 5 22 74 95 6 92 97 93 100 100 100 90 100 100 100
99 100 99 100 100 100 100 25 6 100 100 100 100 100 100 100 86 71 100 100 100 11 65 5 3 0 0 0 0 0 0 77 91 84 5 56 94 100 100 100 100 100 100 100 100
48 53 98 100 100 100 100 100 12 82 100 100 100 100 100 75 88 78 100 100 97 92 41 5 5 0 0 0 0 0 0 0 10 89 9 100 81 100 77 79 100 100 100 100 100
58 8 11 96 100 100 100 100 66 5 84 67 100 100 100 89 48 36 100 100 99 28 42 5 3 0 0 0 0 0 0 6 100 32 100 95 32 46 91 83 97 100 100 100 100
86 92 54 2 100 100 100 100 95 88 29 10 100 100 100 21 16 84 100 100 74 57 50 5 0 4 0 0 0 0 1 6 25 48 98 79 45 5 67 100 100 100 100 100 95
100 100 100 73 94 99 100 100 84 50 89 74 99 99 100 5 96 100 100 100 95 100 96 13 4 5 0 0 0 0 0 60 3 7 22 62 100 5 37 96 100 100 100 100 86
92 100 100 100 100 100 86 80 71 13 100 78 68 100 100 94 48 100 100 100 99 100 100 45 7 5 0 0 0 0 73 27 15 98 96 68 92 45 100 100 100 100 100 91 76
100 100 100 100 100 100 100 100 24 10 59 87 100 78 100 60 67 100 100 100 100 100 36 98 53 3 0 0 2 4 4 66 100 80 100 75 31 100 43 5 5 100 80 100 79
100 100 100 100 100 100 100 88 5 5 12 98 86 100 100 30 83 100 100 100 100 17 100 100 61 2 4 0 0 0 0 14 49 97 100 100 74 100 98 7 39 5 5 38 89
100 100 100 100 100 100 100 100 13 22 19 94 100 100 58 97 100 100 100 78 5 96 100 95 5 0 0 0 0 0 4 25 93 99 55 97 92 100 100 100 100 51 98 100 93
100 100 100 23 100 87 100 12 99 6 91 100 100 100 100 85 100 94 57 8 62 100 100 38 7 0 0 0 0 0 74 42 46 100 86 15 89 100 100 100 95 100 100 100 100
100 100 100 8 20 53 83 7 33 67 8 100 100 100 99 100 100 59 100 5 88 100 100 93 5 0 0 0 0 5 9 5 73 51 100 54 100 100 79 100 100 100 10 21 16
100 100 100 5 97 100 41 19 5 46 7 100 100 98 78 73 100 100 65 56 100 100 100 100 32 0 0 0 0 6 0 5 60 93 98 97 100 100 99 100 100 100 100 83 65
100 100 100 14 89 55 1 44 6 79 6 100 100 100 100 35 100 100 100 100 79 100 100 100 8 0 0 1 4 0 0 5 5 79 100 100 98 100 47 15 91 100 100 100 100
40 100 100 96 27 31 32 39 34 3 5 100 100 100 100 100 100 100 100 100 46 100 100 100 5 2 0 2 5 3 2 100 98 96 100 60 85 90 46 52 66 82 87 97 100
11 100 100 100 86 64 100 99 1 0 5 100 100 100 100 100 100 100 100 100 97 100 100 74 5 0 0 0 59 5 48 100 99 94 95 100 100 82 40 64 12 7 31 79 49
5 97 100 100 16 90 100 91 0 0 86 100 100 100 100 100 100 100 100 100 100 100 100 28 8 0 0 1 5 12 5 5 3 5 9 96 23 7 72 100 50 96 100 100 48
6 100 98 100 18 100 100 2 0 5 99 100 100 100 100 100 100 100 94 100 100 100 35 95 60 5 4 1 4 6 15 9 11 17 24 76 57 49 45 52 45 56 91 96 23
49 100 53 48 26 100 100 2 1 2 73 100 100 100 100 100 100 100 100 100 100 100 100 68 11 6 20 3 5 5 6 31 29 5 28 87 66 5 14 7 17 81 100 100 96
63 100 46 80 91 100 100 5 2 7 99 100 100 100 100 100 100 100 100 100 100 100 100 28 5 49 42 4 1 88 98 44 27 50 5 30 100 34 63 27 60 100 100 100 100
100 100 97 98 89 100 100 62 5 80 100 100 100 100 100 100 100 100 100 100 100 100 100 94 5 5 69 4 5 5 5 5 96 11 5 20 100 47 55 53 26 5 34 75 99
100 100 100 100 3 4 85 52 66 95 100 100 100 100 100 100 100 100 100 100 100 100 56 5 24 97 86 5 5 5 3 4 12 6 5 5 49 65 6 77 38 51 44 60 58
100 96 38 100 99 5 17 19 94 74 100 100 100 100 100 100 100 100 100 100 100 62 40 5 72 100 80 100 15 6 4 0 5 7 10 8 5 5 5 45 68 69 98 100 100
100 78 75 8 5 6 4 92 84 91 100 100 100 100 100 100 100 100 100 100 100 100 57 12 99 100 100 100 25 78 5 0 0 5 5 6 11 5 4 0 3 53 94 91 83
100 99 65 3 58 89 23 5 66 100 100 100 100 100 100 100 100 100 100 100 100 100 99 100 100 100 100 48 6 99 5 3 0 4 5 5 5 4 9 5 0 1 74 92 100

GFSSW_prec_cloud_063.txt.gz
Cloud_Cover
74 99 100 100 90 7 5 3 0 0 0 0 5 54 99 91 97 100 100 100 76 33 12 35 76 9 5 0 0 0 0 93 100 95 70 100 7 100 100 22 30 100 34 100 100
8 15 32 68 100 100 100 34 0 0 0 0 5 5 46 97 92 100 91 96 100 71 5 44 65 5 2 0 0 0 67 100 20 27 29 100 100 95 42 42 67 100 99 100 100
0 33 100 90 97 99 57 100 51 0 0 0 62 38 100 100 54 39 96 100 100 78 78 100 90 5 0 0 0 0 4 76 36 85 33 38 99 100 92 100 100 94 98 100 100
96 3 7 100 30 48 68 100 100 35 0 2 5 21 10 61 10 100 100 100 69 26 98 100 81 5 4 0 2 0 2 15 100 2 3 3 5 8 96 100 100 86 100 100 100
72 31 5 14 96 79 47 77 85 100 7 6 5 26 61 16 92 100 100 100 95 64 100 100 45 5 5 0 0 0 0 47 5 6 30 7 46 56 34 16 94 100 55 100 100
85 6 11 10 9 10 5 100 96 100 67 6 5 16 20 16 17 100 100 91 13 100 100 100 75 81 70 4 0 19 0 3 5 87 1 74 94 4 90 69 82 93 100 100 100
100 93 38 12 5 99 8 5 96 78 25 38 34 5 5 7 6 36 11 16 76 100 100 100 100 100 37 5 0 0 0 10 54 86 100 32 100 100 98 100 39 19 89 99 100
100 100 100 69 44 73 88 23 20 8 9 57 31 5 12 88 71 49 45 24 100 100 100 100 100 90 7 10 1 0 0 62 70 100 5 100 100 100 99 100 100 100 100 79 100
100 100 100 100 90 8 100 100 100 100 100 30 100 5 4 24 57 69 81 100 100 100 100 100 99 16 100 22 0 29 65 98 59 49 97 29 100 100 24 100 100 100 100 100 96
100 100 100 100 100 100 100 100 100 100 100 100 96 96 3 92 58 8 96 100 100 100 100 98 6 98 92 5 32 100 95 93 82 64 100 78 75 95 100 100 100 100 100 100 92
100 100 100 100 100 100 100 100 100 100 100 100 100 100 29 5 26 5 99 90 100 100 100 35 25 100 96 100 5 0 100 100 90 53 79 100 100 100 100 97 37 50 100 76 94
100 100 100 100 80 64 100 100 100 100 100 100 10 100 64 5 20 61 8 100 100 100 99 5 96 100 5 5 0 0 100 99 89 18 75 96 70 100 91 90 5 48 6 81 56
26 100 100 100 89 5 14 97 100 100 100 100 100 49 35 17 22 77 84 100 100 100 72 55 100 100 76 8 1 2 81 100 80 100 97 96 22 100 63 100 44 15 86 100 82
4 100 100 100 11 7 3 41 90 100 100 100 100 100 91 8 96 72 88 100 93 67 52 100 100 100 100 78 18 98 53 18 12 16 100 100 80 100 100 100 37 100 99 100 100
2 100 100 100 42 21 42 64 6 45 16 87 99 80 91 20 98 95 100 100 91 100 62 100 100 100 100 23 34 58 61 5 25 97 99 100 73 97 28 36 97 32 93 17 40
1 20 100 100 31 37 99 100 63 8 2 4 91 6 5 18 100 100 68 100 100 99 100 100 100 100 100 72 4 10 5 8 43 95 71 100 100 100 100 99 100 100 99 44 100
3 9 100 88 90 83 100 100 100 38 10 3 5 5 5 60 100 100 73 99 100 100 100 18 100 100 100 17 5 4 11 100 96 96 19 97 74 100 98 76 35 91 100 60 88
59 0 52 68 64 100 100 98 5 7 77 0 5 7 5 93 100 100 95 77 100 100 100 98 100 100 100 4 58 56 75 81 100 96 100 15 32 94 55 5 12 5 8 64 12
100 8 5 76 6 100 100 93 0 0 11 5 8 17 44 5 76 100 100 100 100 100 100 100 100 100 100 4 10 99 31 80 100 5 2 15 37 98 18 14 41 100 83 5 79
44 62 5 43 64 80 100 71 5 0 0 5 5 5 24 90 90 100 100 100 100 100 100 100 100 100 100 4 5 50 88 39 5 60 60 99 79 100 67 51 48 22 8 5 8
88 100 26 100 99 100 99 8 25 5 1 3 20 3 25 94 100 100 100 100 100 100 100 100 100 100 75 4 6 5 55 56 95 82 98 83 90 91 4 5 40 14 5 77 5
100 100 62 80 100 83 23 6 7 0 5 52 20 2 5 100 100 100 100 100 100 100 92 97 100 100 100 16 18 100 62 98 100 82 31 38 6 98 6 6 6 5 5 20 25
100 100 97 77 100 55 1 1 6 96 40 100 66 4 5 98 100 100 100 100 100 79 22 46 99 100 100 95 27 58 98 100 88 67 93 47 12 100 24 3 54 62 21 8 22
100 100 100 100 37 5 3 3 5 9 89 100 98 43 5 96 100 100 100 100 100 100 100 36 100 100 100 100 16 100 96 57 92 83 50 11 77 100 79 93 36 43 99 100 17
100 86 100 100 92 13 54 20 1 3 22 100 100 100 5 97 100 100 100 100 100 100 100 30 68 100 100 95 99 100 100 100 62 79 86 6 95 100 95 35 92 74 17 53 100
100 63 50 6 99 94 80 51 63 0 11 100 100 100 100 96 100 100 100 100 100 100 100 100 100 100 100 79 87 100 100 100 25 31 5 5 5 100 24 14 5 3 8 76 100
98 30 100 95 86 91 28 5 53 6 5 84 100 100 100 100 100 100 100 100 100 100 100 100 100 100 100 92 59 98 100 64 8 5 5 5 5 71 96 61 7 0 4 5 10

GFSSW_prec_cloud_066.txt.gz
Cloud_Cover
0 0 63 99 100 100 87 22 0 0 0 4 0 0 0 0 0 3 26 100 100 96 17 68 100 98 6 100 20 5 0 20 100 98 79 0 4 1 40 81 39 100 100 100 100
4 0 2 3 39 41 100 74 0 2 2 3 0 0 0 0 0 1 56 100 63 28 100 100 26 5 100 97 79 0 0 81 100 27 2 0 20 99 100 100 100 100 100 100 100
5 0 1 6 5 5 6 98 88 12 7 5 5 5 0 0 0 3 0 47 37 94 100 19 4 41 100 84 5 3 0 61 14 4 3 0 46 97 70 100 100 100 100 100 100
6 5 5 8 82 54 38 1 66 24 89 37 0 5 5 0 3 3 0 7 79 66 100 93 8 100 89 85 43 51 4 0 0 15 2 3 7 13 55 77 100 100 100 100 100
100 99 100 99 100 83 99 11 5 94 90 99 5 1 5 32 5 0 0 3 41 94 100 6 98 100 99 95 100 8 4 0 21 3 1 19 36 6 100 90 88 54 100 100 99
100 88 75 37 82 100 74 5 5 13 87 91 6 46 5 99 5 0 0 0 26 83 37 58 100 100 100 100 91 4 33 1 1 6 0 3 77 100 100 100 100 60 68 55 95
100 100 100 100 100 100 100 100 5 6 25 31 39 20 2 58 5 5 5 5 39 53 45 100 100 100 100 100 7 5 22 0 4 53 76 10 88 100 100 100 100 98 7 2 6
100 100 100 100 86 99 100 100 83 71 87 87 5 14 4 0 5 5 5 71 98 6 95 100 100 98 100 40 5 52 1 0 89 78 5 25 97 100 100 100 100 74 66 1 19
100 100 100 100 100 10 98 100 100 7 5 66 99 86 82 5 33 100 21 40 6 70 100 100 100 100 100 45 19 26 2 37 80 80 35 63 96 100 100 100 100 60 81 99 83
12 100 100 100 100 98 78 100 100 45 14 18 96 100 100 100 100 100 99 5 58 68 100 100 98 100 82 6 83 100 100 55 24 64 9 97 85 82 100 100 100 6 38 100 100
4 69 100 100 100 100 92 96 99 100 95 63 17 100 100 100 100 100 100 72 5 33 34 47 100 99 5 68 75 15 5 11 100 49 26 77 27 21 25 100 80 40 62 100 100
93 5 67 100 100 100 100 100 72 5 94 100 94 26 100 100 100 100 100 100 97 70 66 97 100 54 5 97 93 100 19 3 100 51 4 84 100 100 9 10 81 8 52 100 15
4 5 1 96 100 70 100 100 57 92 7 76 100 100 98 100 100 100 100 100 82 98 75 100 92 85 7 100 100 100 8 32 48 78 59 9 100 100 92 100 93 53 5 32 100
100 5 54 75 45 5 0 6 57 90 22 5 61 100 100 100 100 100 100 74 54 89 100 100 100 93 52 100 100 100 3 18 99 90 92 58 95 94 100 94 100 14 77 22 70
5 6 6 100 2 12 30 48 81 76 0 18 0 5 87 100 100 100 100 100 100 100 81 100 94 32 75 100 100 100 18 46 5 5 24 65 86 100 31 77 56 13 85 38 100
99 1 1 97 62 0 33 55 62 11 0 0 0 5 4 63 97 100 99 100 100 95 100 100 72 46 100 100 100 100 32 3 5 5 4 49 83 80 18 72 100 79 63 87 88
100 27 3 72 18 13 44 35 34 2 0 0 0 0 1 4 7 82 100 13 78 97 100 100 100 100 98 100 100 100 34 4 42 84 4 99 42 100 84 74 96 92 99 100 100
100 98 5 65 13 83 100 100 26 0 0 0 0 1 0 99 50 10 9 76 92 100 100 100 56 100 100 100 100 100 15 5 68 100 66 86 84 98 52 100 26 5 5 43 88
100 100 70 5 71 78 100 100 14 0 38 28 13 100 93 63 100 32 5 20 83 100 100 100 100 100 100 100 100 100 89 13 100 92 99 89 84 76 15 5 5 5 20 23 31
100 100 59 5 5 96 100 100 0 0 3 12 5 82 100 100 100 78 5 5 85 100 100 93 100 100 100 100 100 100 51 48 82 99 92 8 6 100 54 56 3 6 42 18 72
100 100 71 87 22 100 100 22 3 0 0 3 9 36 100 100 100 5 5 79 98 100 100 100 100 95 100 100 100 100 19 6 55 79 43 4 87 99 100 55 4 1 5 10 80
100 100 99 100 99 100 100 7 5 0 0 0 4 61 98 100 100 8 18 100 100 100 100 100 100 100 100 100 100 100 25 6 50 45 3 13 86 73 84 84 16 0 0 1 5
100 100 100 100 100 100 58 5 62 5 30 0 7 80 97 100 100 90 5 100 100 100 100 100 100 100 100 100 100 100 99 39 5 5 24 40 15 4 6 5 2 0 0 5 3
100 100 100 100 17 66 19 5 6 0 5 0 0 98 100 100 87 100 72 100 100 100 100 100 100 97 60 100 100 100 96 93 61 95 98 100 4 34 69 59 41 2 53 82 41
100 92 47 100 89 22 90 34 10 31 10 42 6 5 99 100 98 65 100 100 100 100 100 100 100 100 27 100 96 100 100 36 100 100 100 100 19 0 89 95 70 100 15 9 97
100 86 35 52 92 100 49 8 75 5 5 0 85 0 93 100 85 100 100 11 100 100 100 100 100 97 92 100 100 100 100 43 99 100 100 99 62 6 80 66 29 96 4 0 40
100 100 100 17 100 100 34 5 7 90 6 2 1 5 71 92 100 100 16 39 100 100 100 100 100 100 92 100 100 100 100 93 100 100 100 80 14 5 10 97 86 96 63 0 0

GFSSW_prec_cloud_069.txt.gz
Cloud_Cover
100 92 42 5 2 54 83 98 100 31 0 0 0 0 0 0 0 0 0 0 0 0 7 23 5 7 89 3 1 93 50 5 26 6 94 100 68 5 2 8 84 72 100 100 100
100 100 100 100 40 29 0 0 44 25 12 0 0 0 0 4 0 0 0 0 0 0 0 5 5 31 28 4 52 100 100 24 81 52 59 94 54 86 32 99 100 100 100 100 100
47 100 87 100 82 10 3 0 0 2 9 14 0 0 0 5 0 5 0 0 0 0 4 4 5 97 77 5 100 100 77 100 6 2 37 4 1 56 75 100 100 100 100 85 100
38 91 14 5 5 5 5 5 3 1 5 58 66 81 7 12 0 0 5 0 0 0 2 5 5 5 5 21 94 99 100 74 0 0 0 1 0 5 70 100 100 100 100 100 100
100 98 86 38 8 52 47 5 5 10 71 100 100 20 21 64 30 0 4 3 4 0 0 5 5 4 6 100 100 99 98 5 2 0 4 39 26 10 94 100 100 100 100 93 96
100 100 100 99 100 96 63 65 43 5 95 99 93 83 47 88 2 0 0 4 5 3 5 39 19 5 66 48 100 100 73 0 2 0 0 47 15 88 100 100 100 100 100 100 99
100 100 100 100 100 100 92 46 34 100 93 94 46 99 100 100 0 3 0 4 5 5 35 69 5 92 39 91 92 100 75 0 0 0 2 24 33 60 100 100 100 100 100 100 100
100 100 100 100 100 100 90 100 97 16 100 95 85 92 87 94 0 0 0 0 3 5 99 30 5 64 63 100 98 100 9 2 0 3 32 24 73 99 100 100 100 100 95 63 77
100 100 100 100 100 100 66 89 99 91 7 8 100 100 100 96 5 5 5 99 48 90 42 33 6 97 18 74 100 9 5 4 83 87 93 53 0 39 99 74 70 70 100 74 99
100 100 100 100 100 100 93 42 12 100 100 79 86 77 100 98 22 5 5 89 97 100 100 71 22 25 67 79 26 5 7 96 100 20 28 95 45 5 42 100 97 100 100 99 21
100 100 100 100 100 100 100 100 41 50 86 100 68 84 100 100 24 62 6 6 100 100 100 39 100 29 10 100 13 5 11 100 100 51 96 21 31 19 96 97 100 100 100 100 87
100 100 100 100 100 97 60 100 24 5 4 64 60 58 41 31 86 72 9 19 14 100 100 100 100 52 5 88 14 23 100 100 99 3 23 4 0 5 24 65 100 78 58 66 100
100 100 100 100 100 100 100 100 79 26 3 84 94 99 100 25 83 100 39 5 24 64 100 100 100 16 87 96 60 97 79 100 100 6 5 3 3 5 5 55 44 80 5 1 65
100 100 100 100 100 100 100 100 77 51 16 8 100 100 100 33 7 100 100 99 5 84 100 97 100 30 98 100 22 57 100 100 100 11 0 5 13 65 26 7 5 3 63 4 0
100 91 92 99 91 97 100 100 100 76 9 0 0 30 97 99 4 5 5 97 100 100 62 100 100 82 100 100 84 79 100 100 100 41 0 1 2 96 5 4 7 19 41 4 4
100 100 89 5 24 52 22 94 91 80 30 0 0 0 0 5 66 48 5 4 100 85 10 100 100 65 100 100 45 100 100 100 100 37 0 2 5 90 69 5 32 22 5 12 5
100 100 100 18 4 2 67 74 100 70 3 2 32 4 0 0 0 1 14 6 6 67 98 100 100 93 100 99 96 100 100 100 100 48 1 55 74 5 62 44 40 5 5 5 5
100 100 100 100 0 55 100 100 100 2 0 0 1 5 0 0 0 0 0 9 44 5 91 100 100 100 100 100 100 100 100 100 100 40 33 100 76 1 3 16 7 5 26 5 5
100 100 100 100 71 85 100 100 8 0 0 0 1 32 0 0 0 0 4 1 15 12 8 30 100 100 92 100 54 100 100 100 100 53 100 89 100 11 9 11 5 2 3 5 5
100 100 100 98 99 91 100 95 3 0 0 0 100 82 100 4 1 5 67 20 100 92 96 22 59 100 100 100 72 100 100 100 100 69 61 100 99 75 83 60 4 0 0 2 1
100 100 96 100 97 97 100 100 18 0 0 3 0 88 88 100 75 44 62 100 100 100 92 80 85 98 98 83 100 100 100 100 100 98 18 100 67 70 52 72 25 1 0 5 0
100 100 69 100 100 98 100 100 87 1 0 3 0 2 5 100 100 100 100 100 100 100 33 86 100 100 100 100 100 100 100 100 100 96 87 69 66 5 8 12 38 52 5 0 0
100 100 100 100 100 100 98 100 100 8 0 0 0 56 73 100 100 100 73 100 100 100 62 100 79 100 96 98 100 96 99 100 100 100 100 52 8 95 100 97 14 13 2 1 0
100 100 100 100 14 22 100 100 100 6 5 3 0 99 37 58 43 98 67 100 100 100 60 100 91 96 5 77 100 100 100 100 100 100 99 76 16 95 100 55 62 50 56 16 26
100 98 76 100 100 100 98 87 100 60 1 42 0 1 2 81 51 91 97 100 100 100 89 99 42 96 33 100 100 100 100 98 100 100 99 6 73 5 100 91 81 10 43 71 4
100 100 59 5 100 100 100 51 5 5 5 15 79 0 4 2 1 3 42 100 100 100 100 94 80 100 100 100 100 100 100 100 100 100 100 100 75 99 100 100 10 26 49 70 48
100 93 99 29 100 100 64 8 39 89 7 59 98 19 22 5 56 34 45 100 98 99 100 81 100 100 100 100 100 100 87 100 100 100 100 32 57 5 100 97 84 100 21 11 1

GFSSW_prec_cloud_072.txt.gz
Cloud_Cover
5 5 5 58 36 5 5 2 5 14 6 18 32 8 0 0 8 0 0 0 0 0 0 0 0 0 0 0 2 2 1 5 37 6 53 22 62 4 0 1 39 100 100 100 100
92 17 5 5 5 5 23 69 60 60 5 0 25 40 0 0 0 0 0 1 0 0 0 0 0 2 2 0 0 5 5 5 5 73 80 5 5 0 0 41 97 100 100 100 85
100 100 89 10 75 94 100 55 80 56 28 4 0 14 4 5 0 0 0 5 5 5 0 0 0 0 5 0 0 5 6 13 99 78 5 5 3 0 0 14 2 96 100 98 99
100 100 100 100 100 72 20 37 28 96 7 5 1 9 3 29 11 2 6 5 5 0 0 0 0 0 43 4 0 85 29 100 100 17 2 4 0 0 0 66 21 100 100 100 67
100 100 100 100 100 98 100 100 5 5 5 10 6 100 12 63 92 91 89 5 5 4 0 0 0 0 9 1 2 5 16 93 46 5 1 0 0 0 13 97 56 86 76 97 75
100 100 100 100 100 100 100 100 75 38 26 12 2 66 100 77 14 4 6 5 5 5 1 0 0 0 7 5 5 4 10 50 67 1 0 3 0 0 97 77 10 33 99 31 100
100 100 100 100 100 100 100 100 100 100 96 24 5 88 85 97 5 5 5 5 5 2 0 5 0 0 3 7 4 81 92 49 26 0 19 48 0 0 73 64 14 100 95 70 35
98 100 100 100 100 100 100 100 100 100 100 100 94 100 100 64 18 2 66 64 2 5 3 5 4 6 10 21 18 8 84 20 0 2 41 57 0 5 67 100 100 37 49 91 99
100 100 100 100 100 100 100 100 99 100 100 46 65 98 100 81 70 100 93 99 4 4 5 4 5 11 5 65 14 5 44 74 0 0 5 3 1 81 3 100 100 94 10 94 92
100 100 100 100 100 100 100 100 100 100 96 77 71 73 64 100 100 8 100 100 100 44 46 62 4 93 50 90 6 5 100 19 5 11 93 20 42 5 4 37 100 100 68 36 96
100 100 100 100 100 100 100 100 100 100 100 100 100 96 96 100 100 100 48 68 100 100 69 5 26 100 49 100 18 5 5 5 5 68 100 100 14 0 0 5 5 58 40 88 90
100 100 100 100 100 100 100 100 100 100 100 100 100 100 100 50 28 9 99 84 15 72 6 19 88 47 7 100 20 5 6 19 5 44 100 100 20 0 3 1 22 58 62 91 80
100 100 100 100 100 100 100 100 75 100 100 100 100 100 100 27 91 100 8 9 58 9 43 16 16 29 100 100 87 35 67 29 5 100 100 80 13 0 0 3 5 6 95 78 4
100 100 100 100 100 100 100 100 100 100 72 99 100 69 40 99 85 99 100 100 51 5 69 13 63 60 24 100 62 68 61 58 81 100 100 42 1 0 1 5 4 0 32 20 23
100 100 100 96 100 100 100 100 100 100 87 74 99 100 100 100 100 100 29 86 100 100 4 64 100 5 26 100 98 100 74 85 100 83 72 21 2 0 5 0 0 6 100 28 5
100 100 100 100 100 100 100 98 99 94 30 5 35 91 96 100 100 100 98 17 94 100 88 24 100 100 100 96 100 100 73 97 59 51 17 12 28 0 5 3 0 0 5 64 5
100 100 100 98 93 7 96 100 79 41 5 30 75 45 84 100 99 100 89 4 5 6 100 69 40 12 95 100 100 100 98 95 100 44 100 95 18 3 2 0 0 4 5 66 10
100 100 98 67 82 5 95 100 87 63 14 39 4 2 11 11 100 100 100 20 5 5 28 100 100 58 99 100 100 100 92 100 100 92 71 100 45 0 0 0 0 0 0 5 5
100 100 94 97 100 51 100 100 41 3 0 2 0 0 2 0 0 3 5 14 43 4 4 6 55 33 60 100 100 100 94 86 16 100 56 100 60 5 0 0 0 0 0 0 0
100 100 100 100 100 84 100 86 5 1 0 1 3 1 63 47 41 66 6 0 0 2 5 3 4 46 82 100 100 100 99 11 97 100 12 100 97 5 7 5 0 0 2 3 0
100 100 100 100 100 100 100 100 83 4 0 0 1 10 18 66 100 90 18 13 0 0 1 4 1 70 100 54 67 100 100 100 100 100 100 92 100 5 6 5 5 3 0 0 0
100 100 100 100 100 100 100 100 100 91 24 5 0 0 99 100 100 100 100 89 5 4 0 0 23 6 51 100 100 100 100 98 99 100 100 100 100 100 75 23 100 6 5 0 0
100 100 100 99 99 100 100 76 73 100 30 5 3 0 94 100 100 100 100 100 100 76 8 40 9 68 88 56 97 100 97 100 98 80 100 100 100 100 74 5 93 100 5 3 3
100 100 100 100 46 100 100 100 95 88 92 2 9 14 0 100 90 88 100 100 100 73 100 85 50 100 58 100 100 100 100 100 100 100 100 100 92 100 98 68 21 100 98 94 95
100 100 51 100 100 100 96 100 100 97 81 6 5 33 43 0 2 0 100 100 100 100 57 53 98 100 100 100 100 100 100 100 100 100 70 100 82 100 65 98 92 100 100 63 62
100 100 100 99 100 100 99 95 100 99 61 91 6 0 4 1 35 7 5 99 100 100 100 66 100 100 100 100 100 92 100 100 100 100 100 100 100 100 100 70 24 87 100 18 99
100 99 100 100 100 100 72 96 100 97 14 7 54 1 0 18 100 100 41 100 88 35 100 40 100 100 100 100 100 96 100 96 72 99 100 100 100 100 100 99 7 40 99 70 13

GFSSW_prec_cloud_075.txt.gz
Cloud_Cover
15 99 3 0 1 4 3 5 26 8 34 5 5 8 4 4 0 0 0 0 0 0 0 0 0 0 0 0 0 0 0 0 0 0 0 2 0 0 3 1 0 1 54 100 100
0 31 93 74 49 6 5 0 5 5 0 5 3 12 13 69 19 2 0 0 0 1 0 0 5 0 0 0 0 0 0 0 0 0 0 0 4 0 0 0 0 72 94 100 100
100 75 5 5 19 100 42 6 72 76 24 5 5 83 100 89 28 5 4 0 5 4 2 0 1 3 0 0 0 0 2 0 0 0 0 6 5 0 0 0 0 46 98 100 100
100 100 100 63 60 100 100 100 100 100 54 38 76 50 28 96 15 5 5 4 0 5 5 1 5 0 0 0 0 0 5 0 5 0 0 92 0 0 1 0 52 93 99 95 100
90 33 32 76 100 100 100 100 100 100 100 98 17 20 29 72 47 4 5 10 12 1 5 5 0 1 4 0 0 0 3 51 19 32 91 12 0 5 0 1 4 77 53 100 100
8 99 66 100 100 100 100 100 90 100 100 100 73 82 82 99 36 5 31 66 5 5 5 5 5 0 0 0 0 0 10 98 30 60 1 0 0 5 0 1 0 84 100 100 100
6 68 84 21 100 100 100 100 87 100 100 100 96 100 97 100 87 9 0 4 5 5 5 2 0 3 0 0 1 5 6 14 3 5 0 0 1 0 5 0 4 57 100 100 80
5 8 92 8 83 100 100 100 100 100 100 100 100 100 100 100 79 100 39 9 5 9 5 5 5 3 5 4 1 5 3 19 4 3 2 0 25 0 15 0 8 100 55 96 100
72 80 60 95 37 100 100 100 96 100 100 100 100 100 100 100 100 100 100 90 41 43 13 8 5 6 5 1 2 11 7 5 32 3 3 1 5 2 4 0 2 2 99 100 64
100 100 100 96 100 100 100 100 100 100 100 100 100 100 100 100 100 85 20 74 39 34 73 100 100 100 88 4 26 10 5 60 68 4 5 0 5 5 80 0 2 0 3 20 100
100 100 100 100 100 100 100 100 87 89 100 61 94 100 100 100 100 100 67 86 100 100 100 64 11 100 5 5 5 5 33 72 78 56 1 4 5 98 81 0 3 0 1 16 83
100 100 100 100 100 100 100 100 100 100 100 96 97 100 100 100 100 98 97 46 97 91 84 33 97 82 4 5 6 93 12 62 21 5 5 9 77 91 26 0 2 0 0 3 56
100 100 100 100 100 100 100 100 100 100 91 100 94 100 100 100 100 100 84 100 100 99 50 8 49 7 27 8 26 100 95 37 61 5 5 5 7 7 32 0 0 1 0 3 37
100 100 100 100 100 100 100 100 100 100 100 100 100 100 100 98 81 100 100 100 100 100 100 66 77 100 8 8 82 7 100 77 5 5 5 6 5 5 44 0 0 3 0 4 6
100 100 100 100 100 100 100 100 100 100 100 100 100 100 100 96 99 99 100 100 100 100 100 99 100 100 18 100 54 100 48 81 7 10 16 5 10 6 71 0 0 0 0 0 3
100 100 100 100 100 100 100 100 100 100 100 100 100 100 100 100 100 87 100 100 100 67 100 77 100 76 99 100 73 100 100 86 67 51 74 31 6 40 96 0 3 0 0 0 5
100 100 100 100 100 100 100 79 100 100 100 100 100 81 100 100 100 100 100 100 100 100 100 100 100 100 14 50 69 62 100 100 100 83 92 86 14 100 100 1 31 2 0 0 0
100 100 100 100 100 82 58 65 100 60 100 100 8 9 100 100 100 100 100 13 5 14 100 100 100 100 100 100 36 30 60 100 100 100 29 96 74 100 98 5 0 5 0 3 0
100 100 100 100 100 98 89 97 5 5 21 100 47 2 34 83 100 100 62 5 5 20 15 67 61 100 100 96 100 40 7 64 98 100 45 20 98 100 100 41 4 2 8 5 0
100 100 100 100 100 100 100 4 3 2 5 5 4 0 0 4 38 92 6 39 8 75 99 100 100 100 100 34 93 100 92 80 9 98 100 65 90 100 100 98 23 17 8 1 5
100 100 100 100 100 100 88 91 5 3 4 0 0 4 0 0 5 65 6 69 100 100 53 12 52 96 72 11 96 92 39 25 58 100 100 54 97 100 100 100 37 46 20 6 4
100 100 100 100 100 100 100 5 5 54 6 3 2 0 3 3 5 7 85 2 54 65 5 2 4 44 11 5 93 100 44 22 95 100 100 63 93 100 100 100 100 63 40 94 7
100 100 100 100 100 100 100 100 12 11 11 5 5 2 0 0 1 5 35 60 69 27 78 53 4 0 81 26 5 83 100 88 100 54 96 78 94 80 100 100 100 64 5 97 66
100 100 100 100 93 55 100 100 90 100 100 7 36 5 4 5 0 11 67 100 100 68 35 99 34 0 0 23 98 100 97 100 100 36 100 98 100 100 100 100 100 99 6 66 100
100 100 100 100 100 82 94 100 100 100 100 91 98 5 57 75 1 3 100 98 90 61 100 98 54 25 1 56 100 88 100 100 97 24 52 100 100 50 100 100 100 97 61 15 87
100 100 100 7 100 100 100 100 100 100 100 100 100 99 68 6 3 98 100 100 90 100 100 100 56 100 99 100 100 100 75 99 100 23 5 53 100 34 19 100 100 100 100 87 100
100 100 100 96 100 100 100 100 100 100 100 100 100 73 5 48 3 17 100 100 100 100 100 100 100 75 73 100 100 87 100 100 100 68 94 92 100 100 94 55 100 100 100 100 60

GFSSW_prec_cloud_081.txt.gz
Cloud_Cover
100 97 100 100 35 55 5 18 5 5 5 0 0 0 0 0 14 0 0 47 24 5 5 6 1 3 2 0 0 0 0 0 0 0 0 0 0 0 0 0 0 0 0 0 30
100 100 98 86 93 96 99 56 8 100 9 0 2 3 1 3 11 0 0 13 40 12 24 5 5 5 12 1 0 0 0 0 0 0 0 0 0 0 0 0 0 0 4 1 9
100 100 100 100 100 100 100 100 100 100 74 4 0 0 0 12 11 21 0 21 86 17 45 6 31 15 11 5 0 0 0 0 0 0 0 0 0 0 0 0 0 0 0 0 15
100 100 100 95 100 93 100 100 100 100 23 5 0 2 0 50 7 55 16 10 94 27 72 5 8 28 6 4 0 0 0 0 0 0 0 0 1 0 0 0 0 0 0 2 35
100 100 100 55 62 100 100 100 100 100 100 6 5 4 22 5 99 68 100 100 92 100 8 5 8 6 5 3 0 0 2 0 0 0 0 0 0 0 0 0 0 0 0 0 15
97 30 5 8 9 100 100 100 100 70 64 3 14 5 59 33 100 100 100 100 100 100 74 83 33 99 5 6 0 0 0 0 0 0 0 0 0 0 0 0 0 0 12 1 4
6 26 6 5 5 5 5 8 10 11 5 2 2 16 36 64 100 100 100 100 100 100 100 100 40 66 37 83 4 0 0 0 3 2 1 4 4 0 0 0 0 0 5 4 0
60 22 5 5 11 6 5 5 5 0 0 0 2 17 26 64 100 100 83 100 100 100 100 92 25 96 68 7 5 0 0 4 5 0 3 20 3 1 5 0 0 2 3 0 39
46 29 5 9 5 5 5 5 5 5 5 4 42 20 4 28 100 86 100 100 100 100 100 24 5 100 57 61 13 5 2 8 8 5 5 73 9 0 5 2 0 9 0 1 95
3 1 5 5 77 40 5 5 5 5 18 35 31 60 4 57 99 100 100 100 100 100 100 46 95 57 24 100 77 4 5 20 46 4 5 49 6 18 5 3 0 2 2 92 100
2 5 5 5 99 24 9 5 5 5 5 5 0 100 92 100 100 100 100 100 100 100 38 100 100 100 100 100 1 0 5 10 44 0 14 63 5 5 4 5 1 0 0 18 76
2 4 5 5 8 55 13 20 57 52 93 60 58 66 100 100 100 100 100 100 100 100 100 46 100 100 100 97 80 2 5 52 2 1 39 28 85 7 5 4 1 0 5 1 0
9 3 5 5 42 21 5 48 62 5 100 98 78 66 100 100 100 100 100 100 100 100 100 100 100 100 100 100 89 54 18 93 3 5 1 5 83 13 13 5 0 0 4 0 0
5 4 5 5 44 83 5 74 16 66 28 55 95 42 100 100 100 100 100 100 100 100 100 100 100 100 100 100 100 78 94 5 5 5 5 9 85 79 26 5 5 4 5 2 1
5 5 5 5 20 67 14 79 93 100 13 68 100 100 100 100 100 100 100 100 100 100 100 93 100 100 100 100 97 98 5 48 5 76 68 69 28 100 66 5 5 5 5 4 5
5 5 6 5 70 65 93 100 99 80 78 14 100 100 100 100 100 100 100 100 100 100 100 100 100 100 100 100 100 100 100 100 100 13 100 81 27 100 78 58 5 5 5 5 0
5 5 45 58 100 78 100 97 78 66 45 7 96 99 100 100 100 100 100 100 100 100 100 100 100 100 100 94 95 95 100 100 17 5 100 100 38 100 90 100 39 5 39 5 3
5 5 52 100 87 100 100 64 97 3 100 91 88 99 100 100 100 100 100 100 100 100 100 100 100 100 100 99 100 47 47 5 5 6 100 98 88 100 59 100 100 5 97 6 49
5 70 72 45 99 100 100 96 5 5 98 100 100 100 100 100 100 100 100 100 100 100 100 99 100 100 100 100 100 100 98 89 21 3 16 86 100 100 100 36 100 79 73 7 100
81 100 97 4 96 100 100 64 5 42 63 100 100 100 100 100 100 100 100 100 100 100 100 100 99 100 100 100 100 90 93 70 5 3 8 100 100 100 94 22 96 100 90 14 73
93 100 25 5 100 100 100 100 92 88 100 100 100 100 44 31 100 100 100 100 100 100 100 100 100 100 100 100 100 100 100 100 84 70 77 97 100 100 31 82 100 100 99 59 96
100 100 13 96 100 100 100 100 100 88 100 100 100 100 100 100 59 31 100 100 100 100 100 100 100 100 100 100 100 100 100 100 97 6 7 90 84 100 97 100 100 100 100 93 70
100 100 69 94 100 100 100 68 100 100 100 96 91 72 25 35 49 89 10 22 89 98 100 96 99 100 100 100 100 100 100 100 82 46 10 70 48 100 100 100 98 100 100 100 52
100 100 100 100 100 100 97 100 100 100 100 72 7 5 6 77 77 46 100 98 6 4 5 98 100 100 72 100 97 93 100 100 100 94 90 19 95 100 100 100 100 100 100 100 100
100 100 31 99 100 100 100 98 40 85 100 30 40 5 25 59 58 35 32 15 3 3 1 4 49 87 69 81 75 70 71 77 100 88 11 90 16 81 100 100 100 100 100 100 100
100 100 100 8 71 100 88 100 100 100 98 47 5 96 100 33 81 100 100 96 14 94 89 75 77 100 50 5 5 5 5 5 5 5 6 100 22 100 100 100 100 100 100 100 100
100 100 94 92 99 100 100 57 86 100 87 65 100 96 100 92 100 57 100 26 73 5 33 5 80 100 7 6 59 21 0 5 5 4 5 5 21 53 100 100 100 100 100 100 100

GFSSW_prec_cloud_084.txt.gz
Cloud_Cover
100 99 100 100 81 38 74 5 5 5 31 73 92 77 99 54 4 0 0 0 0 0 0 0 24 48 7 5 5 3 2 0 0 0 0 0 0 0 0 0 0 0 0 0 0
100 100 100 100 100 91 53 78 95 100 100 94 47 93 86 77 8 2 0 0 0 0 0 0 3 80 95 55 9 5 86 0 0 0 0 0 0 0 0 0 0 0 0 0 0
100 100 100 100 100 100 99 100 100 100 100 100 74 21 5 13 52 14 1 0 0 5 0 0 0 11 91 49 76 15 100 8 0 0 0 0 0 0 0 0 0 0 0 0 0
100 100 100 100 100 100 100 100 100 100 100 86 8 4 6 28 6 5 0 0 3 3 5 3 0 25 67 100 99 88 90 2 0 0 0 0 0 0 0 0 0 0 0 0 0
100 100 100 100 100 100 100 100 94 90 80 66 20 13 5 5 30 5 1 1 1 5 5 13 5 8 10 71 100 92 38 16 0 0 0 1 0 0 0 0 0 0 0 0 0
100 100 100 100 100 100 100 5 10 26 48 5 24 9 12 22 56 5 1 2 2 27 50 96 88 100 100 100 84 100 100 56 5 0 4 0 0 0 0 0 0 4 3 0 0
100 100 100 100 100 100 100 100 73 5 4 90 50 78 4 17 5 0 4 0 5 49 100 88 96 100 100 99 99 100 99 65 6 0 5 0 4 0 0 0 0 12 0 0 0
100 62 78 29 99 100 100 100 100 99 31 35 4 3 4 4 0 5 1 5 8 100 100 92 63 100 100 100 100 100 100 68 5 4 5 4 2 0 0 0 4 14 0 0 0
100 100 100 13 6 76 100 84 73 66 50 3 28 2 0 2 5 5 3 4 6 100 100 80 12 97 64 100 100 100 100 25 28 30 5 5 5 5 0 0 0 0 0 0 0
97 99 8 100 7 41 5 100 29 4 20 4 6 9 0 0 6 41 2 5 5 98 100 100 24 64 66 100 100 100 20 72 21 24 5 12 5 5 0 0 0 5 4 0 0
6 100 51 5 62 3 3 5 2 5 0 0 0 0 0 23 61 37 5 39 5 21 100 100 51 13 100 100 100 100 12 5 46 5 5 45 33 100 3 0 0 0 0 0 0
100 92 36 5 5 7 5 4 18 80 57 0 0 0 6 40 38 100 100 82 42 17 98 99 89 100 100 100 100 100 100 100 40 3 7 16 46 100 4 0 0 0 0 3 0
100 100 43 5 14 31 62 24 35 78 91 1 12 2 32 63 13 100 100 98 96 67 64 100 100 100 100 100 100 100 84 100 100 4 15 61 43 82 3 0 0 0 0 5 0
97 100 71 2 12 6 17 1 6 100 43 0 1 5 5 27 35 100 100 100 100 100 100 100 100 100 100 100 100 100 100 100 100 5 88 80 45 100 2 5 3 0 5 5 5
100 99 90 6 92 26 47 31 77 73 1 0 0 28 100 100 82 100 100 100 100 100 100 100 100 100 100 100 99 100 100 100 100 5 70 67 15 100 13 5 2 5 3 18 77
5 5 4 11 31 36 93 18 83 73 0 0 0 5 100 100 100 100 100 100 100 100 100 100 100 100 100 100 100 100 48 100 100 16 20 100 18 99 23 4 2 5 79 5 99
0 5 8 72 85 29 19 37 41 5 0 0 5 70 100 100 100 100 100 100 100 100 100 100 100 100 100 100 100 100 100 88 97 16 12 100 55 96 100 78 5 17 100 67 98
3 5 23 33 33 91 39 99 70 0 27 55 84 98 100 100 100 100 100 100 100 100 100 100 100 100 100 100 100 100 96 66 75 100 67 99 96 100 100 5 81 5 82 24 53
5 9 97 1 5 67 100 100 1 13 9 100 100 100 100 100 100 100 100 100 100 100 100 100 100 100 100 100 100 100 100 100 97 5 5 42 100 100 100 67 24 29 5 70 14
20 93 17 4 6 70 100 100 96 32 64 100 100 100 100 100 100 100 100 100 100 100 100 100 100 100 100 100 100 100 100 100 23 5 10 94 100 100 100 91 6 70 0 20 63
88 99 4 0 66 100 100 100 96 94 100 100 100 100 100 100 100 100 100 100 100 100 100 100 100 100 100 100 100 100 100 100 91 10 70 68 97 100 100 100 66 14 5 5 67
83 99 16 38 100 100 100 100 28 100 100 100 100 100 100 100 100 100 100 100 100 100 100 100 100 100 100 100 100 100 100 100 49 97 14 5 92 100 100 97 10 42 60 5 9
100 100 7 69 99 53 64 83 68 100 100 100 100 100 100 100 93 100 100 100 100 100 100 100 100 100 100 100 100 100 100 99 96 88 5 79 94 100 100 100 100 100 100 28 5
100 98 67 90 50 98 99 58 100 100 100 100 100 100 100 100 100 100 100 100 100 100 100 100 100 100 100 100 100 100 100 100 100 22 9 17 51 87 100 100 100 100 100 86 22
100 71 18 91 63 97 93 100 98 100 88 99 100 100 100 100 100 100 100 89 52 80 100 100 100 100 100 100 95 100 100 100 100 100 87 100 70 100 100 100 99 100 100 98 100
100 100 80 5 23 89 99 56 79 100 88 100 90 100 100 100 100 100 100 93 100 96 72 99 100 64 7 100 35 5 38 99 100 100 62 100 99 100 100 100 100 100 97 98 100
100 100 100 41 6 97 52 54 100 100 95 99 95 96 92 90 93 74 95 100 88 86 100 99 80 79 5 57 93 8 5 5 5 14 57 14 100 100 100 100 100 100 100 100 86

GFSSW_prec_cloud_090.txt.gz
Cloud_Cover
100 100 100 100 100 100 99 100 92 99 100 100 100 100 86 77 95 36 5 4 4 2 8 29 74 0 0 0 0 0 0 4 0 0 2 46 5 3 0 5 0 0 0 0 0
100 99 100 100 100 100 100 80 47 70 100 100 100 100 100 100 54 40 80 100 97 37 100 96 14 5 0 0 0 0 0 5 4 0 0 20 14 3 1 42 11 0 0 0 0
100 100 100 100 100 100 100 100 100 96 30 100 100 100 100 100 34 37 99 100 98 100 100 94 34 5 0 0 0 5 4 5 7 4 0 68 10 3 81 10 0 5 0 0 0
100 98 99 68 69 94 99 100 100 100 100 100 100 100 100 100 90 97 100 100 100 100 100 100 51 0 0 0 0 12 4 5 26 31 0 35 42 5 99 75 0 38 0 0 0
58 100 100 92 30 91 100 84 97 82 100 99 100 100 100 100 100 100 100 100 100 100 100 100 6 0 0 4 5 5 1 28 25 26 1 1 91 38 100 21 1 5 0 0 0
100 100 100 100 100 100 100 100 85 100 99 99 100 100 94 100 100 100 100 100 100 100 100 46 4 0 0 0 1 2 2 6 5 52 95 33 24 13 100 12 60 24 0 0 0
100 100 100 100 100 100 100 94 100 100 100 100 100 100 100 100 100 100 100 100 100 100 100 98 5 0 0 2 0 0 5 32 87 93 70 95 100 100 100 79 96 55 0 1 0
100 100 100 100 100 100 100 100 98 100 100 90 100 100 100 100 100 100 100 100 100 100 100 100 91 17 5 4 0 1 42 5 87 57 48 66 56 100 100 100 94 6 5 1 1
100 100 100 100 100 100 100 100 100 100 100 100 94 66 92 100 100 100 100 100 98 100 100 71 6 11 5 4 5 5 5 5 9 100 100 14 5 100 100 100 99 5 5 4 3
98 100 100 100 100 100 100 100 100 100 100 100 100 100 74 94 48 85 71 89 47 13 5 0 0 0 0 5 1 3 5 5 5 99 100 5 27 95 100 100 100 5 5 5 5
13 100 100 100 100 100 100 100 100 100 100 100 100 100 100 100 100 100 100 100 100 19 4 3 0 0 0 0 4 90 92 50 46 100 100 81 90 100 100 95 30 5 5 5 0
86 100 78 100 92 88 74 97 94 47 82 100 100 100 100 100 100 100 100 100 100 100 100 54 0 0 0 0 5 7 5 5 5 100 100 100 85 100 100 78 6 5 6 5 5
100 100 87 100 100 85 97 41 97 89 10 64 100 100 62 100 100 100 100 100 100 100 36 5 0 0 3 5 21 5 10 73 46 100 100 68 28 100 100 45 43 5 14 5 9
100 100 100 100 99 100 76 100 100 89 7 2 27 80 100 69 88 100 90 100 97 54 8 3 4 17 7 5 44 5 84 100 100 100 93 100 70 100 100 100 100 16 5 5 5
100 100 100 100 100 100 100 100 100 100 43 7 1 60 100 96 100 95 59 5 5 2 2 0 0 7 42 5 100 7 100 90 100 100 100 100 96 100 100 100 100 64 5 18 5
5 5 18 74 100 100 100 100 98 89 9 57 56 5 95 77 90 81 24 0 0 0 0 0 2 14 44 73 100 100 100 96 100 100 95 100 100 100 100 100 100 48 16 86 60
5 5 4 16 98 84 97 100 97 70 73 6 12 38 14 64 93 4 1 0 0 5 18 17 39 100 17 100 100 100 100 100 100 100 100 100 92 99 100 100 100 100 92 96 78
100 9 5 5 5 100 92 100 97 0 3 0 9 56 36 88 5 1 0 0 0 3 50 66 5 84 34 100 100 100 100 100 100 100 100 100 99 100 100 100 100 100 96 100 100
51 5 6 5 5 76 100 98 5 6 0 92 100 2 4 5 9 5 4 6 55 12 18 60 53 100 45 88 100 100 100 83 100 100 100 100 100 100 100 100 100 100 82 100 100
42 88 5 90 36 49 93 90 69 1 78 54 100 100 100 93 0 60 63 36 62 100 99 96 24 84 100 100 100 100 100 100 98 100 100 100 100 100 100 100 100 100 78 100 100
62 57 1 1 84 64 90 16 21 2 100 100 99 23 85 100 99 99 96 24 100 94 33 99 59 99 100 100 100 100 100 100 100 100 100 100 100 100 100 100 100 100 81 99 100
85 67 50 11 89 56 41 5 19 11 63 91 100 70 100 100 100 100 97 100 96 57 73 83 99 100 100 100 100 100 100 100 100 100 100 100 100 100 100 100 100 100 87 100 96
75 57 88 100 76 72 63 51 41 63 99 93 100 75 100 100 100 100 76 86 94 100 33 100 100 100 100 100 100 100 100 100 100 100 72 100 100 100 100 100 100 100 99 100 39
85 100 100 99 86 86 100 91 89 25 100 60 66 4 86 100 31 91 98 100 61 100 97 100 100 100 100 100 100 100 100 96 100 100 100 100 100 100 100 100 100 100 100 100 99
100 100 100 99 80 79 99 85 100 81 100 100 100 49 5 11 31 48 100 100 100 100 100 100 100 100 100 100 100 100 100 100 100 100 100 100 100 100 100 100 100 100 100 100 100
100 100 100 100 100 96 32 71 100 100 98 100 100 100 95 100 86 100 100 100 100 100 100 100 100 100 100 100 100 100 100 100 100 100 97 97 98 100 100 100 100 100 100 100 100
100 100 100 100 100 100 69 66 100 98 45 98 100 100 22 48 59 90 98 90 98 100 100 100 100 100 100 100 98 100 100 100 100 100 100 100 100 100 100 100 100 100 100 100 99

GFSSW_prec_cloud_093.txt.gz
Cloud_Cover
66 9 5 21 37 78 100 100 100 100 100 100 98 91 100 100 86 100 100 93 100 94 100 70 70 17 83 8 5 0 0 3 0 1 4 0 5 4 0 0 3 0 0 1 1
92 74 74 46 53 89 100 94 100 100 100 100 95 68 86 95 85 84 100 100 100 100 100 30 1 4 88 99 8 5 0 5 2 4 22 4 5 0 0 0 13 0 0 0 0
90 14 99 100 100 100 100 100 100 100 100 100 81 100 19 100 97 100 100 100 100 100 100 99 17 5 100 100 85 3 0 76 2 5 11 8 5 2 0 0 0 1 2 4 4
22 5 29 48 11 6 48 56 100 90 90 100 100 100 100 99 100 100 100 100 100 95 100 38 81 100 100 100 98 5 6 2 5 4 9 5 5 4 0 0 5 5 16 4 0
100 100 100 39 68 16 50 23 34 39 92 100 100 100 100 100 100 100 100 100 94 91 95 53 12 100 100 100 100 62 7 0 5 29 38 5 5 5 4 80 28 2 90 5 3
100 100 100 100 100 100 59 5 15 53 99 100 86 100 100 100 100 100 100 100 100 100 100 100 100 100 100 100 99 74 1 2 5 21 5 5 2 5 42 35 19 79 83 85 100
100 100 100 100 97 68 28 100 99 100 100 100 98 96 100 100 100 100 100 100 100 100 100 100 100 100 80 100 97 18 3 5 46 76 2 5 5 2 5 5 3 100 100 100 100
100 100 100 100 100 100 100 91 52 90 97 100 98 57 96 100 100 100 100 100 100 100 100 98 100 100 100 100 100 100 5 11 100 5 7 41 55 1 5 5 5 100 100 100 100
100 100 100 100 100 100 82 100 75 100 100 100 100 99 83 99 100 100 99 100 100 100 100 100 100 100 100 100 98 49 56 5 4 3 3 96 2 3 4 8 1 100 100 100 100
100 100 100 100 100 100 60 100 94 100 58 100 98 87 100 100 100 100 100 100 100 100 100 94 18 26 5 10 10 18 0 0 5 54 98 86 1 0 74 9 2 100 100 100 100
100 100 100 100 100 100 100 24 38 5 84 100 100 100 100 51 100 100 100 100 100 100 100 100 37 5 94 32 5 0 0 0 0 4 26 5 1 3 2 37 69 100 100 5 36
92 26 100 100 100 100 94 92 38 34 2 48 74 86 40 89 100 98 100 100 100 100 100 100 30 100 100 100 89 15 13 27 5 24 93 5 2 0 3 99 100 74 98 100 9
100 97 38 56 94 100 96 91 86 98 3 61 36 21 38 66 34 76 18 100 100 100 100 100 100 100 100 100 100 99 13 5 0 0 3 59 0 3 3 25 100 100 100 97 10
100 100 100 100 65 100 75 96 100 100 20 33 5 6 5 3 3 7 0 9 8 100 100 100 100 100 100 100 87 52 46 3 4 4 0 84 3 0 5 8 100 100 100 20 5
100 94 68 100 100 100 98 100 99 91 33 24 41 76 5 8 5 4 2 0 43 96 98 100 100 100 48 18 72 6 2 9 5 29 4 7 65 4 12 10 100 100 100 51 96
100 88 5 0 30 100 100 98 90 100 77 98 100 99 5 62 100 72 99 91 85 57 50 37 100 99 17 17 5 4 20 59 5 6 5 36 78 5 80 82 100 100 100 33 72
100 100 29 1 0 84 100 71 59 92 100 100 12 56 2 47 99 42 69 19 50 98 21 23 5 10 9 0 0 0 66 77 44 44 4 100 78 5 100 100 100 100 100 82 100
100 100 6 0 1 100 100 100 99 2 9 100 71 40 96 100 100 100 78 63 67 5 21 5 5 5 5 0 0 76 98 38 75 33 100 100 77 100 100 100 100 100 58 93 100
98 40 5 0 0 78 100 100 45 2 92 6 2 4 99 100 97 99 100 81 15 0 0 2 2 0 2 54 1 12 5 49 100 99 100 100 100 100 100 100 100 100 100 100 100
52 95 3 0 18 12 97 80 5 3 27 38 34 40 6 2 39 100 33 13 11 30 5 1 0 1 5 88 46 24 92 100 100 100 100 100 100 100 100 100 100 100 100 100 100
91 42 43 3 25 84 100 67 2 1 69 86 96 99 100 74 15 100 67 14 4 75 98 70 48 82 7 51 100 94 100 100 100 100 100 100 100 100 100 100 100 100 100 100 100
41 28 4 27 94 90 64 5 2 0 6 98 100 100 100 100 65 100 58 100 40 100 99 80 100 100 81 98 59 100 81 100 100 100 100 100 100 100 100 100 100 81 100 100 100
67 5 68 100 52 22 5 3 3 1 4 67 96 98 100 100 87 100 100 100 100 100 100 100 100 100 100 98 100 99 100 100 100 100 100 100 100 100 100 100 100 100 100 100 100
59 65 3 56 100 97 89 22 5 5 5 12 33 99 94 97 100 100 100 100 86 90 100 100 17 81 100 100 100 100 100 100 100 100 100 100 100 100 100 100 100 100 100 99 100
87 46 93 100 100 100 100 32 84 99 30 89 80 100 100 100 100 100 100 100 98 6 100 100 98 100 100 100 100 100 100 100 100 100 100 100 100 100 100 100 100 100 100 100 90
100 100 98 100 100 100 63 72 5 5 100 19 84 100 95 100 100 100 100 90 5 5 100 100 100 100 100 100 100 100 100 100 100 100 100 100 100 100 100 100 100 100 100 100 100
100 100 100 100 100 100 100 94 88 7 76 96 76 32 39 46 100 98 100 26 3 4 79 100 100 100 100 100 100 100 100 100 100 100 100 100 100 100 100 100 100 100 100 100 99

GFSSW_prec_cloud_096.txt.gz
Cloud_Cover
0 3 5 24 100 99 100 100 100 100 100 99 97 60 100 92 100 100 100 100 100 100 100 5 5 13 52 100 100 43 10 0 5 0 5 0 2 1 4 4 39 0 0 0 0
30 2 3 10 99 60 46 100 99 53 100 86 82 75 96 100 100 100 100 87 59 71 39 81 91 5 5 98 100 100 43 2 5 5 5 1 65 1 2 20 6 2 0 0 0
100 78 5 2 5 98 71 75 83 26 75 83 100 100 50 75 100 100 69 57 44 51 100 95 100 33 20 98 100 63 8 2 98 88 5 57 100 2 15 43 5 5 0 0 0
100 100 100 16 7 33 66 13 5 5 13 46 14 41 58 98 100 100 88 23 88 97 98 96 76 75 100 38 63 1 0 92 100 84 3 81 34 8 5 6 5 5 0 0 14
100 100 91 100 100 90 94 100 96 90 55 3 4 2 3 8 100 37 100 100 100 76 100 96 34 22 12 5 4 0 68 63 100 100 23 94 64 5 5 4 5 3 0 0 4
100 100 100 100 100 100 100 100 100 100 58 98 54 69 15 6 4 6 28 100 100 100 100 100 100 100 28 100 45 76 100 97 47 100 100 96 9 0 39 6 35 5 4 1 0
100 100 99 100 100 100 100 100 100 100 100 100 86 70 100 100 64 5 5 9 100 100 100 100 100 100 100 100 100 100 100 100 100 100 100 100 0 2 5 0 74 12 4 1 0
87 100 100 100 99 100 100 100 100 99 100 100 100 100 92 100 78 5 17 99 94 100 100 100 100 100 100 100 100 100 33 86 100 100 100 66 26 12 4 5 9 5 20 2 4
27 100 100 100 100 100 100 100 100 100 100 100 97 100 100 86 41 99 49 100 29 76 98 100 95 58 97 99 100 100 100 100 100 100 100 9 4 5 5 4 8 5 5 2 0
94 100 98 9 78 100 100 100 100 100 99 100 100 100 100 100 100 78 64 100 100 97 62 93 100 54 20 58 95 99 100 100 100 100 8 0 2 0 5 5 5 5 0 0 2
100 100 100 100 12 5 36 100 100 100 82 100 100 100 100 100 100 100 100 12 68 100 100 94 6 15 100 100 80 5 5 5 5 5 3 0 0 0 5 2 5 5 0 0 63
100 100 100 100 47 78 65 100 100 100 100 100 100 100 100 100 98 100 4 5 7 74 69 85 100 100 100 100 65 71 5 16 75 99 58 2 4 0 75 16 56 5 0 4 38
100 100 100 100 100 44 64 98 100 98 100 100 100 100 100 100 100 100 2 5 4 16 54 98 28 99 97 95 99 100 83 66 42 100 35 11 0 80 92 73 50 24 5 2 57
100 100 100 89 14 91 97 100 100 82 56 100 97 98 100 100 100 100 5 6 0 6 10 6 95 100 100 100 100 100 100 99 99 100 52 9 0 44 92 100 62 24 7 73 99
100 100 100 75 0 65 95 100 96 49 5 22 74 100 90 76 6 98 6 5 5 5 3 22 5 37 5 14 24 96 57 35 97 99 27 2 1 67 65 26 2 1 2 100 100
86 100 100 39 0 98 100 100 95 100 78 25 100 55 68 52 75 64 44 7 5 2 2 1 1 4 5 40 100 100 100 88 92 85 3 1 2 1 84 0 0 0 72 100 78
8 100 86 8 0 100 91 13 44 97 100 98 31 47 93 18 100 100 100 100 68 6 4 3 0 5 5 5 36 50 92 100 88 84 4 3 0 0 1 0 2 0 32 100 100
97 99 24 5 0 10 97 95 98 2 31 98 42 9 12 100 99 100 100 100 96 97 88 11 4 4 3 0 6 7 3 0 5 3 4 4 1 0 21 20 36 87 100 100 100
97 73 6 5 0 9 100 100 86 4 6 5 0 5 10 55 100 100 100 100 100 100 100 100 75 53 96 35 5 5 0 1 1 0 5 0 0 2 3 97 83 100 100 100 100
61 5 2 0 5 61 100 98 63 26 0 0 7 26 83 97 87 91 100 84 100 100 100 82 100 100 100 100 59 34 7 32 28 0 11 6 0 100 83 100 100 100 100 100 100
98 9 23 1 5 90 97 53 5 0 0 5 14 23 17 87 100 100 100 29 82 16 10 32 100 100 100 37 3 23 5 76 55 64 21 47 53 100 100 100 100 100 100 100 100
74 38 87 47 27 72 19 3 2 1 5 40 5 5 30 100 85 79 100 77 97 56 83 6 30 31 47 89 60 7 92 92 95 6 63 100 100 100 100 100 100 100 100 100 72
71 16 4 100 98 92 30 15 19 5 0 2 17 55 94 100 100 100 95 55 77 79 100 100 77 86 100 100 94 100 32 26 22 57 97 100 100 100 100 100 100 100 100 100 100
100 82 36 98 100 82 42 100 93 18 3 4 5 72 100 100 100 100 93 100 100 100 100 100 100 100 100 72 48 100 100 73 19 14 100 100 100 100 100 100 100 100 100 100 100
98 22 6 99 100 96 100 100 63 98 93 99 6 52 100 100 100 100 100 100 100 100 100 100 100 100 100 6 87 100 100 99 96 91 100 100 100 100 100 100 100 100 100 100 100
63 78 5 6 100 100 100 100 78 99 48 100 97 100 100 60 98 100 100 100 100 100 100 100 100 100 100 100 100 100 100 100 100 100 100 100 100 100 100 100 100 100 100 100 100
76 9 100 100 100 100 98 92 80 85 6 99 59 100 99 98 100 100 100 100 100 100 100 100 100 100 100 82 100 100 100 100 93 100 100 100 100 100 100 100 100 100 100 100 100

GFSSW_prec_cloud_099.txt.gz
Cloud_Cover
2 5 5 20 3 44 23 76 100 100 100 100 100 100 100 100 100 100 100 100 59 14 31 100 98 95 20 28 2 0 2 62 100 100 99 16 0 0 0 13 97 12 2 4 4
0 0 3 3 5 4 5 100 31 74 100 100 100 100 100 100 100 100 100 100 100 100 100 100 100 83 83 15 2 0 0 4 66 98 100 93 0 0 0 0 96 5 28 26 5
2 0 0 0 5 5 5 22 100 37 3 55 100 100 100 100 100 100 100 100 70 70 100 100 50 5 7 5 38 71 1 13 15 86 72 63 0 0 0 0 8 6 95 70 20
4 0 0 0 0 4 2 22 72 100 8 8 5 22 80 29 100 96 95 100 100 99 100 88 46 5 2 7 13 5 5 5 92 25 0 4 5 1 0 9 8 33 99 100 8
5 5 2 0 1 2 5 5 8 83 100 54 71 18 11 77 100 20 92 100 95 98 92 58 35 6 13 9 1 4 2 1 3 4 1 4 78 6 6 100 1 6 98 99 54
5 5 5 5 5 4 5 5 100 29 17 100 95 100 100 74 100 99 98 81 84 66 99 7 99 99 14 68 31 44 5 1 0 6 87 89 34 4 100 12 3 26 100 93 51
23 5 5 5 5 5 67 57 100 99 87 87 100 57 100 100 100 100 100 100 100 98 82 80 86 6 100 100 100 97 60 84 54 83 100 93 0 43 100 5 3 5 5 6 8
39 82 5 5 5 5 38 55 100 82 34 100 98 98 40 100 100 100 100 100 100 75 48 59 74 7 4 75 100 100 100 100 100 100 100 73 0 100 94 100 91 16 5 13 20
58 79 75 44 32 9 6 39 35 100 100 56 86 94 88 100 98 90 100 100 100 100 100 83 44 19 5 5 5 38 100 100 100 100 100 35 1 100 100 35 14 5 5 5 5
100 100 100 100 100 72 5 33 5 82 62 100 92 66 99 100 100 100 100 100 100 100 100 100 27 5 3 12 44 100 78 34 6 70 97 91 63 100 100 93 43 4 1 9 95
97 100 100 90 100 100 100 100 2 5 94 100 100 100 100 100 100 100 100 100 100 100 100 100 84 6 7 73 14 7 6 4 3 13 5 0 0 0 5 72 53 5 5 98 97
3 5 83 83 98 100 5 63 100 100 74 100 27 99 100 100 100 100 100 100 100 100 100 100 100 93 95 54 1 3 5 7 96 100 51 0 0 0 2 26 88 13 50 100 86
5 6 79 99 86 81 0 18 100 100 100 75 16 66 100 100 100 100 100 100 100 100 100 100 100 93 42 5 0 0 6 71 100 100 34 6 0 0 5 7 98 85 76 81 71
1 5 18 80 100 59 2 100 100 100 97 100 90 98 87 100 100 100 100 100 88 100 100 100 100 100 76 5 4 0 5 28 98 44 90 19 0 5 53 100 97 100 56 54 16
5 19 100 98 100 14 34 100 97 98 2 0 92 87 25 100 100 100 100 100 100 100 97 38 100 90 95 98 7 23 1 5 5 100 88 93 43 82 100 100 100 57 51 46 6
5 12 100 100 49 4 57 100 100 82 31 0 1 100 100 100 100 100 100 100 100 100 100 67 100 100 73 31 5 2 1 0 42 27 5 100 76 98 94 65 8 5 11 81 40
4 5 38 100 92 10 64 100 100 86 0 0 2 79 100 100 99 51 100 100 100 100 100 100 100 100 88 7 23 5 5 6 2 0 2 6 2 5 10 90 4 4 5 5 4
14 5 5 58 100 5 100 100 97 74 32 5 5 5 100 100 99 19 92 100 100 100 100 54 90 86 86 18 99 39 16 5 5 3 4 0 0 4 6 4 2 0 13 4 0
4 14 54 97 96 2 93 100 49 100 97 5 3 79 5 17 99 100 100 63 85 99 100 100 69 88 64 96 100 95 8 54 54 1 4 2 1 4 2 0 0 0 5 11 0
7 74 12 5 5 14 100 59 96 100 69 30 100 68 5 8 10 70 89 100 100 61 98 91 61 100 57 67 75 98 100 42 24 5 34 4 5 5 4 0 0 1 30 41 94
5 26 73 5 12 85 62 23 5 100 35 36 3 4 5 96 57 14 90 82 100 100 100 100 100 100 100 100 71 94 100 99 95 32 60 4 5 5 0 0 0 98 100 100 100
45 40 68 89 73 72 42 2 4 0 7 4 0 3 71 90 91 49 98 99 95 100 69 92 92 100 100 100 100 100 100 100 100 66 33 25 1 3 4 24 100 100 100 100 100
84 81 3 27 98 95 38 5 10 4 5 5 34 19 5 18 58 96 98 87 99 100 98 81 46 75 32 6 35 98 84 8 5 14 10 45 5 44 70 99 97 100 100 100 100
90 94 64 22 100 88 60 54 4 4 41 50 4 5 5 9 64 99 32 56 98 93 88 97 40 94 83 29 3 99 93 36 86 86 5 5 63 96 100 86 100 100 100 100 100
100 53 6 96 100 100 85 93 99 91 52 65 4 4 34 27 100 40 5 95 100 99 99 97 69 100 100 68 95 100 98 100 100 100 62 97 100 100 100 100 100 100 100 100 100
89 71 5 5 94 100 83 100 100 100 100 91 26 80 54 98 100 100 100 100 100 100 100 100 100 100 100 100 100 95 25 43 100 100 100 100 100 100 100 100 100 100 100 100 100
96 11 14 5 25 95 94 100 99 100 95 80 58 61 100 100 100 100 84 100 100 100 100 100 100 100 100 97 93 58 29 99 100 77 100 100 100 100 100 100 100 100 100 100 100

GFSSW_prec_cloud_102.txt.gz
Cloud_Cover
2 4 0 0 0 0 0 0 0 0 4 67 95 14 98 100 100 100 100 100 100 100 100 92 21 20 8 2 4 2 1 67 97 25 4 0 0 0 29 2 0 5 5 0 0
3 3 4 2 0 0 0 0 0 0 0 2 19 33 87 100 100 100 100 100 100 100 97 100 92 93 35 62 16 73 32 96 18 5 2 0 0 0 1 1 0 3 0 0 0
5 5 4 0 1 0 0 0 0 0 0 0 0 1 30 78 98 100 100 100 100 100 100 100 100 100 64 87 82 46 7 22 53 5 4 12 4 0 3 5 0 3 0 0 0
40 26 7 5 4 0 0 0 1 0 0 0 0 0 5 6 83 100 46 98 100 100 100 100 100 100 100 100 93 50 100 92 74 12 74 54 8 0 0 0 2 0 0 0 0
6 42 9 5 5 4 1 0 0 2 1 0 0 0 69 13 58 93 58 64 100 79 75 74 80 100 100 100 65 97 100 83 53 5 5 5 3 5 0 0 6 0 0 5 5
9 11 5 5 5 5 5 3 2 0 3 5 3 3 96 77 87 26 47 84 61 61 83 49 89 47 30 100 72 26 33 28 31 71 28 8 47 0 0 0 0 0 0 5 5
5 5 2 5 5 5 2 0 0 0 0 0 5 42 100 100 100 91 65 100 100 100 98 88 58 19 18 14 5 20 12 42 42 32 94 95 0 0 38 72 0 0 0 0 6
5 5 5 5 5 5 5 5 5 0 0 0 5 62 45 100 100 100 100 84 100 100 100 100 100 25 100 100 83 5 5 5 38 100 100 84 1 83 100 42 1 0 2 12 47
5 5 4 30 92 100 81 100 65 68 17 9 84 86 32 100 100 100 100 100 100 100 100 100 25 31 42 100 76 39 24 97 38 4 58 66 95 100 100 100 100 41 34 99 24
6 16 67 100 28 5 16 4 57 92 88 98 61 50 61 100 100 100 100 100 100 100 100 99 100 42 95 12 32 100 100 83 25 7 4 0 7 22 44 99 7 23 100 100 99
100 100 100 100 34 4 5 5 4 44 100 65 100 100 78 100 100 100 100 100 100 100 100 100 100 16 97 100 100 100 6 0 0 1 2 10 3 0 0 5 5 5 12 13 6
95 56 0 0 4 4 8 16 43 100 98 4 4 96 100 40 9 100 100 100 100 100 100 100 44 98 100 100 100 99 34 14 5 16 3 1 4 0 0 14 16 4 10 18 15
5 4 2 2 5 5 19 69 45 100 100 6 0 1 100 97 78 100 100 100 100 100 100 100 100 100 100 100 100 92 100 92 41 36 5 0 4 0 0 5 92 100 93 97 1
0 0 1 5 9 6 90 71 51 100 100 2 0 0 9 100 62 100 76 100 100 100 100 100 100 100 100 100 100 100 100 100 100 3 0 0 0 0 2 55 100 100 100 21 5
0 0 0 4 61 95 93 6 100 100 64 0 0 0 0 5 100 100 95 100 100 100 100 100 100 100 100 100 100 100 100 94 100 19 1 0 0 4 26 100 100 100 53 5 2
0 0 0 0 89 74 11 32 100 100 30 47 58 4 0 0 63 100 100 99 100 100 100 100 100 100 100 100 100 100 100 100 68 18 4 6 2 0 3 46 100 45 36 100 100
0 0 1 5 78 97 85 88 100 100 0 98 100 100 15 4 11 100 100 100 100 100 100 100 100 100 100 100 100 100 100 92 38 5 5 81 4 9 7 79 6 56 100 100 99
0 0 0 5 16 5 5 100 100 94 84 100 100 100 100 41 13 92 100 100 100 100 100 100 100 100 100 100 100 100 100 100 94 92 92 96 5 5 79 5 5 26 95 94 16
3 0 0 3 5 4 28 98 100 100 96 81 100 100 100 94 8 92 100 100 100 100 100 100 100 100 100 100 100 100 100 100 100 100 88 6 0 5 100 5 5 0 0 0 0
48 61 2 5 5 6 5 21 72 100 100 100 10 34 100 99 76 95 100 100 100 100 100 100 100 100 100 100 100 100 100 100 100 94 8 4 5 3 53 4 0 0 0 0 0
51 5 5 5 21 30 57 18 72 100 100 93 58 76 56 100 100 100 100 100 100 100 100 100 100 100 100 100 100 100 100 100 82 12 5 3 5 5 5 5 3 4 2 0 16
55 45 5 70 94 63 71 1 6 68 68 5 59 100 100 81 100 100 100 97 99 84 100 100 100 100 100 100 100 100 100 96 6 98 51 7 5 5 5 5 4 0 5 5 86
37 46 5 5 73 91 83 5 18 20 19 8 18 97 99 100 100 91 100 55 95 17 86 100 100 100 100 100 100 68 72 100 100 100 100 64 10 6 5 4 0 2 5 54 100
46 52 17 83 85 97 75 100 83 41 88 88 18 5 5 8 45 68 86 17 73 100 100 88 54 6 37 79 54 72 100 89 70 94 100 57 4 5 4 0 2 80 68 100 100
85 49 7 87 100 100 93 95 100 100 74 96 99 96 77 5 5 5 5 5 76 100 93 97 90 83 5 7 5 25 86 1 4 5 4 24 10 5 5 5 20 96 100 100 100
97 80 20 6 21 100 67 78 98 100 100 82 42 32 16 52 6 5 76 64 92 64 100 84 100 100 95 10 100 19 100 66 100 23 100 100 90 65 94 78 100 100 100 100 100
98 100 36 5 6 42 69 85 100 100 82 86 61 22 6 16 49 44 100 100 83 98 100 100 100 100 90 9 62 41 97 98 100 74 7 99 100 100 100 100 100 100 100 100 100

GFSSW_prec_cloud_105.txt.gz
Cloud_Cover
7 13 5 51 19 75 20 5 0 0 2 5 0 0 4 6 73 99 100 100 100 100 100 100 100 90 98 47 97 44 28 49 100 5 0 0 0 0 0 0 5 5 1 0 0
8 1 0 5 6 5 5 4 3 4 2 0 1 4 5 2 7 10 52 84 100 100 100 100 100 100 100 100 100 100 86 100 100 5 0 0 9 0 0 1 39 5 5 0 0
6 60 14 8 28 24 2 5 2 2 5 5 0 0 3 2 5 32 2 29 85 60 15 100 100 100 100 100 100 100 100 98 100 13 5 5 5 0 5 5 2 0 0 0 0
20 29 9 19 44 21 89 11 5 5 1 4 0 0 0 0 4 5 39 91 10 20 26 7 100 100 100 100 100 100 100 100 100 100 72 98 7 4 4 2 5 0 0 0 0
91 72 6 71 7 19 23 5 11 5 4 5 0 0 19 9 49 32 5 5 77 64 85 95 5 27 100 100 98 93 100 100 100 100 100 100 100 100 22 11 2 0 0 0 0
46 62 39 7 8 5 5 5 5 5 3 0 0 2 44 29 54 5 5 78 84 100 100 85 50 39 14 11 96 100 100 100 100 100 100 100 100 99 100 59 0 0 0 0 0
21 5 5 5 14 22 23 7 5 2 1 0 0 40 96 19 0 1 18 13 100 100 100 100 100 43 25 5 6 25 88 100 100 100 100 100 100 100 49 22 5 0 0 0 0
5 3 5 5 5 5 18 6 5 3 0 0 0 79 39 0 0 1 33 43 41 94 100 100 100 98 6 72 5 5 5 10 100 100 100 95 82 5 9 26 5 0 0 0 0
5 5 8 5 6 5 0 0 0 0 0 1 89 97 8 9 6 0 5 29 100 100 100 100 100 87 44 5 83 60 33 100 100 100 100 69 21 5 4 2 0 0 9 64 100
5 5 8 5 0 0 0 0 0 0 18 77 99 72 10 100 100 96 2 3 91 100 100 100 100 99 99 90 11 81 100 100 100 62 5 0 0 5 5 0 0 0 4 5 13
22 5 5 0 0 0 0 0 4 4 7 100 100 54 0 10 100 100 97 5 12 100 100 100 100 87 100 100 100 100 100 100 100 15 4 5 5 5 4 3 5 5 5 4 7
5 5 1 0 0 0 0 5 100 100 100 4 48 67 10 0 40 100 100 100 13 76 100 100 100 100 100 100 100 100 99 16 68 69 35 2 1 1 1 4 5 6 9 23 7
4 0 0 0 0 0 3 29 38 50 100 2 1 4 0 0 0 4 100 100 100 93 100 100 100 100 100 100 100 100 100 100 100 100 38 1 5 4 5 5 76 81 87 43 6
0 0 0 0 0 0 5 50 12 73 100 30 3 4 0 0 0 0 15 100 100 100 100 100 100 100 100 100 100 100 100 100 100 100 20 5 4 5 10 5 9 56 100 22 5
0 0 0 0 4 6 5 5 11 95 99 100 85 80 5 0 0 0 0 35 99 100 100 100 100 100 100 100 100 100 100 100 100 84 28 30 8 27 82 79 54 5 5 5 5
0 0 0 3 14 4 5 0 78 100 100 83 100 100 100 1 2 0 0 5 100 100 100 100 100 100 100 100 100 100 100 100 100 100 100 44 5 36 5 99 100 81 5 5 26
0 0 0 0 4 5 3 3 100 98 82 100 100 100 100 100 70 8 3 81 100 100 79 100 100 100 100 100 100 100 100 100 100 85 72 100 100 78 92 100 100 87 5 4 4
0 0 0 0 5 0 2 100 93 100 100 65 100 100 100 91 100 100 61 100 99 95 96 56 100 100 100 100 100 100 100 98 100 82 89 100 100 100 54 76 94 8 21 9 5
0 0 0 0 4 5 4 5 78 98 79 7 100 100 100 100 99 92 97 100 100 80 100 100 100 100 100 100 100 100 100 100 100 100 95 100 100 100 69 89 85 91 100 90 5
0 0 3 0 5 4 5 12 22 65 5 38 48 100 100 100 100 100 100 100 100 100 100 100 100 100 100 100 100 100 100 100 100 100 100 100 100 100 100 100 100 73 42 0 3
0 4 3 5 5 5 8 5 5 59 6 3 5 78 100 100 100 100 100 100 100 100 100 100 100 100 100 100 100 100 100 100 100 100 100 82 84 81 82 100 100 51 4 0 0
5 5 0 0 6 39 20 7 5 5 2 4 18 98 94 100 100 100 100 100 100 100 100 100 100 100 100 100 100 100 100 100 100 100 97 96 100 100 100 100 7 0 0 0 1
12 5 5 5 16 62 5 78 51 5 16 33 40 75 100 100 100 100 100 100 100 100 100 100 100 100 100 100 100 100 100 91 100 18 28 88 100 94 25 5 1 2 0 13 5
9 10 4 82 97 85 80 70 33 34 97 61 100 59 100 100 100 100 100 100 100 100 100 100 98 100 100 97 100 100 100 83 84 64 78 9 10 5 5 3 4 5 6 3 39
40 47 7 11 75 22 12 7 79 82 86 91 58 73 97 78 97 100 100 81 100 100 100 100 95 47 44 100 100 100 100 100 100 100 100 100 28 5 5 18 82 75 96 100 97
36 66 48 27 5 5 7 22 95 99 66 51 25 5 90 99 100 97 84 13 92 100 100 100 100 100 57 5 43 97 76 99 97 59 68 5 5 5 38 99 96 100 100 100 100
28 12 44 36 5 5 5 5 12 21 61 60 92 96 61 15 5 5 37 91 100 99 100 100 89 80 100 83 39 10 10 44 19 4 4 55 48 78 80 100 100 100 100 100 100

GFSSW_prec_cloud_108.txt.gz
Cloud_Cover
5 85 88 5 15 91 24 5 4 0 2 5 5 54 7 1 2 5 6 2 1 59 99 58 64 100 94 80 66 22 5 22 100 100 5 0 0 0 0 0 5 5 2 0 0
4 5 8 5 5 15 74 26 89 7 5 5 3 5 32 57 5 5 5 2 5 3 21 94 93 61 100 100 88 100 100 100 100 100 18 2 0 4 0 0 5 6 97 11 5
89 100 100 100 100 100 27 5 5 4 5 4 3 0 4 5 18 25 15 5 5 26 3 6 66 96 71 100 100 100 100 100 100 100 93 100 66 19 5 5 2 2 8 89 5
5 10 18 5 35 90 89 37 8 5 5 6 5 5 3 5 36 100 30 5 85 3 18 5 3 6 98 82 100 100 100 100 100 100 100 100 99 61 33 5 3 1 0 5 5
100 100 100 81 80 19 8 5 9 50 6 5 5 5 5 4 72 38 1 5 3 5 4 4 3 5 23 96 100 98 100 100 100 100 100 100 100 100 100 100 100 5 9 10 5
100 87 30 26 53 73 70 22 6 5 5 5 0 13 5 5 85 3 36 5 3 2 55 5 5 11 13 15 73 43 57 100 100 100 100 100 100 100 100 100 100 92 100 100 65
100 100 100 99 8 5 5 9 15 5 5 2 0 4 3 9 26 5 2 0 2 5 5 100 93 43 3 5 93 100 98 97 100 100 100 100 100 100 100 100 100 100 86 53 79
10 6 4 2 0 2 3 0 5 1 0 0 1 15 18 2 7 1 2 3 0 0 2 6 100 37 11 5 5 98 40 100 75 66 100 100 100 100 100 100 100 5 5 5 5
91 4 4 1 1 0 0 0 0 0 0 0 17 75 2 0 0 0 0 0 0 0 0 5 10 91 59 42 47 5 5 31 99 45 100 100 100 100 98 39 11 5 5 4 4
34 25 5 5 4 5 0 0 0 0 14 21 76 98 4 0 0 0 0 0 0 2 1 5 5 6 93 33 12 36 41 26 44 100 100 100 100 35 72 76 6 20 72 6 3
5 56 5 4 4 4 2 1 1 1 5 2 0 3 0 0 11 1 0 0 67 100 92 8 51 2 8 100 100 100 91 31 97 100 100 100 100 95 8 100 76 5 5 5 5
5 4 5 1 0 0 11 5 60 69 89 0 0 4 3 0 5 1 88 19 14 100 100 100 40 38 100 100 100 100 100 16 100 56 100 100 100 5 5 30 8 7 5 13 16
5 5 6 5 0 12 8 5 18 98 31 0 1 1 7 5 1 68 100 78 1 86 100 100 100 100 100 100 100 100 100 100 100 100 93 100 100 80 31 9 5 27 66 7 40
7 8 5 4 13 5 5 2 17 91 51 3 97 100 100 61 35 0 15 100 82 1 100 100 100 100 89 30 100 98 100 100 100 100 100 65 92 100 78 53 71 5 7 61 9
5 5 5 0 4 4 2 5 24 97 9 19 100 100 100 95 49 0 18 93 74 9 5 96 100 100 100 100 100 99 100 100 100 82 100 54 72 98 100 100 100 68 7 30 22
5 5 4 3 4 1 1 7 87 70 100 81 100 100 100 62 74 29 0 0 4 100 34 53 100 100 100 100 100 100 100 100 100 100 100 100 100 100 100 100 100 55 51 6 22
5 5 0 0 4 0 0 20 70 48 39 93 100 100 100 99 76 100 4 0 0 4 89 89 100 100 100 100 100 100 100 100 100 100 98 100 100 100 100 100 100 100 99 5 5
5 0 0 0 0 2 2 40 5 62 100 62 100 100 100 100 100 93 85 22 4 32 100 100 88 100 100 100 100 100 100 100 100 100 100 100 100 100 100 100 100 100 100 68 5
5 2 3 0 0 1 5 4 9 98 73 100 100 100 100 100 100 100 84 100 91 100 100 100 100 93 100 100 100 100 100 100 100 100 100 98 100 100 100 100 100 100 100 100 100
4 5 4 0 2 4 3 1 4 40 5 78 100 100 100 100 100 100 98 100 100 100 100 100 100 100 100 100 100 100 100 100 100 100 100 100 100 100 100 100 100 100 100 100 100
5 5 2 0 11 11 2 0 0 0 29 100 100 100 100 100 100 100 100 100 97 100 100 100 100 100 100 100 100 100 100 100 100 100 100 100 100 100 100 100 100 100 100 81 100
5 5 0 0 72 63 62 5 6 5 53 100 100 100 100 100 100 100 100 100 100 100 100 100 100 100 100 100 100 100 100 100 100 100 100 100 100 100 100 98 55 100 90 100 82
5 5 3 24 49 35 82 91 46 15 74 81 98 98 100 100 99 97 100 100 100 100 100 100 100 100 100 100 100 100 100 100 100 100 100 100 100 96 100 100 66 33 86 99 100
15 5 5 84 23 68 68 94 89 70 72 92 76 88 84 98 100 95 100 100 100 100 100 100 100 100 100 100 94 100 100 100 100 100 100 82 85 100 100 100 83 68 98 100 100
15 6 4 17 63 5 9 33 98 69 32 86 96 98 88 100 96 100 92 100 100 100 100 100 100 100 100 79 93 100 100 100 100 100 100 100 100 50 81 38 98 100 100 100 100
88 33 6 5 5 5 3 60 23 62 5 36 100 68 42 96 91 86 90 82 100 100 100 100 100 100 100 100 100 100 100 100 100 100 100 99 100 64 100 100 100 100 100 87 99
22 18 44 26 5 10 4 5 58 5 4 9 41 5 5 51 5 5 5 47 45 82 100 98 96 100 100 100 100 81 98 100 100 100 90 67 82 100 100 100 100 100 96 100 100

GFSSW_prec_cloud_111.txt.gz
Cloud_Cover
100 100 100 100 11 17 56 67 98 12 100 25 58 100 100 100 94 69 90 44 6 5 5 5 5 1 0 20 82 17 5 82 100 67 100 16 0 0 0 5 0 1 1 2 1
99 100 100 58 82 83 77 61 100 20 52 100 100 100 97 100 97 76 98 88 5 5 5 18 5 4 3 9 59 86 42 99 100 100 50 49 0 0 0 5 0 4 5 5 5
100 100 99 51 70 61 20 5 39 58 35 66 81 64 53 5 89 47 57 5 5 80 22 5 5 5 28 18 0 46 89 99 100 88 98 85 5 7 4 8 5 60 80 100 11
100 91 81 48 87 100 100 100 90 16 13 26 5 25 13 31 100 88 95 10 5 5 5 1 2 1 18 37 15 0 33 99 100 100 100 100 20 5 4 20 64 100 98 97 18
100 100 100 100 100 100 100 100 100 98 98 100 99 5 3 5 99 31 4 5 18 8 28 39 5 2 8 37 17 6 5 4 96 100 100 100 100 100 63 26 77 100 72 90 20
100 100 100 100 100 89 97 100 100 100 100 100 100 62 11 32 38 20 4 0 6 3 6 8 4 0 0 83 4 7 5 0 3 93 100 100 100 100 100 100 100 100 100 100 100
100 100 100 100 100 94 89 58 100 100 82 100 100 97 1 0 0 15 5 3 0 3 5 7 3 0 0 4 45 2 33 20 5 2 97 100 100 100 100 100 100 100 100 100 100
100 100 100 100 100 100 5 19 5 8 6 0 0 0 5 0 0 0 0 2 2 0 0 0 0 0 0 2 7 6 5 5 82 5 6 100 100 100 100 100 100 100 100 100 100
100 100 100 100 100 100 100 12 4 1 0 2 5 46 1 0 0 2 0 0 0 0 0 0 0 0 0 4 5 5 3 0 12 39 95 81 100 100 100 100 100 100 100 100 100
100 99 43 85 39 13 0 0 0 0 4 0 5 3 0 0 0 3 1 62 14 0 0 0 3 4 0 0 1 4 60 69 37 94 100 7 92 100 100 100 100 91 96 100 100
46 33 0 0 38 5 25 28 5 0 2 0 0 0 0 0 0 0 0 75 100 6 0 0 0 0 0 0 0 34 100 100 100 100 100 73 41 100 100 100 100 95 5 11 5
7 11 99 100 16 5 4 5 4 37 68 0 0 6 56 77 22 4 0 100 100 94 8 0 0 0 0 0 0 93 100 30 62 100 100 100 83 100 100 100 98 5 88 52 71
100 100 19 39 5 12 8 5 8 76 24 0 1 1 3 8 40 2 65 100 100 100 100 0 0 1 5 5 5 6 49 23 100 100 99 84 11 100 100 99 98 100 100 100 100
100 36 72 68 23 1 5 5 13 95 16 51 12 14 72 72 48 10 5 99 100 100 100 26 0 0 48 100 100 100 42 100 100 100 77 100 82 100 100 100 100 74 100 100 100
100 56 6 5 5 5 3 5 18 63 6 4 2 0 58 76 13 100 1 5 71 100 100 100 100 11 5 100 100 100 100 100 100 100 100 100 70 100 100 100 100 100 98 100 100
22 5 10 6 49 6 5 5 44 86 91 2 3 4 94 100 35 100 5 2 6 65 100 100 73 89 82 100 100 100 100 100 100 100 100 78 100 75 100 100 100 100 97 100 100
39 89 4 5 5 5 4 11 40 56 24 13 45 24 98 75 97 100 2 4 100 100 100 100 100 96 100 100 100 100 100 100 100 100 7 93 98 100 100 100 100 100 100 100 98
100 36 5 5 5 5 5 44 21 15 95 4 4 92 98 100 100 100 22 0 0 4 100 94 100 100 39 100 100 100 100 100 100 100 79 100 97 100 100 100 100 100 100 100 100
72 44 62 2 4 5 5 17 36 62 6 4 8 100 100 100 100 100 100 89 66 87 94 100 100 97 100 100 100 100 100 100 100 100 100 100 100 100 100 100 100 100 100 100 100
58 10 5 5 4 3 4 1 0 3 0 5 47 86 100 100 100 100 100 91 90 45 88 94 100 88 100 100 100 100 100 100 100 100 100 100 100 100 100 100 100 100 100 100 100
92 26 5 0 4 9 10 4 1 5 4 31 59 100 100 100 100 100 100 100 97 100 100 100 92 74 100 92 100 100 100 100 100 100 100 100 100 100 100 100 100 100 100 100 100
40 56 3 3 69 38 42 5 2 23 5 99 96 100 100 100 100 100 100 100 100 100 100 100 100 100 100 99 100 100 100 100 100 100 100 100 100 100 100 100 100 100 100 100 100
24 5 4 3 63 5 21 26 30 85 68 87 93 100 98 100 100 100 100 100 100 100 100 80 100 100 100 100 100 100 100 100 100 100 100 100 100 100 100 100 100 100 100 100 100
21 40 20 20 5 13 42 57 99 79 76 99 98 100 100 97 95 100 100 100 100 100 100 100 100 100 100 100 100 100 100 100 100 100 100 100 100 100 100 100 100 100 88 100 100
51 20 3 85 73 5 6 20 98 92 5 88 99 100 100 100 100 100 100 100 100 100 100 100 100 100 100 100 100 100 100 100 100 100 100 100 100 100 91 100 100 100 100 100 100
90 95 72 97 5 5 35 69 57 100 6 6 92 73 33 100 100 92 87 100 100 100 100 100 100 100 100 100 100 100 100 100 100 100 100 100 100 22 100 100 100 100 100 100 100
87 52 89 52 99 87 53 13 67 56 5 33 73 71 7 38 5 5 5 10 55 100 100 100 100 100 100 100 98 88 100 91 100 100 100 100 100 100 100 77 100 100 100 100 78

GFSSW_prec_cloud_114.txt.gz
Cloud_Cover
42 41 29 80 100 100 100 100 100 100 100 100 100 99 16 98 67 35 93 100 100 100 100 67 34 60 44 76 22 18 0 0 0 28 100 100 100 4 4 1 5 4 88 0 0
100 100 100 100 100 100 100 100 100 100 75 100 100 78 44 67 100 100 100 100 100 100 98 100 100 49 5 16 52 43 2 5 1 2 25 100 100 94 27 5 5 3 14 2 0
100 100 100 100 100 100 100 100 100 100 99 15 5 5 5 6 6 9 64 48 67 6 6 20 5 12 5 5 4 3 1 18 12 4 4 5 24 85 93 98 47 5 17 5 5
100 100 100 97 100 100 100 100 66 100 96 72 68 72 99 80 95 18 20 5 4 3 5 6 96 58 7 7 42 4 5 4 5 4 4 0 5 5 1 48 83 87 74 100 100
100 100 100 77 52 100 98 8 53 100 93 77 85 80 100 100 100 100 17 56 98 100 71 51 6 16 15 37 42 2 4 0 0 2 5 4 0 5 2 30 92 100 55 100 100
100 100 100 100 100 100 100 100 100 100 100 100 72 47 89 100 100 100 100 100 100 100 100 100 73 4 4 5 2 37 5 5 4 0 3 6 14 0 2 8 81 67 94 100 100
100 100 100 100 100 100 100 100 100 100 100 100 100 37 54 7 2 26 99 100 100 100 100 100 85 62 0 0 0 0 5 43 4 5 0 5 6 30 16 5 78 100 100 14 12
100 100 100 100 100 100 100 100 73 100 52 15 78 38 46 88 100 100 9 5 10 20 4 0 1 4 1 0 0 0 2 5 64 5 5 90 0 98 99 9 5 54 100 100 100
100 100 100 100 100 100 100 88 94 100 38 81 97 5 3 4 1 8 3 1 0 0 0 0 0 0 0 0 0 0 0 0 73 33 12 79 14 100 100 56 5 5 12 100 100
74 96 100 100 100 100 100 100 100 95 96 9 5 4 0 3 0 0 0 0 0 0 4 2 0 0 0 0 0 0 0 2 2 5 96 100 0 100 76 65 13 53 32 97 100
100 91 5 6 5 3 5 4 5 0 0 0 0 0 0 0 0 0 4 5 3 0 0 4 73 0 0 0 0 0 0 5 0 1 90 100 10 97 96 80 85 81 100 98 100
100 93 81 5 3 1 2 8 8 5 17 3 0 0 1 2 1 0 0 5 57 53 5 40 15 3 0 0 0 0 8 69 90 98 100 94 90 86 100 95 100 100 100 100 100
100 100 51 5 4 50 3 31 40 1 6 2 1 1 0 0 0 3 0 5 30 100 71 100 25 3 2 0 0 0 4 37 4 100 99 38 60 50 79 68 100 100 100 100 100
100 100 100 5 38 26 4 0 5 35 38 16 43 0 0 0 2 0 0 12 26 20 100 99 81 68 99 1 4 0 1 4 99 100 88 39 28 67 4 43 75 100 100 100 100
100 100 97 100 25 5 3 4 5 54 9 3 4 0 0 62 4 0 0 3 98 80 100 100 100 100 100 0 16 14 76 69 100 97 33 59 62 0 15 88 38 100 100 100 100
100 100 100 100 26 4 2 1 80 82 69 41 1 0 0 2 5 17 7 56 59 100 100 99 87 80 86 76 13 61 100 100 99 65 82 1 88 0 35 80 74 100 95 100 99
100 100 100 85 44 22 5 12 67 77 16 3 0 0 5 2 5 88 72 99 96 100 100 100 63 41 16 100 43 100 100 100 99 100 75 100 100 3 93 97 95 100 100 100 94
100 100 100 83 11 5 4 42 84 54 3 0 0 5 4 2 74 6 37 85 100 100 62 91 100 71 5 37 96 97 7 79 100 100 100 100 58 50 100 100 100 100 100 94 99
100 100 100 86 28 13 33 89 30 0 0 0 2 78 18 23 96 100 100 100 100 100 74 100 100 100 100 100 91 91 27 100 100 100 100 100 100 80 100 100 100 100 85 100 100
100 100 100 52 8 13 54 2 0 0 0 5 56 96 79 38 100 100 100 44 92 98 75 100 100 64 100 89 97 96 100 100 100 100 100 100 100 100 100 96 99 100 100 100 100
100 90 5 5 5 66 27 32 5 0 2 5 83 96 65 100 100 100 100 83 26 6 99 100 100 64 75 87 93 100 100 100 100 100 100 100 100 100 100 100 100 100 100 83 94
100 85 59 5 80 5 37 1 0 1 19 76 76 100 99 100 100 100 100 96 76 58 92 100 100 100 78 94 100 100 100 100 100 100 100 100 100 100 100 100 100 100 99 100 100
100 47 66 71 84 89 48 26 18 10 93 65 100 53 84 97 100 100 100 100 84 78 94 100 100 100 98 15 85 98 100 100 100 100 100 100 100 100 100 100 100 100 100 100 100
100 98 55 34 6 5 37 61 14 84 27 48 84 87 93 81 98 100 96 100 96 98 93 100 100 100 100 100 88 100 100 100 100 100 100 100 100 100 100 100 100 100 92 100 100
95 49 10 76 84 26 20 5 45 93 76 70 70 100 100 58 56 99 100 100 100 100 77 100 100 100 100 100 97 95 36 100 100 100 100 100 100 100 100 100 100 100 88 100 100
98 89 51 99 5 5 40 64 64 82 84 53 100 87 100 100 100 78 72 86 100 100 54 100 100 100 100 100 100 100 100 100 100 100 100 100 100 100 100 100 100 98 42 99 100
99 82 97 47 97 70 100 10 5 3 3 32 34 5 19 87 28 5 5 5 93 100 65 72 100 96 100 100 100 100 100 100 100 100 100 100 100 100 100 100 100 94 88 97 53

GFSSW_prec_cloud_117.txt.gz
Cloud_Cover
5 5 5 5 8 30 36 31 82 100 99 100 100 100 100 100 100 100 99 100 100 86 30 5 6 5 8 90 74 99 34 0 3 5 13 5 1 0 2 6 75 65 5 20 0
47 5 5 27 5 5 5 13 5 31 93 75 86 75 100 100 96 32 6 77 73 31 98 100 100 100 100 100 100 96 86 3 4 4 22 92 51 4 0 1 50 100 84 6 5
50 58 93 95 60 5 5 6 14 98 39 21 27 61 6 64 70 8 5 20 14 5 6 57 64 20 11 10 5 3 1 0 0 0 0 1 5 40 0 0 0 92 9 100 82
100 80 88 80 100 97 17 8 8 12 68 97 90 24 25 96 82 11 56 27 51 72 82 55 99 96 52 30 72 5 1 2 5 5 5 3 5 0 0 0 3 14 5 33 100
100 100 100 30 100 93 100 100 100 100 100 61 56 80 100 96 100 100 74 98 98 100 100 100 100 100 100 100 99 25 88 49 5 6 5 9 16 16 4 0 3 2 0 0 47
100 98 100 100 100 100 100 100 100 100 100 86 59 94 100 100 100 100 98 25 99 85 27 91 100 100 100 100 100 100 100 100 70 11 64 24 6 6 4 5 0 0 0 0 4
100 100 100 100 100 100 100 100 100 100 96 51 63 86 100 95 100 100 100 100 100 53 80 99 56 56 34 11 21 50 86 100 100 100 2 6 2 0 100 70 5 0 0 0 0
100 100 100 100 100 100 100 100 100 100 100 100 100 100 99 87 86 42 7 53 63 26 69 82 88 94 100 93 59 13 0 0 97 100 0 90 16 5 70 90 98 64 0 0 0
100 100 93 34 89 56 93 100 100 100 100 100 100 100 100 99 98 100 26 5 5 5 8 24 5 2 0 0 0 0 0 0 29 4 0 27 1 0 5 5 87 24 2 0 0
99 100 100 65 80 43 11 70 5 0 27 100 99 84 14 10 22 8 1 0 0 0 0 0 0 0 0 0 0 0 0 0 0 1 0 31 18 0 0 5 1 8 5 4 0
100 100 100 100 100 100 89 86 5 22 0 0 0 0 0 0 0 0 0 0 0 0 0 0 4 0 0 0 0 0 18 0 0 0 0 0 0 0 5 98 5 5 5 4 0
100 100 100 100 100 100 91 8 49 1 3 4 0 0 0 0 0 0 2 3 0 0 1 28 88 0 7 0 0 6 93 38 0 0 39 30 77 0 81 14 2 5 5 5 1
100 100 100 100 100 100 100 50 74 8 0 0 0 0 0 0 0 3 0 0 0 0 1 5 63 80 98 2 5 6 100 41 2 10 100 98 30 0 4 100 23 5 3 5 5
100 100 100 100 100 100 100 13 16 5 22 18 0 0 0 0 0 0 3 5 0 0 0 8 96 100 13 1 23 78 97 81 4 99 100 68 76 7 15 42 56 55 84 91 96
100 100 100 100 100 100 99 97 94 100 2 0 0 0 0 0 0 0 1 5 3 0 2 84 40 100 100 82 100 3 4 0 28 100 100 100 95 6 8 47 2 3 5 100 100
100 100 100 100 100 100 100 100 96 49 14 0 0 0 0 0 0 0 0 2 0 0 61 32 95 98 100 69 98 1 1 100 84 100 99 30 27 14 21 0 2 3 48 100 100
100 100 100 100 100 100 97 97 52 32 1 0 0 0 4 2 0 0 3 2 49 69 75 8 95 100 80 77 49 100 100 100 100 100 24 61 52 0 0 0 5 40 99 100 100
100 100 100 100 100 100 100 47 65 5 0 0 0 0 4 5 1 0 5 7 3 37 46 94 100 100 99 100 4 100 67 72 100 44 5 49 0 0 2 5 59 98 100 100 93
100 100 100 100 100 100 100 100 94 5 0 0 0 0 2 0 2 0 4 5 90 97 100 100 100 100 68 100 78 1 87 100 88 55 1 43 65 100 79 100 92 7 100 100 100
100 100 100 100 100 100 100 62 5 0 0 4 4 0 2 4 1 4 2 3 75 98 91 100 99 100 100 100 67 51 18 2 7 31 22 92 100 100 100 100 100 97 100 100 83
100 100 100 100 100 100 100 36 5 2 0 19 2 2 5 3 5 73 6 30 5 78 57 100 100 100 100 100 100 100 38 4 98 100 100 100 100 100 100 100 100 92 100 100 98
100 100 100 100 100 100 100 10 0 0 99 40 98 2 4 5 5 71 45 100 83 5 58 100 82 100 100 100 100 40 100 96 100 100 100 100 100 100 100 100 100 100 100 100 100
100 100 100 100 100 49 77 30 8 5 0 19 30 54 21 2 29 99 100 68 38 96 100 100 100 100 100 97 100 100 95 100 100 100 100 100 100 100 100 100 100 100 100 100 100
100 99 62 46 5 20 6 52 64 26 17 4 97 11 5 1 2 55 10 93 97 34 100 100 100 100 100 100 100 82 18 99 100 100 100 100 100 100 100 100 100 100 100 100 99
100 100 96 68 93 25 0 3 4 63 100 6 10 81 6 2 0 4 5 89 99 70 100 100 100 100 100 100 100 100 16 84 100 100 100 100 100 100 100 100 100 100 100 100 100
100 98 60 94 8 5 6 87 99 5 44 2 42 5 0 0 59 33 0 0 0 54 100 100 100 100 100 100 100 100 100 100 100 100 100 100 100 100 100 100 100 100 100 100 28
100 100 100 60 25 49 59 14 28 24 15 43 2 1 5 50 5 0 0 4 5 16 93 100 100 100 100 100 100 100 100 97 100 100 100 100 100 100 100 100 100 100 100 74 70

GFSSW_prec_cloud_120.txt.gz
Cloud_Cover
5 5 5 17 74 16 5 4 5 5 5 6 26 57 19 8 79 94 89 100 97 98 100 100 92 53 59 80 23 5 0 0 3 49 58 93 43 3 0 0 0 0 0 5 8
5 5 5 5 5 31 8 76 5 5 4 5 5 5 5 5 5 5 31 100 100 100 100 90 96 57 28 20 3 19 2 5 32 83 52 58 23 82 4 0 0 0 0 1 56
93 8 68 99 100 92 74 5 13 5 5 40 34 64 90 5 7 5 8 9 7 33 88 100 29 5 6 20 5 5 2 4 4 95 98 92 98 44 0 0 0 0 0 0 0
99 86 9 34 40 98 98 100 96 85 79 84 86 100 100 100 64 99 100 100 95 73 39 6 46 86 90 26 83 8 7 4 9 54 92 100 92 100 39 4 0 0 0 0 0
87 15 69 25 95 100 100 100 100 100 26 100 100 100 100 100 93 88 88 93 100 100 100 89 99 100 100 99 100 99 97 92 82 22 100 100 82 91 37 9 5 4 0 0 0
5 30 46 64 16 78 99 100 100 80 12 36 45 95 88 99 100 96 100 98 78 31 44 92 100 100 92 99 84 98 54 75 100 95 100 100 100 100 32 98 5 2 4 0 0
36 23 72 64 63 81 51 46 98 100 97 100 96 99 100 100 100 100 100 98 95 100 100 99 97 20 24 11 63 73 5 2 16 100 100 72 13 54 99 100 66 5 0 5 5
98 72 99 5 50 26 71 65 100 100 87 100 100 100 100 100 100 100 100 100 100 100 100 100 100 34 12 24 5 1 0 0 57 86 99 100 0 5 98 94 100 74 5 4 4
100 98 93 40 65 49 67 22 91 66 26 4 8 7 27 22 92 84 54 81 100 100 100 87 94 89 91 66 5 11 4 1 0 1 2 19 0 5 5 5 7 23 5 5 1
100 100 95 87 27 85 97 53 96 96 20 5 1 5 0 3 2 0 0 0 1 15 24 8 17 1 0 0 0 0 0 0 0 0 0 0 0 0 0 0 0 2 2 5 42
100 100 83 38 22 38 100 80 100 100 60 10 66 5 68 37 2 0 0 0 0 0 0 0 0 0 0 0 0 0 0 0 0 0 0 0 0 0 0 0 0 0 2 25 58
100 100 100 100 100 100 100 100 100 100 100 100 100 98 41 18 0 1 0 0 5 0 0 0 0 0 0 1 5 5 2 2 1 0 0 0 0 0 0 0 0 0 0 0 61
100 100 100 100 100 100 100 100 100 100 100 91 100 60 5 1 0 0 0 8 0 0 0 0 0 0 0 2 64 9 0 3 15 0 0 68 1 0 0 0 0 4 0 0 3
100 100 100 100 100 100 100 100 100 100 100 100 97 82 6 1 0 0 0 0 1 0 0 0 0 0 0 1 100 100 97 5 0 2 100 87 42 0 0 0 2 5 0 0 0
100 100 100 100 100 100 100 100 100 100 100 100 37 5 1 0 0 1 0 1 0 4 11 0 0 2 3 6 100 50 100 11 4 2 100 100 100 0 5 2 5 4 0 4 14
100 100 100 100 100 100 100 100 100 100 100 100 28 5 5 2 0 0 0 1 3 4 1 0 54 80 36 98 51 33 89 88 100 85 100 99 86 0 83 4 6 5 5 69 100
100 100 100 100 100 100 100 100 100 100 100 100 100 91 6 2 1 0 0 3 14 30 28 26 86 93 99 95 27 70 100 100 100 100 67 95 89 0 5 13 90 100 100 100 100
100 100 100 100 100 100 100 100 100 100 100 100 98 42 5 0 0 5 2 4 3 4 39 6 100 62 98 99 100 97 4 1 8 46 93 100 57 0 36 100 79 62 99 100 100
100 100 100 100 100 100 100 100 100 100 96 100 59 5 0 0 0 17 74 6 5 10 79 99 100 26 67 76 90 14 8 100 100 99 100 29 4 7 0 10 45 58 20 86 30
100 100 100 100 100 100 100 100 100 100 59 26 17 5 5 0 0 32 96 98 20 4 99 84 100 100 95 100 67 90 6 100 100 100 87 49 1 18 92 87 29 17 4 2 3
100 100 100 100 100 100 100 100 100 100 94 11 5 4 1 3 0 5 35 36 26 2 95 84 86 100 100 100 82 98 30 100 100 100 94 85 99 100 92 100 100 100 47 5 5
100 100 100 100 100 100 100 100 100 15 5 12 5 5 5 5 0 3 5 8 0 0 64 100 100 100 100 100 99 100 91 82 97 99 100 100 100 100 100 100 97 100 100 99 100
100 100 100 100 100 100 100 100 100 100 49 5 4 6 21 5 0 0 5 0 5 7 40 100 100 100 100 99 89 100 100 98 100 100 100 100 100 100 100 100 100 100 100 100 100
100 100 100 100 100 100 100 100 98 12 5 1 19 72 55 0 0 0 0 5 1 5 100 22 100 100 100 100 94 100 100 100 100 100 100 100 100 100 100 100 100 100 100 100 100
100 100 100 100 87 100 79 17 6 56 14 5 14 31 5 2 0 0 0 0 0 38 83 100 100 100 100 100 100 100 97 93 43 99 100 100 100 100 100 100 100 100 100 100 100
100 100 100 99 5 5 5 5 5 5 3 0 2 0 0 0 1 0 0 5 3 1 5 90 100 100 98 100 100 100 100 100 100 84 100 100 100 100 100 100 100 100 100 100 100
100 100 99 6 70 95 5 7 5 5 5 3 5 14 5 2 0 0 0 8 27 56 4 23 100 100 100 100 100 99 100 100 100 100 100 100 100 100 100 100 100 100 100 100 100

GFSSW_prec_cloud_123.txt.gz
Cloud_Cover
100 100 100 6 6 5 5 5 5 5 4 5 5 3 0 0 2 5 51 5 5 5 50 87 96 63 48 7 35 89 5 0 9 5 5 68 70 100 36 0 0 0 0 0 0
100 87 100 50 64 5 5 5 5 5 5 5 5 3 5 4 5 2 2 2 5 1 5 5 5 8 79 100 34 5 0 0 15 5 5 73 99 100 100 84 75 14 5 0 0
100 78 39 95 5 5 5 5 5 12 62 24 5 5 5 5 5 5 5 5 5 5 5 4 3 5 10 21 5 3 0 4 0 0 10 63 100 100 100 5 65 84 12 1 0
46 96 45 100 100 100 100 100 64 88 90 92 61 94 98 47 9 5 27 6 5 36 33 28 25 5 35 46 93 8 7 3 3 3 5 15 83 100 100 56 69 16 5 4 0
56 22 100 100 100 100 98 62 91 95 70 90 100 100 100 21 10 5 5 5 5 35 90 89 29 34 21 20 18 7 13 6 5 5 26 21 11 75 93 92 100 100 67 6 5
99 100 86 99 100 97 30 63 18 10 20 56 100 100 100 19 43 5 5 5 35 99 91 99 100 34 97 100 100 99 10 5 48 23 71 31 5 42 25 100 100 100 100 44 3
100 100 100 100 99 94 100 97 99 62 79 97 56 18 15 92 98 51 98 22 100 28 100 100 88 63 5 74 100 41 11 72 98 100 100 99 3 0 91 100 100 100 100 6 5
100 98 99 100 100 90 100 100 100 100 100 99 30 8 5 8 68 44 32 80 100 100 100 100 100 100 100 84 54 5 5 2 90 93 50 91 4 2 92 100 100 100 100 8 1
94 100 100 58 58 90 100 100 27 72 73 75 32 44 18 5 4 4 3 5 1 2 0 0 0 6 89 2 0 0 0 1 23 100 97 30 0 2 94 34 14 36 71 22 5
100 97 75 100 82 62 100 95 48 49 40 36 14 56 8 5 29 52 5 0 3 5 2 4 2 5 0 0 0 0 0 0 0 35 0 0 0 0 0 4 5 5 5 5 5
100 79 99 87 100 100 95 88 45 88 23 5 5 12 5 39 71 57 5 16 19 6 48 74 16 0 0 0 0 0 0 0 0 0 0 0 0 0 0 0 0 6 49 7 5
100 100 98 89 54 100 100 100 79 94 72 37 55 13 5 35 97 46 63 100 98 96 5 0 0 0 0 0 0 0 1 1 0 0 1 0 0 0 0 0 0 0 38 57 72
100 80 66 63 92 100 100 92 99 100 83 75 89 41 17 11 83 100 100 24 6 11 0 0 0 0 0 0 0 0 4 5 80 10 97 56 0 0 0 0 0 0 0 4 14
75 42 49 5 50 100 100 100 100 100 100 100 93 20 32 26 38 28 33 39 47 2 2 0 0 0 0 0 20 5 10 100 98 99 96 4 10 0 0 1 0 0 0 0 0
100 38 62 62 13 87 100 100 100 100 100 100 100 100 59 81 14 68 56 80 5 4 3 0 0 0 4 4 33 17 96 96 5 84 95 3 99 2 98 2 0 0 0 0 0
100 83 100 59 92 94 98 100 100 100 100 100 100 100 100 100 91 86 22 5 5 1 1 0 0 2 0 0 5 7 98 28 21 74 98 0 93 0 14 0 0 5 69 6 0
100 100 100 97 100 100 100 100 100 100 100 100 100 100 100 100 100 91 33 62 7 5 2 2 0 0 1 5 30 6 15 5 20 100 65 100 91 0 79 89 4 0 26 34 5
100 100 100 100 100 91 100 100 100 100 100 100 100 100 100 100 57 100 27 3 0 0 5 7 8 4 4 17 54 99 14 44 97 100 99 26 47 48 72 100 100 99 71 98 5
100 100 100 100 100 100 94 100 100 100 100 100 100 100 100 100 75 8 5 5 0 0 3 22 65 3 5 20 89 59 94 100 100 100 100 36 100 94 100 100 100 100 78 31 18
100 100 100 100 100 100 100 100 100 100 100 100 100 100 100 43 28 6 5 0 3 0 0 0 78 16 81 89 96 79 62 77 100 100 100 85 100 90 100 100 100 100 100 88 100
100 100 100 100 100 100 100 100 100 100 100 100 100 100 100 85 82 55 3 0 0 0 0 6 46 97 74 100 79 54 77 87 100 100 100 100 87 100 100 100 100 100 100 98 98
100 100 100 100 100 100 100 100 100 100 100 100 100 100 100 100 100 5 0 0 0 0 0 2 81 100 100 100 88 96 99 100 100 100 100 100 100 100 100 100 100 100 100 99 84
100 100 100 100 100 100 100 100 100 100 100 100 100 100 100 93 18 0 0 0 0 0 5 5 65 100 100 69 47 9 98 100 100 100 100 100 100 100 100 100 100 100 100 100 100
96 100 100 100 100 100 100 100 100 100 100 100 100 69 48 43 2 0 0 0 0 5 93 5 83 100 100 100 100 100 44 100 100 100 100 100 100 100 100 100 100 100 100 100 100
100 100 100 100 100 100 100 100 97 100 88 27 5 16 27 2 0 0 0 0 0 5 12 46 26 99 100 100 100 100 100 100 100 100 100 100 100 100 100 100 100 100 100 100 100
100 100 100 100 100 100 100 100 100 98 14 5 5 5 0 0 0 0 0 3 3 18 5 5 5 40 100 100 100 100 100 100 99 100 100 100 100 100 100 100 100 100 100 100 100
100 100 100 100 100 100 100 100 100 6 3 4 5 3 0 0 0 0 0 7 5 13 5 5 10 84 100 100 100 100 100 100 100 100 100 100 100 100 100 100 100 100 100 100 100

GFSSW_prec_cloud_126.txt.gz
Cloud_Cover
100 100 100 100 100 100 98 91 12 18 58 5 5 5 4 5 5 1 0 0 0 0 0 0 0 0 0 6 14 32 5 2 5 36 38 100 100 100 37 0 0 0 0 0 0
100 100 99 100 93 100 86 76 39 8 5 5 6 5 5 4 5 3 0 0 0 0 0 0 0 0 0 4 0 1 0 4 5 9 17 100 100 100 74 30 5 5 3 3 5
100 100 100 96 82 11 100 66 100 47 5 5 26 12 7 5 5 5 5 3 4 3 4 0 0 0 0 0 2 0 0 4 0 0 2 0 6 77 91 4 5 73 3 0 4
100 100 100 100 94 54 53 90 28 15 59 19 5 5 5 5 5 5 5 5 5 5 4 4 2 2 0 4 5 4 5 5 5 25 67 5 5 100 92 63 94 100 100 5 1
100 100 100 100 31 58 83 100 100 100 100 100 100 99 50 5 19 6 5 5 5 5 5 0 0 0 3 5 47 38 9 9 5 2 5 4 5 5 97 100 100 100 20 8 3
100 100 100 100 46 100 95 86 21 100 100 100 100 100 80 25 6 26 68 10 5 4 5 3 0 1 1 5 73 18 4 10 69 99 20 5 37 5 98 100 100 57 100 83 25
100 100 100 100 97 29 100 53 90 100 100 100 100 96 98 92 67 9 5 5 1 5 57 64 49 99 92 94 88 60 26 97 84 23 96 17 5 98 100 99 100 100 100 22 5
94 90 89 100 86 89 95 98 100 100 100 52 91 99 61 43 40 44 5 5 5 5 5 0 3 5 5 2 69 100 100 95 86 87 92 41 2 85 1 4 84 100 100 100 100
100 99 100 78 100 96 92 100 100 100 100 100 42 100 47 69 37 51 10 13 5 5 1 5 5 3 3 0 0 0 0 0 1 5 0 0 0 12 0 0 1 54 82 100 100
100 100 100 100 100 100 87 22 90 100 100 100 66 41 6 5 5 15 45 31 31 45 17 8 5 5 5 0 0 0 0 0 4 1 0 0 0 0 0 0 0 1 14 64 100
100 100 100 100 100 100 100 100 100 41 82 64 100 80 84 7 7 17 30 6 59 79 10 56 94 11 5 2 4 2 2 4 5 0 0 0 0 0 0 0 0 0 0 5 5
100 100 100 100 100 98 93 100 100 49 8 5 5 5 8 39 45 5 14 40 62 64 9 5 46 5 77 87 4 0 0 0 0 0 2 0 2 0 0 0 0 0 0 0 3
100 100 100 100 100 100 100 97 38 97 71 69 10 81 49 25 88 9 5 98 71 99 6 5 5 0 0 0 0 4 3 2 38 2 0 4 32 0 0 0 0 0 0 0 0
100 100 100 100 63 97 75 82 100 41 66 40 5 13 93 96 93 69 62 44 16 6 5 15 5 2 0 0 0 0 11 85 21 72 99 19 76 0 0 0 0 0 0 0 0
100 100 100 100 100 82 99 26 14 62 80 5 4 22 100 100 99 99 65 62 7 5 48 81 40 5 1 2 2 0 6 99 65 100 83 0 77 0 0 0 0 0 0 0 0
100 100 100 100 99 100 97 100 80 11 13 4 5 6 83 100 100 100 100 100 100 100 96 99 95 6 3 0 4 5 8 5 42 64 92 79 100 38 64 100 99 80 4 0 0
100 100 100 100 97 100 100 100 100 54 12 35 48 81 65 100 100 100 100 100 100 100 100 100 52 1 0 4 5 6 36 36 5 38 44 100 91 58 93 100 86 100 100 100 96
99 100 100 100 100 100 100 100 99 40 100 81 94 34 98 100 100 100 100 100 100 100 100 84 7 0 0 39 99 6 93 100 84 22 10 99 100 100 99 100 100 100 100 100 100
99 97 98 100 100 100 100 100 100 100 100 98 55 100 100 100 100 100 100 100 100 100 96 5 3 2 5 7 76 67 97 44 95 100 100 100 100 100 100 100 100 100 100 100 100
100 100 100 100 100 100 100 100 100 100 100 100 100 100 100 100 100 100 100 100 100 97 5 3 18 0 1 42 98 76 91 89 79 98 100 100 100 100 100 100 100 100 100 100 100
100 100 100 100 100 100 100 100 100 100 100 100 100 100 100 100 100 100 100 100 100 84 5 0 27 6 3 36 72 65 92 93 98 100 100 100 100 100 100 100 100 100 100 100 100
100 100 100 100 100 100 100 100 100 100 100 100 100 100 100 100 100 100 100 100 73 7 0 5 30 92 5 20 32 86 98 88 100 100 100 100 100 100 100 100 100 100 100 100 100
100 100 100 100 100 100 100 100 100 100 100 100 100 100 100 100 100 100 95 27 1 0 5 17 10 70 95 36 98 50 91 100 100 100 100 100 100 100 100 100 100 100 100 100 100
100 100 100 100 100 100 100 100 100 100 100 100 100 100 100 100 100 88 53 4 0 0 5 9 5 6 41 88 100 94 100 100 100 100 100 100 100 100 100 100 100 100 100 100 100
100 100 100 100 100 100 100 100 100 100 100 100 100 100 100 70 25 31 3 0 0 4 41 98 9 5 5 97 100 100 100 100 100 100 100 100 100 100 100 100 100 100 100 100 100
100 100 100 100 100 100 100 100 100 100 100 100 100 100 100 62 15 5 0 0 0 14 5 5 5 5 5 88 100 100 100 100 100 100 100 100 100 100 100 100 100 100 100 100 100
100 100 100 100 100 100 100 100 100 100 100 100 100 99 78 7 3 0 0 0 5 5 5 5 5 59 62 100 100 100 100 100 100 100 100 100 100 100 100 100 100 100 100 100 100

GFSSW_prec_cloud_129.txt.gz
Cloud_Cover
34 49 37 98 92 91 71 100 100 100 100 100 97 90 73 8 5 5 3 2 4 0 0 0 0 0 0 0 0 0 0 0 10 30 58 47 80 87 89 7 9 5 5 4 0
87 91 18 97 100 99 98 100 100 97 100 100 100 92 89 99 26 50 5 4 5 5 2 0 0 0 0 0 0 0 0 2 0 0 5 16 91 100 31 75 53 100 10 0 5
100 100 100 100 88 99 100 100 100 100 100 100 100 100 100 85 100 15 5 5 5 5 1 4 3 0 5 5 5 5 5 2 2 5 4 5 9 100 97 74 70 100 99 4 0
100 100 100 100 100 100 100 100 100 100 91 90 35 100 75 25 59 96 46 9 5 5 5 5 5 5 11 5 4 1 3 0 0 0 0 0 0 54 27 25 100 100 100 16 5
100 100 100 100 100 84 100 100 100 99 61 51 100 86 94 100 100 100 70 71 100 59 5 45 22 5 5 5 3 0 0 0 0 0 1 0 6 63 96 100 100 100 100 100 10
100 100 100 100 100 100 80 100 100 92 88 40 52 100 100 82 100 100 100 96 74 82 90 100 96 8 8 5 5 3 0 4 0 0 0 1 14 5 12 76 99 74 55 99 100
100 100 100 100 100 100 100 100 100 100 24 5 14 80 100 100 100 100 52 98 100 98 100 100 79 6 7 4 5 0 5 5 6 21 4 4 25 39 4 5 10 100 93 100 100
81 100 100 100 100 100 100 100 100 100 76 5 5 40 100 100 96 85 100 100 100 81 35 36 67 48 5 3 2 4 5 3 1 1 0 0 1 99 100 100 100 100 100 100 100
100 84 100 91 100 100 100 100 100 100 100 96 93 82 100 100 100 96 76 32 70 93 90 73 18 5 3 5 5 5 5 5 5 5 0 0 0 0 9 4 0 0 85 100 100
100 100 100 100 100 100 100 98 100 100 100 100 100 97 68 86 100 91 100 94 18 5 7 25 23 5 5 5 5 5 5 5 5 3 0 0 0 0 0 0 0 3 3 3 19
100 100 100 100 100 66 80 100 100 99 100 100 100 86 100 75 5 5 100 100 84 38 5 4 5 5 5 5 1 0 0 0 0 0 0 0 0 0 1 0 0 0 0 0 0
100 100 100 100 100 100 60 86 100 100 100 76 31 100 100 100 99 100 100 9 46 5 5 22 77 6 3 1 0 0 0 0 0 0 5 0 0 0 0 0 0 0 0 0 0
100 100 100 100 100 100 100 75 100 94 61 19 13 40 41 78 91 5 5 8 89 64 18 7 5 5 4 3 0 0 0 0 3 2 4 25 0 0 0 0 0 0 0 0 0
100 100 100 100 100 100 86 100 100 93 87 4 6 5 9 5 5 5 5 6 92 93 98 100 49 5 5 5 0 4 0 4 41 93 55 31 64 0 0 0 0 0 0 1 3
100 100 100 100 100 100 100 100 100 100 44 10 0 5 4 5 10 10 26 34 34 93 100 100 99 98 29 5 4 3 5 5 6 100 94 0 38 0 0 0 99 100 6 4 0
100 100 100 100 100 100 100 100 100 100 100 84 42 3 3 3 5 5 33 37 87 100 100 100 100 96 7 36 56 1 5 7 41 97 88 0 0 69 30 100 100 97 100 100 27
100 100 100 100 100 100 100 100 100 100 77 44 31 5 5 5 5 64 10 5 61 100 100 100 100 55 90 89 5 5 49 33 3 36 9 13 23 12 98 100 100 100 100 100 100
100 100 100 100 100 100 100 100 100 99 14 16 20 14 28 23 6 91 32 75 100 100 100 100 100 100 100 14 50 57 94 99 93 5 2 66 40 100 100 100 100 100 100 100 100
100 100 100 100 100 100 100 100 100 100 79 90 88 96 100 100 92 92 97 100 100 100 100 100 100 100 5 32 62 100 100 100 100 14 95 8 70 100 93 100 100 100 100 100 100
100 100 100 100 100 100 98 100 100 100 100 92 100 92 100 94 100 100 100 100 100 100 100 100 99 34 22 36 64 99 74 83 100 97 100 100 98 100 100 100 100 100 100 100 100
100 88 100 92 100 78 97 95 100 100 100 100 99 100 100 100 100 100 100 100 100 100 100 100 100 19 0 4 27 5 81 92 96 79 100 99 100 100 100 100 100 100 100 100 100
100 100 100 100 84 66 92 99 100 100 100 100 100 100 100 100 100 100 100 100 100 100 100 87 5 32 0 4 5 5 88 100 100 100 100 100 100 100 100 100 100 100 100 100 100
100 100 100 100 100 100 100 100 100 100 100 100 100 96 100 100 100 100 100 100 100 100 100 4 8 50 0 41 12 80 91 94 100 100 100 100 100 100 100 100 100 100 100 100 100
100 100 100 100 100 100 100 100 100 100 100 100 100 100 100 100 100 100 100 100 100 68 5 5 5 5 5 3 97 80 90 93 100 100 100 100 100 100 100 100 100 100 100 100 100
100 100 100 100 100 100 100 100 100 100 100 100 100 100 100 100 100 100 100 100 79 11 5 5 5 5 5 9 97 100 73 100 100 100 100 100 100 100 100 100 100 100 100 100 100
100 100 100 100 100 100 100 100 100 100 100 100 100 100 100 100 100 100 100 100 78 2 5 5 5 5 5 39 100 100 100 100 100 100 100 100 100 100 100 100 100 100 100 100 100
100 100 100 100 100 100 100 100 100 100 100 100 100 100 100 100 100 100 100 54 5 4 5 5 5 15 17 100 100 100 100 100 100 100 100 100 100 100 100 100 100 100 100 100 100

GFSSW_prec_cloud_132.txt.gz
Cloud_Cover
17 5 78 76 97 80 60 95 58 47 36 53 42 88 100 100 100 100 96 100 72 6 5 3 2 0 0 2 1 0 0 0 1 3 0 83 84 35 5 5 7 2 0 0 1
5 5 26 89 8 100 100 100 100 48 86 54 96 91 87 98 100 100 56 100 100 29 5 5 5 5 5 5 4 0 0 0 2 4 2 2 3 31 3 2 4 40 81 52 50
71 92 55 99 45 70 100 100 100 100 55 66 99 100 82 93 100 99 100 99 100 86 31 69 8 5 5 5 5 5 5 5 5 5 5 5 1 3 3 19 99 100 100 9 4
100 99 100 49 17 32 100 100 100 100 100 82 100 92 97 69 90 11 80 100 100 100 100 49 57 47 79 29 5 5 7 10 5 5 6 5 5 5 0 4 98 4 47 100 10
100 100 100 100 95 88 100 100 100 100 100 100 100 80 61 71 71 94 100 100 100 100 100 100 92 17 18 44 32 15 35 7 6 5 5 3 5 5 5 5 3 4 17 95 100
100 100 100 100 100 100 100 100 100 100 100 100 100 99 32 28 48 100 98 100 100 100 100 100 90 68 61 59 7 16 13 5 5 5 0 4 5 4 5 5 3 1 70 100 100
100 100 100 100 100 100 100 100 100 100 100 100 100 100 9 64 6 5 86 100 100 100 100 100 100 97 97 94 90 47 5 5 5 5 0 0 4 0 0 3 5 5 1 7 100
100 100 100 100 100 100 100 100 100 100 100 100 100 100 100 17 26 16 22 72 70 100 100 100 100 100 100 100 100 99 51 24 5 5 4 0 4 4 4 2 0 1 5 5 6
97 100 100 100 100 100 100 100 100 100 100 100 100 100 100 100 80 66 11 5 6 92 100 100 99 86 67 93 100 99 22 5 5 5 1 0 30 5 0 0 1 0 2 4 5
99 100 100 100 100 100 100 100 96 100 100 100 100 100 100 100 100 100 100 91 61 18 24 54 99 100 100 82 71 80 95 94 9 4 5 5 3 4 4 0 0 0 0 0 0
89 100 100 100 100 100 100 100 98 95 100 99 100 100 100 100 100 100 86 10 26 97 67 5 1 0 0 2 4 5 5 6 5 2 0 0 0 0 0 0 0 0 0 0 0
100 100 100 100 100 100 100 100 100 91 94 48 93 100 100 99 98 100 85 10 5 5 5 5 5 3 2 1 2 4 0 0 0 0 0 0 0 0 0 0 0 0 0 0 0
100 100 100 100 100 100 100 100 100 98 100 96 60 38 11 50 95 60 95 88 5 3 2 5 4 5 5 5 5 22 5 1 0 0 2 4 0 0 0 0 0 2 4 1 5
100 100 100 100 100 100 100 100 100 100 100 100 87 90 93 60 17 32 21 5 5 5 1 1 5 5 5 44 7 61 6 5 5 4 5 20 16 0 0 1 9 8 62 40 54
100 100 100 100 100 100 100 100 100 100 100 63 100 100 100 49 26 15 5 3 5 5 2 0 2 20 82 79 53 20 30 10 12 5 47 3 4 0 3 97 30 5 15 90 87
100 100 100 100 100 100 100 100 100 100 100 100 92 78 100 100 93 100 86 33 60 7 3 5 5 35 14 33 39 5 40 93 13 5 28 0 0 0 88 100 100 100 52 56 100
100 100 100 100 100 100 100 100 100 100 100 100 93 100 100 100 100 98 100 23 5 28 18 5 5 88 100 100 92 75 87 14 38 50 4 2 22 97 100 92 100 100 100 87 100
100 100 100 100 100 100 100 100 100 100 100 100 100 100 100 93 100 100 9 6 46 83 89 14 28 88 87 90 74 90 52 50 99 5 5 5 76 100 80 77 99 100 89 92 100
100 100 100 100 100 100 100 100 52 100 100 100 100 100 100 58 83 42 5 38 100 99 100 83 87 99 100 100 100 66 74 30 75 85 100 84 100 100 55 45 96 99 100 100 100
100 100 100 100 100 100 100 79 85 100 100 100 100 100 100 100 90 82 5 98 89 99 100 100 100 97 100 100 100 90 71 82 97 99 100 100 100 100 40 94 97 100 100 100 100
100 100 100 100 100 100 29 100 100 100 100 100 100 100 100 56 73 80 100 98 100 100 100 100 100 100 100 100 80 89 100 97 79 78 100 100 100 100 100 100 99 100 100 100 100
100 100 100 100 100 68 100 100 100 99 100 100 100 100 89 100 100 100 100 100 100 100 100 100 100 100 100 100 63 99 89 99 95 100 100 100 100 100 100 100 100 100 100 100 100
100 100 100 100 100 93 95 87 100 100 54 51 100 100 99 100 100 100 100 85 100 100 100 100 100 100 100 52 80 100 99 98 100 67 100 100 100 100 100 100 100 100 100 100 100
100 100 100 100 100 95 100 100 83 80 94 98 100 90 100 100 100 100 100 100 100 100 100 100 100 100 54 17 33 96 100 86 98 99 100 99 100 100 100 100 100 100 100 100 100
100 100 100 100 100 100 100 100 100 100 100 100 100 100 100 100 100 100 100 100 100 100 100 100 100 16 99 98 90 100 100 62 88 100 100 99 100 100 100 100 100 100 100 100 100
100 100 100 100 100 100 100 100 100 100 100 100 100 100 100 100 100 100 100 100 100 100 100 100 59 5 100 60 100 100 100 82 89 100 100 100 100 100 100 100 100 100 100 100 100
100 100 100 100 100 100 100 100 100 100 100 100 100 100 100 100 100 100 100 100 100 100 100 100 80 98 97 87 100 100 96 100 96 92 100 100 100 100 100 100 100 100 100 100 100